[[{"header":{"parameterUnit":"m.s-1","parameterCategory":1,"la1":30.6,"la2":29.2853,"lo1":-89.7004,"lo2":-87.6739,"dy":0.0162,"dx":0.0183,"nx":112,"ny":82,"refTime":"2026-03-18T12:00:00:Z","depth":0,"parameterNumber":2,"parameterNumberName":"U-component_of_WINDS"},"data":[0.0,0.0,0.0,0.0,0.0,0.0,0.0,0.0,0.0,0.0,0.0,0.0,0.0,0.0,0.0,0.0,0.0,0.0,0.0,0.0,0.0,0.0,0.0,0.0,0.0,0.0,0.0,0.0,0.0,0.0,0.0,0.0,0.0,0.0,0.0,0.0,0.0,0.0,0.0,0.0,0.0,0.0,0.0,0.0,0.0,0.0,0.0,0.0,0.0,0.0,0.0,0.0,0.0,0.0,0.0,0.0,0.0,0.0,0.0,0.0,0.0,0.0,0.0,0.0,0.0,0.0,0.0,0.0,0.0,0.0,0.0,0.0,0.0,0.0,0.0,0.0,0.0,0.0,0.0,0.0,0.0,0.0,0.0,0.0,0.0,0.0,0.0,0.0,0.0,0.0,0.0,3.0871,3.5081,3.6108,3.2679,2.9889,2.7094,2.4193,0.0,0.0,0.0,0.0,0.0,0.0,0.0,0.0,0.0,0.0,0.0,0.0,0.0,0.0,0.0,0.0,0.0,0.0,0.0,0.0,0.0,0.0,0.0,0.0,0.0,0.0,0.0,0.0,0.0,0.0,0.0,0.0,0.0,0.0,0.0,0.0,0.0,0.0,0.0,0.0,0.0,0.0,0.0,0.0,0.0,0.0,0.0,0.0,0.0,0.0,0.0,0.0,0.0,0.0,0.0,0.0,0.0,0.0,0.0,0.0,0.0,0.0,0.0,0.0,0.0,0.0,0.0,0.0,0.0,0.0,0.0,0.0,0.0,0.0,0.0,0.0,0.0,0.0,0.0,0.0,0.0,0.0,0.0,0.0,0.0,0.0,0.0,0.0,0.0,0.0,0.0,0.0,0.0,0.0,0.0,0.0,0.0,0.0,0.0,0.0,0.0,0.0,0.0,0.0,2.8658,3.6862,3.9714,3.9642,3.6224,3.2955,2.9351,2.526,0.0,0.0,0.0,0.0,0.0,0.0,0.0,0.0,0.0,0.0,0.0,0.0,0.0,0.0,0.0,0.0,0.0,0.0,0.0,0.0,0.0,0.0,0.0,0.0,0.0,0.0,0.0,0.0,0.0,0.0,0.0,0.0,0.0,0.0,0.0,0.0,0.0,0.0,0.0,0.0,0.0,0.0,0.0,0.0,0.0,0.0,0.0,0.0,0.0,0.0,0.0,0.0,0.0,0.0,0.0,0.0,0.0,0.0,0.0,0.0,0.0,0.0,0.0,0.0,0.0,0.0,0.0,0.0,0.0,0.0,0.0,0.0,0.0,0.0,0.0,0.0,0.0,0.0,0.0,0.0,0.0,0.0,0.0,0.0,0.0,0.0,0.0,0.0,0.0,0.0,0.0,0.0,0.0,0.0,0.0,0.0,0.0,0.0,0.0,0.0,0.0,0.0,0.0,2.787,3.385,3.9282,4.1456,4.0931,3.7026,3.3641,2.9836,2.5482,2.1054,0.0,0.0,0.0,0.0,0.0,0.0,0.0,0.0,0.0,0.0,0.0,0.0,0.0,0.0,0.0,0.0,0.0,0.0,0.0,0.0,0.0,0.0,0.0,0.0,0.0,0.0,0.0,0.0,0.0,0.0,0.0,0.0,0.0,0.0,0.0,0.0,0.0,0.0,0.0,0.0,0.0,0.0,0.0,0.0,0.0,0.0,0.0,0.0,0.0,0.0,0.0,0.0,0.0,0.0,0.0,0.0,0.0,0.0,0.0,0.0,0.0,0.0,0.0,0.0,0.0,0.0,0.0,0.0,0.0,0.0,0.0,0.0,0.0,0.0,0.0,0.0,0.0,0.0,0.0,0.0,0.0,0.0,0.0,0.0,0.0,0.0,0.0,0.0,0.0,0.0,0.0,0.0,0.0,0.0,0.0,0.0,0.0,0.0,0.0,0.0,0.0,0.0,3.3317,3.8009,4.0806,4.2473,4.1643,3.7373,3.3757,2.9759,2.5187,2.0811,0.0,0.0,0.0,0.0,0.0,0.0,0.0,0.0,0.0,0.0,0.0,0.0,0.0,0.0,0.0,0.0,0.0,0.0,0.0,0.0,0.0,0.0,0.0,0.0,0.0,0.0,0.0,0.0,0.0,0.0,0.0,0.0,0.0,0.0,0.0,0.0,0.0,0.0,0.0,0.0,0.0,0.0,0.0,0.0,0.0,0.0,0.0,0.0,0.0,0.0,0.0,0.0,0.0,0.0,0.0,0.0,0.0,0.0,0.0,0.0,0.0,0.0,0.0,0.0,0.0,0.0,0.0,0.0,0.0,0.0,0.0,0.0,0.0,0.0,0.0,0.0,0.0,0.0,0.0,0.0,0.0,0.0,0.0,0.0,0.0,0.0,0.0,0.0,0.0,0.0,0.0,0.0,0.0,0.0,0.0,0.0,0.0,0.0,0.0,0.0,0.0,0.0,3.4635,3.92,4.2566,4.3701,4.2508,3.8277,3.4083,2.949,2.4326,1.9906,0.0,0.0,0.0,0.0,0.0,0.0,0.0,0.0,0.0,0.0,0.0,0.0,0.0,0.0,0.0,0.0,0.0,0.0,0.0,0.0,0.0,0.0,0.0,0.0,0.0,0.0,0.0,0.0,0.0,0.0,0.0,0.0,0.0,0.0,0.0,0.0,0.0,0.0,0.0,0.0,0.0,0.0,0.0,0.0,0.0,0.0,0.0,0.0,0.0,0.0,0.0,0.0,0.0,0.0,0.0,0.0,0.0,0.0,0.0,0.0,0.0,0.0,0.0,0.0,0.0,0.0,0.0,0.0,0.0,0.0,0.0,0.0,0.0,0.0,0.0,0.0,0.0,0.0,0.0,0.0,0.0,0.0,0.0,0.0,0.0,0.0,0.0,0.0,0.0,0.0,0.0,0.0,0.0,0.0,0.0,0.0,0.0,0.0,0.0,0.0,0.0,0.0,3.4769,3.9315,0.0,4.4316,4.3393,3.9161,3.4891,3.0451,2.5761,0.0,0.0,0.0,0.0,0.0,0.0,0.0,0.0,0.0,0.0,0.0,0.0,0.0,0.0,0.0,0.0,0.0,0.0,0.0,0.0,0.0,0.0,0.0,0.0,0.0,0.0,0.0,0.0,0.0,0.0,0.0,0.0,0.0,0.0,0.0,0.0,0.0,0.0,0.0,0.0,0.0,0.0,0.0,0.0,0.0,0.0,0.0,0.0,0.0,0.0,0.0,0.0,0.0,0.0,0.0,0.0,0.0,0.0,0.0,0.0,0.0,0.0,0.0,0.0,0.0,0.0,0.0,0.0,0.0,0.0,0.0,0.0,0.0,0.0,0.0,0.0,0.0,0.0,0.0,0.0,0.0,0.0,0.0,0.0,0.0,0.0,0.0,0.0,0.0,0.0,0.0,0.0,0.0,0.0,0.0,0.0,0.0,0.0,0.0,0.0,0.0,0.0,2.9325,3.4769,3.9315,0.0,4.4355,4.3585,3.9642,3.5372,3.0931,2.6297,0.0,0.0,0.0,0.0,0.0,0.0,0.0,0.0,0.0,0.0,0.0,0.0,0.0,0.0,0.0,0.0,0.0,0.0,0.0,0.0,0.0,0.0,0.0,0.0,0.0,0.0,0.0,0.0,0.0,0.0,0.0,0.0,0.0,0.0,0.0,0.0,0.0,0.0,0.0,0.0,0.0,0.0,0.0,0.0,0.0,0.0,0.0,0.0,0.0,0.0,0.0,0.0,0.0,0.0,0.0,0.0,0.0,0.0,0.0,0.0,0.0,0.0,0.0,0.0,0.0,0.0,0.0,0.0,0.0,0.0,0.0,0.0,0.0,0.0,0.0,0.0,0.0,0.0,0.0,0.0,0.0,0.0,0.0,0.0,0.0,0.0,0.0,0.0,0.0,0.0,0.0,0.0,0.0,0.0,0.0,0.0,0.0,0.0,0.0,0.0,0.0,0.0,2.9306,3.475,3.9296,4.2701,4.3797,4.2912,3.9565,3.5353,3.0681,0.0,0.0,0.0,0.0,0.0,0.0,0.0,0.0,0.0,0.0,0.0,0.0,0.0,0.0,0.0,0.0,0.0,0.0,0.0,0.0,0.0,0.0,0.0,0.0,0.0,0.0,0.0,0.0,0.0,0.0,0.0,0.0,0.0,0.0,0.0,0.0,0.0,0.0,0.0,0.0,0.0,0.0,0.0,0.0,0.0,0.0,0.0,0.0,0.0,0.0,0.0,0.0,0.0,0.0,0.0,0.0,0.0,0.0,0.0,0.0,0.0,0.0,0.0,0.0,0.0,0.0,0.0,0.0,0.0,0.0,0.0,0.0,0.0,0.0,0.0,0.0,0.0,0.0,0.0,0.0,0.0,0.0,0.0,0.0,0.0,0.0,0.0,0.0,0.0,0.0,0.0,0.0,0.0,0.0,0.0,0.0,0.0,0.0,0.0,0.0,0.0,0.0,0.0,0.0,3.3848,3.8161,4.0969,4.2027,4.1412,3.8623,3.4487,3.0336,2.6297,0.0,0.0,0.0,0.0,0.0,0.0,0.0,0.0,0.0,0.0,0.0,0.0,0.0,0.0,0.0,0.0,0.0,0.0,0.0,0.0,0.0,0.0,0.0,0.0,0.0,0.0,0.0,0.0,0.0,0.0,0.0,0.0,0.0,0.0,0.0,0.0,0.0,0.0,0.0,0.0,0.0,0.0,0.0,0.0,0.0,0.0,0.0,0.0,0.0,0.0,0.0,0.0,0.0,0.0,0.0,0.0,0.0,0.0,0.0,0.0,0.0,0.0,0.0,0.0,0.0,0.0,0.0,0.0,0.0,0.0,0.0,0.0,0.0,0.0,0.0,0.0,0.0,0.0,0.0,0.0,0.0,0.0,0.0,0.0,0.0,0.0,0.0,0.0,0.0,0.0,0.0,0.0,0.0,0.0,0.0,0.0,0.0,0.0,0.0,0.0,0.0,0.0,2.8128,3.3465,3.7546,3.9777,4.0777,4.0258,3.77,3.4218,3.0528,2.6642,0.0,0.0,0.0,0.0,0.0,0.0,0.0,0.0,0.0,0.0,0.0,0.0,0.0,0.0,0.0,0.0,0.0,0.0,0.0,0.0,0.0,0.0,0.0,0.0,0.0,0.0,0.0,0.0,0.0,0.0,0.0,0.0,0.0,0.0,0.0,0.0,0.0,0.0,0.0,0.0,0.0,0.0,0.0,0.0,0.0,0.0,0.0,0.0,0.0,0.0,0.0,0.0,0.0,0.0,0.0,0.0,0.0,0.0,0.0,0.0,0.0,0.0,0.0,0.0,0.0,0.0,0.0,0.0,0.0,0.0,0.0,0.0,0.0,0.0,0.0,0.0,0.0,0.0,0.0,0.0,0.0,0.0,0.0,0.0,0.0,0.0,0.0,0.0,0.0,0.0,0.0,0.0,0.0,0.0,0.0,0.0,0.0,0.0,0.0,0.0,0.0,0.0,2.8134,3.3451,3.73,3.8892,3.9777,3.9238,3.668,3.4218,3.097,2.668,0.0,0.0,0.0,0.0,0.0,0.0,0.0,0.0,0.0,0.0,0.0,0.0,0.0,0.0,0.0,0.0,0.0,0.0,0.0,0.0,0.0,0.0,0.0,0.0,0.0,0.0,0.0,0.0,0.0,0.0,0.0,0.0,0.0,0.0,0.0,0.0,0.0,0.0,0.0,0.0,0.0,0.0,0.0,0.0,0.0,0.0,0.0,0.0,0.0,0.0,0.0,0.0,0.0,0.0,0.0,0.0,0.0,0.0,0.0,0.0,1.9577,0.0,0.0,0.0,0.0,0.0,0.0,0.0,0.0,0.0,0.0,0.0,0.0,0.0,0.0,0.0,0.0,0.0,0.0,0.0,0.0,0.0,0.0,0.0,0.0,0.0,0.0,0.0,0.0,0.0,0.0,0.0,0.0,0.0,0.0,0.0,0.0,0.0,0.0,0.0,0.0,0.0,2.8218,3.3379,3.678,3.7213,3.8031,3.7507,3.4949,3.3026,3.0393,2.6723,0.0,0.0,0.0,0.0,0.0,0.0,0.0,0.0,0.0,0.0,0.0,0.0,0.0,0.0,0.0,0.0,0.0,0.0,0.0,0.0,0.0,0.0,0.0,0.0,0.0,0.0,0.0,0.0,0.0,0.0,0.0,0.0,0.0,0.0,0.0,0.0,0.0,0.0,0.0,0.0,0.0,0.0,0.0,0.0,0.0,0.0,0.0,0.0,0.0,0.0,0.0,0.0,0.0,0.0,0.0,0.0,0.0,0.0,0.0,0.0,0.0,2.1957,0.0,0.0,0.0,0.0,0.0,0.0,0.0,0.0,0.0,0.0,0.0,0.0,0.0,0.0,0.0,0.0,0.0,0.0,0.0,0.0,0.0,0.0,0.0,0.0,0.0,0.0,0.0,0.0,0.0,0.0,0.0,0.0,0.0,0.0,0.0,0.0,0.0,0.0,0.0,0.0,2.8089,3.2893,3.5924,3.6025,3.6848,3.6507,3.4372,3.266,3.0578,2.7915,2.4878,0.0,0.0,0.0,0.0,0.0,0.0,0.0,0.0,0.0,0.0,0.0,0.0,0.0,0.0,0.0,0.0,0.0,0.0,0.0,0.0,0.0,0.0,0.0,0.0,0.0,0.0,0.0,0.0,0.0,0.0,0.0,0.0,0.0,0.0,0.0,0.0,0.0,0.0,0.0,0.0,0.0,0.0,0.0,0.0,0.0,0.0,0.0,0.0,0.0,0.0,0.0,0.0,0.0,0.0,0.0,3.6328,3.6328,3.6382,3.6188,3.1708,2.9101,2.7923,0.0,0.0,0.0,0.0,0.0,0.0,0.0,0.0,0.0,0.0,0.0,0.0,0.0,0.0,0.0,0.0,0.0,0.0,0.0,0.0,0.0,0.0,0.0,0.0,0.0,3.1257,3.0331,0.0,0.0,0.0,0.0,0.0,0.0,0.0,0.0,0.0,0.0,0.0,0.0,2.8431,3.2816,3.5596,3.5733,3.6588,3.6411,3.4584,3.3026,3.1328,2.9416,2.632,2.3755,0.0,0.0,0.0,0.0,0.0,0.0,0.0,0.0,0.0,0.0,0.0,0.0,0.0,0.0,0.0,0.0,0.0,0.0,0.0,0.0,0.0,0.0,0.0,0.0,0.0,0.0,0.0,0.0,0.0,0.0,0.0,0.0,1.708,1.7362,0.0,0.0,0.0,0.0,0.0,0.0,0.0,0.0,0.0,0.0,0.0,0.0,0.0,0.0,3.1201,3.4603,3.7224,3.9089,4.0672,4.1492,4.1607,4.1607,4.1666,4.1762,4.1074,0.0,3.2749,3.2277,0.0,0.0,0.0,0.0,0.0,0.0,0.0,0.0,0.0,0.0,0.0,0.0,0.0,0.0,0.0,0.0,0.0,0.0,0.0,0.0,0.0,0.0,3.6347,3.6457,3.7558,3.8187,0.0,3.3694,3.0514,2.8379,0.0,0.0,0.0,0.0,0.0,0.0,0.0,0.0,3.0366,3.4655,3.7406,3.7526,3.8405,3.7969,3.5545,3.443,3.2801,3.0299,2.8237,2.6288,2.4504,2.1909,0.0,0.0,0.0,0.0,0.0,0.0,0.0,0.0,0.0,0.0,0.0,0.0,0.0,0.0,0.0,0.0,0.0,0.0,0.0,0.0,0.0,0.0,0.0,0.0,0.0,0.0,0.0,0.0,0.0,1.7129,1.9481,2.0462,2.0948,2.0873,0.0,0.0,0.0,0.0,0.0,0.0,0.0,0.0,0.0,2.7349,3.0151,3.3092,3.6093,3.958,4.2679,4.5323,4.657,4.7643,4.8544,4.8544,4.8584,4.8644,4.8683,4.6798,4.3397,3.8647,3.5477,3.334,0.0,0.0,0.0,0.0,0.0,0.0,3.1186,0.0,0.0,0.0,0.0,0.0,0.0,0.0,0.0,0.0,0.0,0.0,0.0,0.0,0.0,4.0653,4.1405,4.1827,4.146,3.9877,3.7436,0.0,3.2853,3.1343,2.7381,0.0,0.0,0.0,0.0,0.0,3.1297,3.5208,3.7884,3.8503,3.9004,3.8642,3.7046,3.5699,3.3999,3.184,2.997,2.8146,2.6317,2.3708,2.1421,0.0,0.0,0.0,0.0,0.0,0.0,0.0,0.0,0.0,0.0,0.0,0.0,0.0,0.0,0.0,0.0,0.0,0.0,0.0,0.0,0.0,0.0,0.0,0.0,0.0,0.0,0.0,0.0,1.9703,0.0,2.3971,2.4522,2.4479,0.0,0.0,0.0,0.0,0.0,0.0,2.7524,2.8889,3.0294,3.1703,3.4783,3.7804,4.0668,4.3921,4.7049,5.0029,5.0914,5.1991,5.3203,5.3203,5.3182,5.3182,5.3161,5.2647,5.1294,4.4789,4.1172,3.9471,3.6295,3.516,0.0,3.5057,3.5747,3.6847,3.7279,3.7289,3.6821,3.5236,0.0,3.1748,3.0152,0.0,0.0,0.0,0.0,3.5548,3.8238,0.0,4.3314,4.4709,4.5204,4.5241,4.4819,4.4727,4.3364,0.0,3.7198,3.5552,3.1734,0.0,0.0,0.0,0.0,2.955,3.2845,3.6214,3.8742,3.994,4.0159,3.9784,3.8674,3.6853,3.4985,3.3149,3.1081,2.9232,2.7622,2.5192,2.2961,0.0,0.0,0.0,0.0,0.0,0.0,0.0,0.0,0.0,0.0,0.0,0.0,0.0,0.0,0.0,0.0,0.0,0.0,0.0,0.0,0.0,0.0,0.0,0.0,0.0,0.0,0.0,0.0,0.0,0.0,2.7431,2.8594,0.0,0.0,0.0,0.0,2.9372,3.1008,3.2332,3.3147,3.328,3.4472,3.6937,3.88,4.1452,4.4954,4.7641,4.985,5.1678,5.2644,5.3126,5.3203,5.3203,5.3161,5.3099,5.3034,5.2772,5.218,5.0005,4.7886,4.5727,4.2553,4.1778,4.2321,4.1615,4.2396,4.3925,4.4949,4.482,4.3921,4.2307,3.9008,3.5454,3.448,3.3988,0.0,0.0,3.8176,4.0797,4.3269,4.5937,4.8177,4.9058,4.9866,4.9994,4.8398,4.8067,4.6673,0.0,4.0585,3.9144,3.5941,0.0,0.0,3.0827,3.1486,3.3033,3.5813,3.8513,4.0821,4.2524,4.2716,4.2027,4.0325,3.7881,3.5654,3.3781,3.1248,2.9338,2.8278,2.647,2.4302,2.18,1.9925,0.0,0.0,0.0,0.0,0.0,0.0,0.0,0.0,0.0,0.0,0.0,0.0,0.0,0.0,0.0,0.0,0.0,0.0,0.0,0.0,0.0,0.0,0.0,0.0,0.0,0.0,0.0,0.0,3.0953,3.366,0.0,0.0,3.4414,3.4596,3.4219,3.5828,3.6919,3.7122,3.8042,3.9181,4.052,4.2583,4.4865,4.7327,5.0054,5.2318,5.4139,5.5157,5.5934,5.6492,5.6492,5.6387,5.6237,5.6046,5.5769,5.534,5.4277,5.1836,4.8489,4.5956,4.5472,4.6127,4.5271,4.5749,4.6868,4.7314,4.726,4.6838,4.5682,4.3158,4.0466,4.0071,3.9462,3.9067,3.9787,4.1451,4.3451,4.5515,4.7146,4.8655,5.0031,5.0582,5.0343,4.8673,4.7498,4.6122,4.3965,4.3508,4.2675,4.0072,3.8155,3.6753,3.6062,3.5837,3.6533,3.8644,4.1238,4.3288,4.4384,4.486,4.4166,4.1852,3.9197,3.6458,3.3618,3.1467,2.9887,2.8924,2.7185,2.5553,2.4135,2.1988,1.9888,0.0,0.0,0.0,0.0,0.0,0.0,0.0,0.0,0.0,0.0,0.0,0.0,0.0,0.0,0.0,0.0,0.0,0.0,0.0,0.0,0.0,0.0,0.0,0.0,0.0,0.0,3.183,3.4838,3.7901,3.9372,3.8458,3.8765,3.8697,3.7958,3.9304,4.0092,3.9994,4.0845,4.1772,4.2743,4.4745,4.6806,4.8935,5.1912,5.4185,5.5728,5.6764,5.7565,5.8122,5.8122,5.801,5.7772,5.7539,5.7239,5.6842,5.635,5.4496,5.18,5.0281,5.0085,5.0566,4.9939,5.0126,5.0666,5.0431,5.0178,4.9829,4.8943,4.7145,4.5277,4.5258,4.458,4.3812,4.398,4.4783,4.6063,4.7824,4.8708,4.9572,5.1224,5.161,5.1077,4.915,4.7462,4.6067,4.5312,4.4961,4.4296,4.2808,4.1642,4.0656,4.0,3.9316,3.9432,4.092,4.3139,4.4882,4.5585,4.6233,4.5537,4.2872,4.0193,3.7188,3.3818,3.143,2.985,2.9181,2.7503,2.6227,2.5421,2.2722,2.0747,1.9535,0.0,0.0,0.0,0.0,0.0,0.0,0.0,0.0,0.0,0.0,0.0,0.0,0.0,0.0,0.0,0.0,0.0,0.0,0.0,0.0,0.0,0.0,0.0,2.6268,3.0809,3.5362,3.8995,4.1161,4.2475,4.2661,4.2087,4.1412,4.0636,4.136,4.1805,4.1738,4.1571,4.2176,4.37,4.5249,4.7294,4.9816,5.33,5.5484,5.6321,5.7357,5.7832,5.7832,5.7832,5.7701,5.7427,5.7251,5.6936,5.6536,5.6184,5.5974,5.5834,5.5673,5.5592,5.5592,5.5592,5.5592,5.5464,5.4675,5.3904,5.3115,5.2289,5.0949,4.9646,4.9627,4.9003,4.8306,4.8269,4.8251,4.8618,5.0288,5.0747,5.1169,5.2784,5.3188,5.2546,5.0105,4.8288,4.6874,4.6067,4.4826,4.3984,4.4141,4.3698,4.3133,4.2491,4.1802,0.0,4.2633,4.4221,4.5494,4.6144,4.6852,4.6183,4.3501,4.0846,3.7858,3.4444,3.1047,2.9144,2.9052,2.7478,2.6227,2.5421,2.2209,2.0479,2.0337,0.0,0.0,0.0,0.0,0.0,0.0,0.0,0.0,0.0,0.0,0.0,0.0,0.0,0.0,0.0,0.0,0.0,0.0,0.0,0.0,0.0,0.0,2.9594,2.9787,3.4193,3.8483,4.1471,4.4665,4.6032,4.4486,4.4441,4.3917,4.2492,4.2624,4.2689,4.2582,4.2928,4.3564,4.4469,4.6509,4.8541,5.0514,5.4415,5.6506,5.6822,5.8286,5.8949,5.8949,5.8949,5.8868,5.87,5.8372,5.814,5.7909,5.7567,5.7426,5.7289,5.6051,5.5592,5.5592,5.5592,5.5592,5.5464,5.4675,5.4252,5.394,5.3133,5.2179,5.1224,5.0637,4.9462,4.8196,4.7609,4.7021,4.6929,4.8563,4.9426,5.027,5.194,5.2784,5.2546,5.0105,4.8288,4.6874,4.6067,4.5147,4.4736,4.5478,4.6099,4.6041,4.4815,0.0,0.0,4.4121,4.5508,4.6554,4.6629,4.7702,4.7386,4.4792,4.1588,3.8317,0.0,3.1164,2.8787,2.8176,2.7145,2.6227,2.5421,2.4405,2.3557,0.0,0.0,0.0,0.0,0.0,0.0,0.0,0.0,0.0,0.0,0.0,0.0,0.0,0.0,0.0,0.0,0.0,0.0,0.0,0.0,0.0,0.0,3.0622,3.3707,3.478,3.8063,4.112,4.3226,4.6092,4.7283,4.5754,4.5285,4.4509,4.3165,4.3035,4.2963,4.2814,4.3439,4.4277,4.5336,4.7284,4.9238,5.1249,5.4976,5.7011,5.7355,5.8613,5.9214,5.9214,5.9214,5.9122,0.0,5.8728,5.854,5.8338,5.8088,5.7997,0.0,0.0,0.0,0.0,0.0,5.6602,5.6436,5.5299,5.4895,5.4711,5.3573,5.2656,5.1848,5.1041,4.9389,4.7645,4.6838,4.5773,4.5333,4.7297,4.8398,4.9499,5.1518,5.2619,5.2637,5.0545,4.8526,4.6966,4.6507,0.0,0.0,4.6359,4.7159,4.7345,4.6507,4.6255,4.596,0.0,4.6571,4.732,4.7155,4.8151,4.7797,4.5238,4.2492,0.0,0.0,0.0,2.9494,2.8356,0.0,0.0,0.0,0.0,0.0,0.0,0.0,0.0,0.0,2.6203,2.7074,0.0,0.0,0.0,0.0,0.0,0.0,0.0,0.0,0.0,0.0,0.0,0.0,0.0,0.0,0.0,0.0,3.4215,3.7445,4.0018,4.1835,4.3336,4.443,4.618,4.7067,4.6418,4.5112,4.3934,4.3037,4.2908,4.2852,0.0,0.0,0.0,0.0,0.0,4.9661,5.1992,5.5256,5.7211,5.7861,5.8756,5.9145,5.9145,5.9145,5.9082,5.8892,5.8745,5.8559,5.8281,5.8171,5.807,5.7997,5.7997,5.7997,5.7997,5.7997,5.7997,0.0,0.0,0.0,0.0,5.383,5.2784,5.1958,5.1077,4.9205,4.7205,4.6287,4.4929,4.4268,4.6526,4.7774,4.9022,5.1316,5.2546,5.2784,5.1261,4.9132,4.7535,4.7535,4.6305,4.5718,4.715,4.7481,4.7603,4.7562,4.7103,0.0,4.668,4.7481,4.7988,4.7726,0.0,0.0,4.5365,4.355,4.0928,3.7074,3.3495,3.0852,2.9347,2.8503,2.8448,2.9255,2.8695,2.8772,2.9569,3.192,3.3953,3.5597,3.2889,3.2604,0.0,0.0,0.0,0.0,0.0,0.0,0.0,0.0,0.0,0.0,0.0,0.0,0.0,0.0,0.0,3.3214,3.6316,3.9136,4.1754,4.3645,4.4953,4.5463,4.6676,4.6961,4.5661,4.4767,4.3917,4.3003,4.2718,4.2845,4.3396,4.402,0.0,4.6694,4.8352,5.0315,5.269,5.5753,5.7609,5.8294,0.0,0.0,6.0112,6.0112,6.0112,6.0083,6.0018,5.9622,5.8988,5.8988,5.8602,5.7997,5.7997,5.7997,5.7997,5.7997,5.7997,5.785,5.6895,5.6143,5.5427,5.4473,5.3628,5.2711,5.1242,5.0013,0.0,4.7297,4.6177,4.5681,4.6819,4.8214,4.9627,5.0765,5.2142,5.2949,5.1977,5.0875,5.0086,5.0086,4.9315,4.8746,4.9058,4.8565,4.7923,4.7279,4.7629,4.774,4.7095,4.8273,4.8936,4.8254,4.8935,4.8676,4.6819,4.5186,4.3075,4.0341,3.5275,3.1953,3.098,3.0155,3.0118,3.0907,3.2045,3.334,3.4834,3.7234,3.991,4.2642,3.8645,3.7707,0.0,0.0,0.0,0.0,0.0,0.0,0.0,0.0,0.0,0.0,0.0,2.4569,0.0,0.0,3.2444,3.5895,3.8058,4.0055,4.2253,4.3751,4.4789,4.5161,4.6177,4.6439,4.5352,4.4575,4.3905,4.3345,4.3479,4.3715,4.3995,4.5369,4.6727,4.7953,5.0027,5.2008,5.3925,5.6583,5.8233,5.8884,5.9908,6.0401,6.0401,6.0401,6.0401,6.0401,6.0401,5.9942,5.9189,5.8786,5.8364,5.7997,5.7997,5.7997,5.7997,5.7997,5.7997,5.7886,5.7079,5.6547,5.5996,5.4785,5.4124,5.35,5.1885,5.0545,4.9315,4.8067,4.6838,4.6177,4.7407,4.8655,4.9884,5.1114,5.2637,5.3592,5.2766,5.2289,5.1885,5.1481,5.0747,5.0068,4.9646,4.9224,4.8673,4.7847,4.8049,4.8159,4.7755,4.8398,4.8746,4.8343,4.8691,4.8453,4.7223,4.5259,4.3075,4.0653,3.7459,3.511,3.3899,3.3054,3.2797,3.3201,3.4412,3.5862,3.7514,3.9918,4.2763,4.5883,4.4071,4.3944,0.0,0.0,0.0,0.0,0.0,0.0,0.0,0.0,1.9696,2.2951,2.591,2.8777,3.1637,3.322,3.5109,3.8095,3.9571,4.0919,4.2498,4.359,4.43,4.4468,4.5462,4.5916,4.5365,4.4859,4.449,4.4326,4.4757,4.5096,4.5234,4.6936,4.8513,4.9833,5.1972,5.3905,5.5566,5.7722,5.9143,5.9826,6.054,6.0878,6.0878,6.0878,6.0878,6.086,6.0713,6.0272,5.9612,5.8639,5.8235,5.8217,5.8052,5.7997,5.7997,5.7997,5.7997,5.7905,5.7262,5.6932,5.6602,5.5299,5.4766,5.4363,5.2913,5.1555,5.0343,4.9499,4.8324,4.7627,4.893,4.9774,5.0655,5.2105,5.3463,5.4271,5.3775,5.3555,5.3243,5.2582,5.1811,5.1004,5.0178,4.9921,4.9426,4.8251,4.8214,4.8251,4.8104,4.8214,4.8306,4.8306,4.8453,4.8361,4.7884,4.5883,4.3773,4.1662,4.0487,3.9148,3.7533,3.6505,3.5944,3.5944,3.6945,3.8322,4.0102,4.2359,4.5057,4.8086,4.8728,4.9315,1.6464,1.7715,0.0,2.0614,2.0641,2.0874,0.0,0.0,2.4815,2.7447,3.0277,3.2691,3.3954,3.5556,3.7348,3.9301,4.0972,4.2375,4.3358,4.4336,4.474,4.4141,4.5106,4.5806,4.5738,4.6304,4.6627,4.6459,4.6296,4.6815,4.8136,4.8218,4.9614,5.2647,5.3695,5.5331,5.7647,5.931,6.0577,6.1385,6.2144,6.2548,6.2548,6.2548,6.2548,6.2493,6.1777,6.141,6.1208,5.9703,5.9079,5.9006,5.829,5.7997,5.7997,5.7997,5.7997,5.7997,5.7905,5.7409,5.6785,5.6602,5.6051,5.5299,5.4399,5.4014,5.3683,5.2894,5.2527,5.2435,5.2619,5.2729,5.3023,5.3922,5.4271,5.4564,5.5188,5.4766,5.4234,5.4142,5.3482,5.2692,5.1867,5.1132,4.9884,4.759,4.7847,4.8049,4.7352,4.7865,4.8306,4.8306,4.8985,4.9701,5.0325,4.9481,4.8453,4.7425,4.5278,4.3314,4.1699,4.0157,3.935,3.935,4.0855,4.2763,4.5094,4.6801,4.8948,5.1444,5.1536,5.1261,1.8901,0.0,0.0,0.0,2.5279,2.6242,2.7349,2.8629,3.019,3.2384,3.4672,3.6747,3.8086,3.8953,3.9827,0.0,4.2249,4.3277,4.412,4.4593,4.457,4.3808,4.3743,4.4035,4.4815,4.5602,4.6001,4.5867,4.7029,4.799,4.855,5.0202,5.1793,5.317,5.5335,5.6969,5.7997,6.0052,6.1263,6.1594,6.242,6.2805,6.2805,6.2805,6.2805,6.2768,6.1942,6.1594,6.1465,5.9869,5.9208,5.9134,5.8309,5.7997,5.7997,5.7997,5.7997,5.7997,5.7997,5.7776,5.7428,5.695,5.6583,5.6143,5.5335,5.5097,5.5023,5.4693,5.4601,5.4601,5.4601,5.4601,5.4675,5.5023,5.5464,5.5757,5.5629,5.5702,5.5519,5.4583,5.4124,5.35,5.2215,5.172,5.0655,4.8177,4.77,4.7498,4.715,4.6985,4.726,4.8214,4.9077,4.9921,5.0729,5.049,4.9939,4.9095,4.7627,4.6085,4.4452,4.3296,4.247,4.1992,4.313,4.4654,4.6617,4.7755,4.9572,5.1995,5.1995,5.2068,2.1208,0.0,0.0,2.7504,2.9349,3.0952,3.1715,3.3091,3.4655,3.6096,3.7517,3.8912,4.0101,4.0335,0.0,4.2069,4.3167,4.4103,4.4929,4.5223,4.4984,4.3956,4.3112,4.3004,4.3912,4.4947,4.5681,4.6012,4.805,4.9417,4.9781,5.2183,5.3849,5.4509,5.7226,5.8767,5.8988,6.0951,6.1924,6.1942,6.253,6.2805,6.2805,6.2805,6.2805,6.2787,6.2181,6.1924,6.1814,6.0438,5.9869,5.9777,5.8731,5.8327,5.8309,5.807,5.7997,5.7997,5.7997,5.7997,5.7905,5.7317,5.7134,5.7024,5.6436,5.6253,5.6253,5.6253,5.6253,5.6253,5.6253,5.6088,5.5978,5.6198,5.6547,5.6712,5.6326,5.6547,5.6473,5.5299,5.4693,5.4032,5.2858,5.2289,5.1389,4.9591,4.8251,4.7205,4.6544,4.6122,4.6526,4.8141,4.9279,5.0343,5.1371,5.1463,5.1206,5.0618,4.9793,4.871,4.7315,4.6489,4.5663,4.4837,4.5626,4.6746,4.8141,4.893,5.0472,5.2656,5.2656,5.3096,0.0,0.0,2.8577,3.026,3.2527,3.4509,3.5177,3.6548,3.77,3.7808,3.7982,3.8171,3.8361,3.8441,3.9305,4.1784,4.3574,4.4947,4.5755,4.6544,4.6452,4.4856,4.3956,4.3495,0.0,4.4965,4.6544,4.8086,4.9774,5.1408,5.2968,5.3885,5.5445,5.7776,5.9465,6.0694,6.1465,6.2346,6.2768,6.2768,6.2805,6.2805,6.2805,6.2805,6.2805,6.2805,6.2787,6.2768,6.2713,6.1869,6.152,6.1374,5.9795,5.9171,5.9079,5.829,5.7997,5.7997,5.7997,5.7997,5.7997,5.796,5.796,5.796,5.7923,5.7923,5.7923,5.7923,5.7923,5.7923,5.7923,5.7354,5.6969,5.774,5.7354,5.7024,5.7758,5.7336,5.6804,5.6748,5.5482,5.4381,5.4344,5.3023,5.1958,5.1885,4.9811,4.7425,4.5076,4.5443,4.6526,4.8141,4.9793,5.1408,5.3004,5.3133,5.3133,5.3096,5.2325,5.1518,5.0692,4.9866,4.9022,4.8177,4.9003,4.9848,5.0692,5.1499,5.2729,5.4326,5.4326,5.4748,0.0,0.0,3.2136,3.3837,3.6596,3.8889,3.9013,3.9624,3.9878,3.8798,3.7613,3.7005,3.7841,3.857,3.9753,4.1789,4.4491,4.6397,4.6673,4.6948,4.6709,4.5626,4.4305,0.0,0.0,0.0,0.0,4.6599,4.8746,5.071,5.2325,5.4693,5.662,5.796,6.007,6.1318,6.1594,6.2401,6.2805,6.2805,6.2805,6.2805,6.2805,6.2805,6.2805,6.2805,6.2805,6.2805,6.275,6.1924,6.1594,6.1429,5.9832,5.9208,5.9116,5.8309,5.7997,5.7997,5.7997,5.7997,5.7997,5.7997,5.7997,5.7997,5.7997,5.7997,5.7997,5.7997,5.7997,5.7997,5.7997,5.7795,5.7666,5.7941,5.7795,5.7666,5.7941,5.7795,5.7446,5.6914,5.6363,5.5831,5.528,5.4748,5.3647,5.1536,4.9554,4.7627,4.5736,4.6654,4.7921,4.9022,5.0618,5.2032,5.3115,5.3206,5.3206,5.3206,5.2435,5.1867,5.161,5.082,5.0251,4.9958,5.0153,5.0643,5.1347,5.1517,5.2379,5.3854,5.3945,5.4474,0.0,3.1625,3.5187,3.6887,3.9374,4.1275,4.0706,4.0925,4.0572,3.831,3.638,3.5332,3.6202,3.7014,3.844,4.1121,4.4199,4.6562,4.7425,4.781,4.77,4.6856,4.559,0.0,0.0,0.0,0.0,4.6195,4.8361,5.0545,5.2729,5.5647,5.774,5.8822,6.0915,6.2034,6.2034,6.2548,6.2805,6.2805,6.2805,6.2805,6.2805,6.2805,6.2805,6.2805,6.2805,6.2805,6.2768,6.2236,6.2034,6.1869,6.0272,5.9648,5.952,5.84,5.818,5.84,5.8107,5.7997,5.7997,5.7997,5.7997,5.7997,5.795,5.7904,5.7857,5.7857,5.7857,5.7857,5.7904,5.795,5.7997,5.7997,5.7997,5.7997,5.7997,5.7997,5.785,5.7336,5.7005,5.6638,5.6124,5.5537,5.4363,5.2013,5.0508,4.893,4.7003,4.8177,4.9627,5.0765,5.2068,5.317,5.3995,5.4069,5.4069,5.4069,5.3555,5.328,5.328,5.2784,5.2509,5.2509,5.2322,5.2368,5.2636,5.2434,5.2913,5.394,5.4107,5.4804,3.2009,3.5151,3.7749,3.9331,4.0899,4.1723,4.049,4.0527,3.982,3.6491,3.4351,3.3175,0.0,0.0,3.5566,3.9784,4.2848,4.5535,4.7902,4.9058,4.9334,0.0,0.0,0.0,0.0,0.0,0.0,4.7058,0.0,5.0986,5.4179,5.6712,5.8786,6.0346,6.1979,6.2805,6.2805,6.2805,6.2805,6.2805,6.2805,6.2805,6.2805,6.2805,6.2773,6.2773,6.2755,6.2773,6.2755,6.2718,6.27,6.2535,6.0921,6.0298,6.0096,5.8574,5.85,5.9069,5.8364,5.8088,5.8052,5.8015,5.7997,5.7997,5.7839,5.7697,5.7534,5.7553,5.7553,5.7601,5.7745,5.7904,5.7997,5.7997,5.7997,5.7997,5.7997,5.7997,5.7997,5.7997,5.7373,5.6877,5.6877,5.5537,5.4197,5.3445,5.2637,5.1242,4.8802,4.9921,5.1518,5.3096,5.3977,5.4766,5.5537,5.5592,5.5592,5.5592,5.5592,5.5592,5.5592,5.5592,5.5592,5.5548,5.5304,5.4905,5.4377,5.4179,5.4189,5.4409,5.4793,5.5633,3.5051,3.8358,4.1049,4.1316,4.1942,4.2188,4.0974,3.9935,3.8335,3.5139,3.2139,3.0379,0.0,0.0,0.0,3.805,4.2083,0.0,4.7168,4.9187,0.0,0.0,0.0,5.0196,4.8783,4.7168,0.0,0.0,4.9315,5.0729,5.3371,5.6932,5.9373,6.0382,6.1979,6.2805,6.2805,6.2805,6.2805,6.2805,6.2805,6.2805,6.2823,6.2705,6.2603,6.2519,6.2415,6.231,6.2149,6.1549,6.1295,6.1131,5.9532,5.8896,5.886,5.8542,5.864,5.8957,5.9457,5.9296,5.8804,5.8198,5.7997,5.795,5.7697,5.737,5.7102,5.7138,5.712,5.7134,5.7437,5.7745,5.7997,5.7997,5.7997,5.7997,5.7997,5.7997,5.7997,5.7997,5.7831,5.7685,5.7685,5.6363,5.5207,5.5023,5.4289,5.3133,5.1279,5.1958,5.2986,5.3995,5.4803,5.5372,5.5574,5.5592,5.5592,5.5592,5.5485,5.5395,5.5304,5.5212,5.5119,5.5025,5.4585,5.3979,5.3064,5.3228,5.3194,5.3119,5.3985,5.5086,3.7812,4.0318,4.2189,4.225,4.2078,4.1515,3.9852,3.7952,3.5604,3.241,2.9202,0.0,0.0,0.0,0.0,0.0,0.0,0.0,4.6554,4.8634,5.0008,0.0,5.0785,0.0,4.9621,4.8689,4.8857,0.0,5.0288,5.1334,5.4106,5.774,6.0107,6.0896,6.2163,6.2805,6.2805,6.2805,6.2805,6.2805,6.2805,6.2805,6.2805,6.2603,6.2326,6.2023,0.0,6.1564,6.1265,6.0457,6.0134,5.9973,5.8375,5.7747,5.7747,5.7998,5.8443,5.9132,5.9757,6.0115,6.0126,5.9271,5.8663,5.8275,5.7847,5.7167,5.6564,5.6599,5.6635,5.6827,5.7239,5.7649,5.7997,5.7997,5.7997,5.7997,5.7997,5.7997,5.7997,5.7997,5.7997,5.7997,5.7997,5.695,5.6124,5.6124,5.5445,5.4601,5.3683,5.4289,5.5097,5.5886,5.6381,5.6638,5.6638,5.6638,5.6638,5.6638,5.6456,5.6252,5.5977,5.5781,5.5494,5.5201,5.4492,5.3776,5.3004,5.2729,5.2545,5.2465,5.3281,5.4294,4.018,4.145,4.2141,4.2325,4.1466,4.0053,3.7815,3.5184,3.2304,2.9168,0.0,0.0,2.6326,0.0,3.0459,3.5207,0.0,4.3421,4.5717,4.7524,4.867,4.8817,4.9725,5.0125,4.9592,4.975,5.0582,5.2197,5.1867,5.2803,5.5592,5.8804,6.0933,6.1722,6.2456,6.2805,6.2805,6.2805,6.2805,6.2805,6.2805,6.2805,6.2823,6.2519,6.2077,6.1548,0.0,0.0,6.0238,5.9337,5.9044,5.8885,5.74,5.6799,5.6834,5.7406,5.8317,5.9367,5.9778,6.0668,6.1514,6.0499,5.9511,5.8569,5.8016,5.69,5.5887,5.5996,5.6273,5.6653,5.718,5.7838,5.829,5.818,5.8162,5.8125,5.8015,5.7997,5.7997,5.7997,5.7997,5.7997,5.7997,5.7336,5.684,5.695,5.6271,5.5757,5.5757,5.6363,5.7079,5.7776,5.7941,5.7997,5.7997,5.7997,5.795,5.795,5.7631,5.7252,5.6809,5.6492,5.613,5.561,5.4688,5.3934,5.3281,5.2561,5.2221,5.2164,5.2728,5.357,4.15,4.2178,4.2368,4.1439,4.0105,3.8417,3.5882,3.2727,0.0,0.0,0.0,2.2792,2.4605,2.648,0.0,3.3231,0.0,0.0,0.0,0.0,4.7142,0.0,0.0,0.0,0.0,0.0,0.0,0.0,0.0,0.0,5.6565,5.9648,6.1759,6.2585,6.275,6.2805,6.2805,6.2805,6.2805,6.2805,6.2805,6.2805,6.2823,6.2415,6.1878,6.1243,0.0,0.0,5.9556,5.816,5.7583,5.7496,5.6553,5.6187,5.6326,5.7991,5.8998,5.9643,6.0633,6.1369,6.1749,6.0449,5.9223,5.8085,5.7491,5.6165,5.4913,5.5284,5.6099,5.6982,5.7658,5.8928,5.9832,5.9171,5.9006,5.8822,5.8143,5.7997,5.7997,5.7997,5.7997,5.7997,5.7997,5.7336,5.7042,5.7685,5.7116,5.6602,5.6602,5.6712,5.6859,5.6987,5.7593,5.7997,5.7997,5.7904,5.7792,5.7697,5.7152,5.667,5.6239,5.5848,5.5443,5.5069,5.4616,5.3711,5.2251,5.3007,5.2683,5.1437,5.287,5.3827,4.2195,4.2364,4.2078,4.0806,3.8911,3.6706,3.4023,0.0,0.0,0.0,0.0,2.0582,2.2765,0.0,0.0,0.0,0.0,0.0,0.0,0.0,0.0,0.0,0.0,0.0,0.0,0.0,0.0,0.0,0.0,0.0,5.8033,6.0713,6.2401,6.2805,6.2805,6.2805,6.2805,6.2805,6.2805,6.2805,6.2805,6.2805,6.2755,6.2291,6.1638,6.0736,0.0,0.0,5.8582,5.7021,5.6404,5.6335,5.5547,5.5255,5.5492,5.7403,5.8398,5.8913,6.0061,6.0772,6.1002,6.0214,5.9463,5.8723,5.8023,5.6743,5.5581,5.5871,5.658,5.7412,5.8134,5.9271,6.0005,5.9249,5.8849,5.8474,5.807,5.7997,5.7997,5.7997,5.7997,5.7997,5.7997,5.7685,5.7703,5.851,5.7895,5.729,5.7243,5.7178,5.7013,5.6795,5.7152,5.7556,5.796,5.7792,5.7583,5.7252,5.6722,5.6055,5.5332,5.4948,5.4568,5.4205,5.3635,5.2942,5.2145,5.2309,5.2382,5.2418,5.3212,5.4075,4.2358,4.2151,4.1462,3.9905,3.7534,3.4797,3.1763,2.7491,0.0,0.0,0.0,0.0,0.0,0.0,0.0,0.0,0.0,0.0,0.0,0.0,0.0,0.0,0.0,0.0,0.0,0.0,0.0,0.0,0.0,0.0,0.0,6.1777,6.2805,6.2805,6.2755,6.2755,6.2705,6.2672,6.2654,6.2603,6.2603,6.2603,6.2603,6.206,6.1203,6.0291,0.0,0.0,0.0,5.6325,5.5716,5.5649,5.5057,5.4837,5.5075,5.6934,5.7827,5.8282,5.9238,5.9838,6.0184,5.9803,5.9485,5.9152,5.8432,5.7305,5.6319,5.652,5.7114,5.7816,5.8533,5.9528,6.0198,5.9664,5.9003,5.851,5.851,5.851,5.851,5.851,5.851,5.851,5.851,5.851,5.8786,5.9593,5.8882,5.8208,5.7977,5.7633,5.7289,5.6849,5.6839,5.7115,5.7784,5.7534,5.7152,5.6757,5.6184,5.5426,5.4544,5.4218,5.3898,5.3501,5.2892,5.2469,5.23,5.1894,5.2334,5.3501,5.367,5.4448,4.1966,4.1552,4.0446,3.8146,3.5583,3.2621,2.8724,0.0,0.0,0.0,1.8054,1.7245,1.8329,0.0,0.0,0.0,0.0,0.0,0.0,0.0,0.0,0.0,0.0,0.0,0.0,0.0,0.0,0.0,0.0,0.0,0.0,6.2695,6.2805,6.2805,6.2705,6.2552,6.2415,6.231,6.2185,6.2078,6.2078,6.2078,6.2024,6.1372,6.0651,5.9896,0.0,0.0,0.0,5.6325,5.5716,5.5716,5.5649,5.5615,5.5784,5.7471,5.8336,5.8686,5.8961,5.9317,5.9547,5.9182,5.8628,5.8085,5.7755,5.6799,5.5839,5.6167,5.7101,5.8094,5.8844,6.0242,6.1426,6.1391,6.0768,6.0181,6.0181,6.0181,6.0181,6.0181,6.0181,6.0181,6.0181,6.0181,6.0456,6.1263,6.045,5.9601,5.9148,5.8215,5.7366,5.683,5.7028,5.7166,5.7289,5.6845,5.6456,5.6184,5.5426,5.4782,5.4252,5.3946,5.3651,5.3501,5.3433,5.3044,5.23,5.2976,5.3365,5.3518,5.4177,5.4938,3.93,3.939,3.8797,3.6283,3.3778,3.0818,2.675,0.0,0.0,1.8464,1.7357,1.6961,1.784,1.8654,0.0,0.0,0.0,0.0,0.0,0.0,0.0,0.0,0.0,0.0,0.0,0.0,0.0,0.0,0.0,0.0,0.0,6.2805,6.2805,6.2805,6.2603,6.2326,6.1933,6.1732,6.1394,6.1068,6.1068,6.1068,6.101,6.0572,5.9977,5.9377,0.0,0.0,0.0,5.6799,5.6376,5.6376,5.6376,5.6376,5.6494,5.7582,5.8099,5.8226,5.8314,5.8439,5.8492,5.8368,5.8146,5.7943,5.7995,5.7525,5.7091,5.7304,5.7895,5.8546,5.916,6.0005,6.0698,6.104,6.0541,6.0058,6.0157,6.0207,6.0304,6.0401,6.0401,6.0401,6.0401,6.0401,6.0676,6.1465,6.0619,5.9665,5.9096,5.842,5.7529,5.6422,5.6719,5.715,5.7614,5.7384,5.6976,5.6519,5.6073,5.561,5.5128,5.4941,5.4889,5.4837,5.4837,5.4685,5.4363,5.4685,5.5057,5.5497,5.5784,5.6325,3.6572,3.7214,3.6956,3.4464,3.1991,2.9065,0.0,0.0,1.904,1.7525,1.6835,1.6712,1.7364,1.7824,1.8914,0.0,0.0,0.0,0.0,0.0,0.0,0.0,0.0,0.0,0.0,0.0,0.0,0.0,0.0,0.0,0.0,6.2585,6.2456,6.2456,6.1916,6.1387,6.0807,6.0486,6.0125,5.9787,5.9787,5.991,6.0121,5.9803,5.9429,0.0,0.0,0.0,0.0,5.6867,5.6478,5.6478,5.6478,5.6478,5.6596,5.7543,5.7881,5.7881,5.7881,5.7881,5.7881,5.7881,5.7881,5.7971,5.8044,5.8027,5.7954,5.8044,5.8385,5.8789,5.9265,5.9626,6.0012,6.0585,6.0394,6.0195,6.0407,6.0632,6.0852,6.1068,6.1117,6.1117,6.1117,6.1117,6.13,6.1869,6.0865,5.9852,5.9105,5.8562,5.7719,5.6401,5.6744,5.7279,5.771,5.7499,5.7184,5.6698,5.6419,5.6082,5.5716,5.5716,5.5716,5.5716,5.5716,5.5716,5.5716,5.5716,5.6089,5.6799,5.6799,5.7205,3.424,3.5222,3.5053,3.2656,3.0149,2.7292,0.0,2.0337,1.8034,1.658,1.6301,1.6355,1.6474,1.7268,1.8216,0.0,0.0,0.0,0.0,0.0,0.0,0.0,0.0,0.0,0.0,0.0,0.0,0.0,0.0,0.0,0.0,0.0,6.1612,6.1612,6.0478,5.9526,5.893,5.8494,5.829,5.845,5.845,5.8768,5.9499,5.9199,0.0,0.0,0.0,0.0,0.0,5.6325,5.5733,5.5733,5.5733,5.5733,5.5902,5.7357,5.7881,5.7881,5.7881,5.7881,5.7881,5.7881,5.7881,5.7881,5.7881,5.7881,5.7881,5.7881,5.8188,5.8597,5.9011,5.9412,5.9821,6.0291,6.064,6.1055,6.1456,6.1879,6.2273,6.2686,6.2787,6.2787,6.2787,6.2787,6.2787,6.2805,6.1652,6.043,5.9408,5.8727,5.7939,5.6908,5.7425,5.7737,5.7265,5.6915,5.6653,5.6436,5.6167,5.5926,5.5716,5.5716,5.5716,5.5716,5.5716,5.5716,5.5716,5.5716,5.6089,5.6799,5.6799,5.7205,2.9788,3.1232,3.1608,2.9112,2.7142,2.4821,2.1294,1.8998,1.7313,1.6363,1.6246,1.6367,1.6607,1.6975,1.761,1.8578,0.0,0.0,0.0,0.0,0.0,0.0,0.0,0.0,0.0,0.0,0.0,0.0,0.0,0.0,0.0,0.0,6.0456,6.1557,6.0358,5.9222,5.8348,5.7806,5.7473,5.7328,5.7328,5.7704,5.8422,5.8297,0.0,0.0,0.0,0.0,0.0,5.685,5.6461,5.6461,5.6461,5.6461,5.6579,5.7526,5.7881,5.7881,5.7881,5.7881,5.7881,5.7881,5.7881,5.7881,5.7881,5.7881,5.7881,5.7881,5.8116,5.8402,5.8754,5.9029,5.9299,5.9726,6.003,6.0406,6.0873,6.1243,6.1638,6.2185,6.2238,6.2238,6.2238,6.2238,6.2238,6.2238,6.1063,5.9706,5.8376,5.7642,5.6724,5.5397,5.5953,5.6755,5.7617,5.7598,5.7528,5.7457,5.7332,5.7277,5.7205,5.7205,5.7205,5.7205,5.7205,5.7205,5.7205,5.7205,5.7323,5.7543,5.7543,5.7679,0.0,2.689,2.7476,2.5575,2.4075,2.2383,1.9688,1.7992,1.6832,1.6205,1.6191,1.6367,1.6644,1.7152,1.7747,1.8435,0.0,0.0,0.0,0.0,0.0,0.0,0.0,0.0,0.0,0.0,0.0,0.0,0.0,0.0,0.0,0.0,5.9813,6.1117,5.9611,5.8304,5.7384,5.6806,5.6431,5.618,5.6094,5.6413,5.707,0.0,0.0,0.0,0.0,0.0,0.0,5.6393,5.597,5.6004,5.6275,5.6393,5.6511,5.7526,5.7881,5.7881,5.7881,5.7881,5.7881,5.7881,5.7881,5.7881,5.7881,5.7881,5.7881,5.7881,5.7971,5.8099,5.8368,5.8509,5.865,5.8841,5.9165,5.9565,5.9995,6.0371,6.0772,6.1279,6.1394,6.1394,6.1394,6.1394,6.1394,6.1394,6.0076,5.8673,5.7561,5.6668,5.5667,5.4313,5.5108,5.6089,5.6985,5.7323,5.7594,5.7865,5.7881,5.7881,5.7881,5.7881,5.7881,5.7881,5.7881,5.7881,5.7881,5.7881,5.7881,5.7881,5.7881,5.7881,0.0,2.2439,2.3074,2.2128,2.1161,2.0031,1.847,1.7349,0.0,1.6104,1.6191,1.6421,1.6696,1.7662,1.8476,1.8626,0.0,0.0,0.0,0.0,0.0,0.0,0.0,0.0,0.0,0.0,0.0,0.0,0.0,0.0,0.0,0.0,0.0,6.0291,5.8452,5.7033,5.6259,5.5698,5.5366,5.5108,5.494,5.5145,5.5716,0.0,0.0,0.0,0.0,0.0,0.0,5.5209,5.4617,5.4735,5.5446,5.575,5.597,5.7374,5.7881,5.7881,5.7881,5.7881,5.7881,5.7881,5.7881,5.7881,5.7881,5.7881,5.7881,5.7881,5.7881,5.7881,5.7971,5.7954,5.7954,5.7954,5.826,5.8667,5.9078,5.9429,5.9838,6.0309,6.0432,6.0371,6.0371,6.0371,6.0353,6.0353,5.8756,5.7419,5.6923,5.5895,5.4715,5.3551,5.4702,5.5581,5.5632,5.6359,5.7103,5.7831,5.7881,5.7881,5.7881,5.7881,5.7881,5.7881,5.7881,5.7881,5.7881,5.7881,5.7881,5.7881,5.7881,5.7881,1.6022,0.0,2.1112,2.0188,1.9356,1.8501,0.0,1.6711,1.6194,0.0,0.0,0.0,0.0,0.0,0.0,0.0,0.0,0.0,0.0,0.0,0.0,0.0,0.0,0.0,0.0,0.0,0.0,0.0,0.0,0.0,0.0,0.0,0.0,5.9465,5.8322,5.7401,5.6739,5.6221,5.5812,5.5593,5.5304,5.5349,5.5716,0.0,0.0,0.0,0.0,0.0,5.6697,5.5209,5.4921,5.548,5.5649,5.6055,5.6664,5.756,5.7881,5.7881,5.7881,5.7881,5.7881,5.7881,5.7881,5.7881,5.7881,5.7881,5.7881,5.7881,5.8044,5.8188,5.8331,5.8456,5.858,5.8719,5.8944,5.9234,5.9565,5.9844,6.0118,6.0512,6.0415,6.029,6.0181,6.0019,5.9873,5.9726,5.8094,5.6863,5.6619,5.5089,5.3666,5.2672,5.345,5.4262,5.4803,5.6055,5.7103,5.7831,5.7881,5.7881,5.7881,5.7881,5.7881,5.7881,5.7881,5.7881,5.7881,5.7881,5.7881,5.7881,5.7881,5.7881,1.4151,1.6401,1.8331,1.7807,1.7608,1.7349,1.6696,0.0,0.0,0.0,0.0,0.0,0.0,0.0,0.0,0.0,0.0,0.0,0.0,0.0,0.0,0.0,0.0,0.0,0.0,0.0,0.0,0.0,0.0,0.0,0.0,0.0,0.0,0.0,5.817,5.7631,5.7152,5.6617,5.6138,5.5663,5.5265,5.5029,5.4958,0.0,0.0,0.0,0.0,0.0,5.57,5.4566,5.4532,5.5243,5.5581,5.6156,5.6884,5.7628,5.7881,5.7881,5.7881,5.7881,5.7881,5.7881,5.7881,5.7881,5.7881,5.7881,5.7881,5.7881,5.8116,5.8402,5.8685,5.8944,5.9215,5.9596,5.9726,5.9856,6.0048,6.0192,6.0272,6.0459,6.0317,6.0001,5.9714,5.945,5.9182,5.8823,5.7638,5.6594,5.6201,5.4941,5.355,5.1961,5.2824,5.367,5.4059,5.5446,5.6748,5.7814,5.7881,5.7881,5.7881,5.7881,5.7881,5.7881,5.7881,5.7881,5.7881,5.7881,5.7881,5.7881,5.7881,5.7881,1.3791,1.5004,1.5998,1.6047,1.6577,1.6954,1.6578,0.0,0.0,0.0,0.0,0.0,0.0,0.0,0.0,0.0,0.0,0.0,0.0,0.0,0.0,0.0,0.0,0.0,0.0,0.0,0.0,0.0,0.0,0.0,0.0,0.0,0.0,0.0,5.7941,5.7857,5.7486,5.7051,5.6492,5.5812,5.5308,5.4738,5.4076,5.3898,0.0,0.0,0.0,0.0,5.4532,5.3805,5.4008,5.482,5.5463,5.6224,5.7036,5.7662,5.7881,5.7881,5.7881,5.7881,5.7881,5.7881,5.7881,5.7881,5.7881,5.7881,5.7881,5.7881,5.8188,5.8597,5.9028,5.9429,5.9856,6.0326,6.045,6.045,6.045,6.045,6.0494,6.0494,6.0246,5.9914,5.9447,5.908,5.8632,5.8099,5.7345,5.6579,5.5953,5.5124,5.3771,5.1606,5.2655,5.3501,5.3501,5.4871,5.6342,5.7797,5.7881,5.7881,5.7881,5.7881,5.7881,5.7881,5.7881,5.7881,5.7881,5.7881,5.7881,5.7881,5.7881,5.7881,1.3837,1.5469,1.6847,1.7208,1.7982,1.8671,1.87,0.0,0.0,0.0,0.0,0.0,0.0,0.0,0.0,0.0,0.0,0.0,0.0,0.0,0.0,0.0,0.0,0.0,0.0,0.0,0.0,0.0,0.0,0.0,0.0,0.0,0.0,0.0,0.0,5.7997,5.7904,5.7583,5.7202,5.6686,5.6184,5.5426,5.4482,5.4235,5.4307,0.0,0.0,5.3923,5.4532,5.3805,5.4313,5.5547,5.5683,5.6528,5.7729,5.7848,5.7881,5.7881,5.7881,5.7881,5.7881,5.7881,5.7881,5.7881,5.7881,5.7881,5.7881,5.7881,5.8188,5.8614,5.9132,5.9516,5.9908,6.045,6.0591,6.0591,6.0591,6.0679,6.0765,6.0885,6.0765,6.0503,6.0139,5.9661,5.9182,5.8473,5.7647,5.6978,5.6647,5.5429,5.3957,5.2317,5.2959,5.3501,5.3501,5.4871,5.6342,5.7797,5.7881,5.7881,5.7881,5.7881,5.7881,5.7881,5.7881,5.7881,5.7881,5.7881,5.7881,5.7881,5.7881,5.7881,1.3984,1.5415,1.6904,1.8503,1.9475,2.0027,1.9799,0.0,0.0,0.0,0.0,0.0,0.0,0.0,0.0,0.0,0.0,0.0,0.0,0.0,0.0,0.0,0.0,0.0,0.0,0.0,0.0,0.0,0.0,0.0,0.0,0.0,0.0,0.0,0.0,0.0,5.6693,5.6885,5.6952,5.6966,5.6329,5.5519,5.4658,5.4252,5.4037,0.0,0.0,5.3854,5.421,5.3887,5.438,5.5366,5.5281,5.582,5.6765,5.7386,5.7664,5.7839,5.8319,5.8509,5.8509,5.8509,5.8509,5.8509,5.8509,5.8456,5.8314,5.826,5.8348,5.8614,5.9062,5.9464,5.9873,6.0379,6.0503,6.0503,6.0503,6.0669,6.095,6.1243,6.1279,6.1239,6.0956,6.0511,5.9838,5.8926,5.8341,5.7666,5.6921,5.6207,5.5057,5.3145,5.3636,5.4093,5.4093,5.5091,5.6342,5.7797,5.7881,5.7881,5.7881,5.7881,5.7881,5.7881,5.7881,5.7881,5.7881,5.7881,5.7881,5.7881,5.7881,5.7881,1.4311,1.545,1.6814,1.9191,0.0,2.1164,2.117,0.0,0.0,0.0,0.0,0.0,0.0,0.0,0.0,0.0,0.0,0.0,0.0,0.0,0.0,0.0,0.0,0.0,0.0,0.0,0.0,0.0,0.0,0.0,0.0,0.0,0.0,0.0,0.0,0.0,5.5868,5.6218,5.6515,5.6696,5.6185,5.5519,5.4676,5.4205,5.3866,5.3501,5.3668,5.3898,5.4141,5.4158,5.4604,5.5206,5.5007,5.5281,5.5924,5.7141,5.7672,5.7943,5.8972,5.9299,5.9299,5.9299,5.9299,5.9299,5.9299,5.9165,5.8944,5.8702,5.8597,5.8597,5.8909,5.9247,5.9661,6.0076,6.0184,6.0184,6.0184,6.0432,6.0855,6.1322,6.149,6.1526,6.1528,6.101,6.0282,5.9279,5.8875,5.8251,5.7209,5.6917,5.6089,5.4211,5.4515,5.4921,5.5091,5.5801,5.6697,5.7814,5.7881,5.7881,5.7881,5.7881,5.7881,5.7881,5.7881,5.7881,5.7881,5.7881,5.7881,5.7881,5.7881,5.7881,1.4952,1.5889,1.6833,1.8705,2.0424,0.0,2.3646,2.4703,0.0,0.0,0.0,0.0,0.0,0.0,0.0,0.0,0.0,0.0,0.0,0.0,0.0,0.0,0.0,0.0,0.0,0.0,0.0,0.0,0.0,0.0,0.0,0.0,0.0,0.0,0.0,0.0,5.6712,5.6492,5.6207,5.5812,5.5991,5.5583,5.4606,5.4281,5.3963,5.3501,5.3866,5.4188,5.4544,5.4614,5.5063,5.5623,5.5369,5.5602,5.6304,5.7495,5.8133,5.8625,5.9839,6.0291,6.0291,6.0291,6.0291,6.0291,6.0291,6.0104,5.9704,5.9195,5.8858,5.8719,5.8702,5.8927,5.9132,5.9482,5.9547,5.9547,5.9547,5.9809,6.0174,6.0651,6.0927,6.114,6.1275,6.0782,6.01,5.9383,5.8875,5.8314,5.7887,5.7222,5.6478,5.5649,5.5598,5.5919,5.6579,5.7306,5.778,5.7881,5.7881,5.7881,5.7881,5.7881,5.7881,5.7881,5.7881,5.7881,5.7881,5.7881,5.7881,5.7881,5.7881,5.7881,1.5551,1.6188,1.7135,1.947,0.0,0.0,0.0,0.0,0.0,0.0,0.0,0.0,0.0,0.0,0.0,0.0,0.0,0.0,0.0,0.0,0.0,0.0,0.0,0.0,0.0,0.0,0.0,0.0,0.0,0.0,0.0,0.0,0.0,0.0,0.0,0.0,0.0,5.5569,5.568,5.5721,5.5973,5.5676,5.4966,5.4614,5.435,5.4127,5.454,5.4922,5.5214,5.5402,5.5501,5.5531,5.481,5.4693,5.5101,5.6262,5.7237,5.8156,5.9329,6.0114,6.0538,6.0538,6.0538,6.0538,6.0538,6.0335,6.0048,5.9661,5.9349,5.9029,5.8368,5.8243,5.8368,5.8492,5.8492,5.8492,5.8492,5.8771,5.9165,5.9609,5.9949,6.0299,6.0651,6.0326,5.9838,5.9349,5.8909,5.8456,5.7954,5.7645,5.7205,5.6478,5.6393,5.6511,5.6782,5.7476,5.7881,5.7881,5.7881,5.7881,5.7881,5.7881,5.7881,5.7881,5.7881,5.7881,5.7881,5.7881,5.7881,5.7881,5.7881,5.7881,1.6205,1.6634,1.7377,0.0,0.0,0.0,0.0,0.0,0.0,0.0,0.0,0.0,0.0,0.0,0.0,0.0,0.0,0.0,0.0,0.0,0.0,0.0,0.0,0.0,0.0,0.0,0.0,0.0,0.0,0.0,0.0,0.0,0.0,0.0,0.0,0.0,0.0,5.471,5.5054,5.5478,5.563,5.5537,5.5367,5.5129,5.4966,5.4905,5.5308,5.5698,5.6037,5.6164,5.6035,5.5676,5.4873,5.4475,5.4534,5.5756,5.6628,5.7403,5.8878,5.9724,6.022,6.0468,6.0556,6.0556,6.0556,6.0494,6.029,6.0083,5.9937,5.9661,5.8926,5.8405,5.8171,5.8116,5.8044,5.7971,5.7881,5.8188,5.8526,5.8909,5.9247,5.9596,6.0076,5.9821,5.9495,5.9062,5.8771,5.8368,5.7954,5.7881,5.7695,5.7205,5.7154,5.7154,5.7154,5.7594,5.7881,5.7881,5.7881,5.7881,5.7881,5.7881,5.7881,5.7881,5.7881,5.7881,5.7881,5.7881,5.7881,5.7881,5.7881,5.7881,1.6911,1.7262,0.0,0.0,0.0,0.0,0.0,0.0,0.0,0.0,0.0,0.0,0.0,0.0,0.0,0.0,0.0,0.0,0.0,0.0,0.0,0.0,0.0,0.0,0.0,0.0,0.0,0.0,0.0,0.0,0.0,0.0,0.0,0.0,0.0,0.0,0.0,5.4269,5.4474,5.5007,5.4864,5.5107,5.5688,5.5688,5.5706,5.5706,5.6059,5.6492,5.6912,5.6966,5.6653,5.6088,5.5811,5.5317,5.4884,5.6368,5.6628,5.6562,5.8577,5.9289,5.943,6.0167,6.0414,6.0414,6.0414,6.045,6.0485,6.0432,6.045,6.0485,6.0432,5.9561,5.865,5.8544,5.8331,5.8188,5.7954,5.8044,5.8331,5.865,5.8858,5.9064,5.9433,5.9182,5.8927,5.8702,5.8385,5.8116,5.7971,5.7881,5.7881,5.7881,5.7881,5.7881,5.7881,5.7881,5.7881,5.7881,5.7881,5.7881,5.7881,5.7881,5.7881,5.7881,5.7881,5.7881,5.7881,5.7881,5.7881,5.7881,5.7881,5.7881,1.6946,0.0,0.0,0.0,0.0,0.0,0.0,0.0,0.0,0.0,0.0,0.0,0.0,0.0,0.0,0.0,0.0,0.0,0.0,0.0,0.0,0.0,0.0,0.0,0.0,0.0,0.0,0.0,0.0,0.0,0.0,0.0,0.0,0.0,0.0,0.0,0.0,0.0,5.4697,5.544,5.5395,5.5112,5.4722,5.5311,5.5562,5.5597,5.6505,5.7051,5.722,5.7087,5.6617,5.5918,5.5227,5.4713,5.4402,5.4862,5.5334,5.6004,5.7356,5.8181,5.8776,5.9546,5.9791,5.9791,5.9791,5.9873,6.0036,6.0164,6.029,6.037,6.0494,6.0036,5.9366,5.8977,5.8737,5.8439,5.7954,5.7971,5.8027,5.8099,5.8171,5.8243,5.8368,5.8297,5.8243,5.8171,5.8027,5.7971,5.7898,5.7881,5.7881,5.7881,5.7881,5.7881,5.7881,5.7881,5.7881,5.7881,5.7881,5.7881,5.7881,5.7881,5.7881,5.7881,5.7881,5.7881,5.7881,5.7881,5.7881,5.7881,5.7881,5.7881,1.7065,0.0,0.0,0.0,0.0,0.0,0.0,0.0,0.0,0.0,0.0,0.0,0.0,0.0,0.0,0.0,0.0,0.0,0.0,0.0,0.0,0.0,0.0,0.0,0.0,0.0,0.0,0.0,0.0,0.0,0.0,0.0,0.0,0.0,0.0,0.0,0.0,0.0,0.0,5.4638,5.4638,5.4381,5.3922,5.5027,5.5698,5.6091,5.7091,5.7486,5.7437,5.712,5.6582,5.5918,5.5314,5.4701,5.4175,5.4288,5.451,5.4915,5.6159,5.6896,5.7531,5.8565,5.8892,5.8892,5.8892,5.9046,5.9334,5.9631,5.9891,6.0146,6.0477,6.0192,5.9726,5.9314,5.8892,5.8456,5.8027,5.7881,5.7881,5.7881,5.7881,5.7881,5.7881,5.7881,5.7881,5.7881,5.7881,5.7881,5.7881,5.7881,5.7881,5.7881,5.7881,5.7881,5.7881,5.7881,5.7881,5.7881,5.7881,5.7881,5.7881,5.7881,5.7881,5.7881,5.7881,5.7881,5.7881,5.7881,5.7881,5.7881,5.7881,5.7881,0.0,0.0,0.0,0.0,0.0,0.0,0.0,0.0,0.0,0.0,0.0,0.0,0.0,0.0,0.0,0.0,0.0,0.0,0.0,0.0,0.0,0.0,0.0,0.0,0.0,0.0,0.0,0.0,0.0,0.0,0.0,0.0,0.0,0.0,0.0,0.0,0.0,0.0,0.0,0.0,5.3206,5.3206,5.3261,5.4785,5.5959,5.684,5.7574,5.7784,5.7534,5.7083,5.6546,5.6014,5.568,5.5012,5.4145,5.4415,5.4076,5.3721,5.5209,5.5716,5.5953,5.7408,5.7881,5.7881,5.7881,5.8188,5.8526,5.896,5.9363,5.9709,6.0184,6.0104,5.9739,5.9317,5.8875,5.8402,5.7971,5.7881,5.7881,5.7881,5.7881,5.7881,5.7881,5.7881,5.7881,5.7881,5.7881,5.7881,5.7881,5.7881,5.7881,5.7881,5.7881,5.7881,5.7881,5.7881,5.7881,5.7881,5.7881,5.7881,5.7881,5.7881,5.7881,5.7881,5.7881,5.7881,5.7881,5.7881,5.7881,5.7881,5.7881,5.7881,0.0,0.0,0.0,0.0,0.0,0.0,0.0,0.0,0.0,0.0,0.0,0.0,0.0,0.0,0.0,0.0,0.0,0.0,0.0,0.0,0.0,0.0,0.0,0.0,0.0,0.0,0.0,0.0,0.0,0.0,0.0,0.0,0.0,0.0,0.0,0.0,5.3206,5.3206,5.3206,0.0,5.3206,5.3206,5.3243,5.4216,5.5445,5.6822,5.6987,5.7225,5.7388,5.6827,5.6166,5.5461,5.4769,5.4196,5.3783,5.372,5.3636,5.3721,5.5209,5.5716,5.5953,5.7408,5.7881,5.7881,5.7881,5.8044,5.8314,5.8702,5.8961,5.9249,5.9613,5.9415,5.9097,5.8927,5.8719,5.8509,5.8027,5.7881,5.7881,5.7881,5.7881,5.7881,5.7881,5.7881,5.7881,5.7881,5.7881,5.7881,5.7881,5.7881,5.7881,5.7881,5.7881,5.7881,5.7881,5.7881,5.7881,5.7881,5.7881,5.7881,5.7881,5.7881,5.7881,5.7881,5.7881,5.7881,5.7881,5.7881,5.7881,5.7881,5.7881,5.7881,0.0,0.0,0.0,0.0,0.0,0.0,0.0,0.0,0.0,0.0,0.0,0.0,0.0,0.0,0.0,0.0,0.0,0.0,0.0,0.0,0.0,0.0,0.0,0.0,0.0,0.0,0.0,0.0,0.0,0.0,0.0,0.0,0.0,0.0,0.0,0.0,5.2637,5.3023,5.3023,5.2637,5.3023,5.3164,5.3121,5.3989,5.4858,5.5702,5.6473,5.6747,5.6713,5.626,5.5738,5.5087,5.4205,5.3783,5.3618,5.3501,5.3501,5.3721,5.5209,5.5716,5.5953,5.7408,5.7881,5.7881,5.7881,5.7954,5.8099,5.8243,5.8368,5.8509,5.8702,5.8562,5.8456,5.8368,5.8368,5.8385,5.7954,5.7881,5.7881,5.7881,5.7881,5.7881,5.7881,5.7881,5.7881,5.7881,5.7881,5.7881,5.7881,5.7881,5.7881,5.7881,5.7881,5.7881,5.7881,5.7881,5.7881,5.7881,5.7881,5.7881,5.7881,5.7881,5.7881,5.7881,5.7881,5.7881,5.7881,5.7881,5.7881,5.7881,5.7881,5.7881,0.0,0.0,0.0,0.0,0.0,0.0,0.0,0.0,0.0,0.0,0.0,0.0,0.0,0.0,0.0,0.0,0.0,0.0,0.0,0.0,0.0,0.0,0.0,0.0,0.0,0.0,0.0,0.0,0.0,0.0,0.0,0.0,0.0,0.0,0.0,5.1775,5.1775,5.2454,5.2527,5.1995,5.2821,5.3103,5.2974,5.3676,5.4104,5.4367,5.566,5.6095,5.5866,5.5577,5.5191,5.4738,5.3866,5.3501,5.3501,5.3501,5.3501,5.3721,5.5209,5.5716,5.5953,5.7408,5.7881,5.7881,5.7881,5.7881,5.7881,5.7881,5.7881,5.7881,5.7881,5.7881,5.7881,5.7881,5.8044,5.8116,5.7971,5.7881,5.7881,5.7881,5.7881,5.7881,5.7881,5.7881,5.7881,5.7881,5.7881,5.7881,5.7881,5.7881,5.7881,5.7881,5.7881,5.7881,5.7881,5.7881,5.7881,5.7881,5.7881,5.7881,5.7881,5.7881,5.7881,5.7881,5.7881,5.7881,5.7881,5.7881,5.7881,5.7808,5.7808,5.7808,0.0,0.0,0.0,0.0,0.0,0.0,0.0,0.0,0.0,0.0,0.0,0.0,0.0,0.0,0.0,0.0,0.0,0.0,0.0,0.0,0.0,0.0,0.0,0.0,0.0,0.0,0.0,0.0,0.0,0.0,0.0,0.0,4.9793,4.9903,5.06,0.0,5.0967,5.1077,5.1426,5.1995,5.2821,5.306,5.2806,5.2554,5.2943,5.3872,5.3961,5.4512,5.5259,5.4635,5.4433,5.4494,5.3751,5.3501,5.3501,5.3501,5.3501,5.3721,5.5209,5.5716,5.5953,5.7408,5.7881,5.7881,5.7881,5.7881,5.7881,5.7881,5.7881,5.7881,5.7881,5.7881,5.7881,5.7881,5.7881,5.7954,5.7898,5.7881,5.7881,5.7881,5.7881,5.7881,5.7881,5.7881,5.7881,5.7881,5.7881,5.7881,5.7881,5.7881,5.7881,5.7881,5.7881,5.7881,5.7881,5.7881,5.7881,5.7881,5.7881,5.7881,5.7881,5.7881,5.7881,5.7881,5.7881,5.7881,5.7881,5.7881,5.7808,5.7662,5.7439,5.7289,0.0,0.0,0.0,0.0,0.0,0.0,0.0,0.0,0.0,0.0,0.0,0.0,0.0,0.0,0.0,0.0,0.0,0.0,0.0,0.0,0.0,0.0,0.0,0.0,0.0,0.0,0.0,0.0,0.0,0.0,0.0,4.8655,4.9095,4.9572,4.9881,0.0,4.923,5.0104,5.0897,5.1595,5.196,5.2146,5.225,5.1861,5.2059,5.2696,5.2799,5.3032,5.3349,5.3684,5.3784,5.3702,5.3581,5.3501,5.3501,5.3501,5.3501,5.3721,5.5209,5.5716,5.5953,5.7408,5.7881,5.7881,5.7881,5.7881,5.7881,5.7881,5.7881,5.7881,5.7881,5.7881,5.7881,5.7881,5.7881,5.7881,5.7881,5.7881,5.7881,5.7881,5.7881,5.7881,5.7881,5.7881,5.7881,5.7881,5.7881,5.7881,5.7881,5.7881,5.7881,5.7881,5.7881,5.7881,5.7881,5.7881,5.7881,5.7881,5.7881,5.7881,5.7881,5.7881,5.7881,5.7881,5.7881,5.7881,5.7881,5.7881,5.7735,5.7439,5.692,5.6503,0.0,0.0,0.0,0.0,0.0,0.0,0.0,0.0,0.0,0.0,0.0,0.0,0.0,0.0,0.0,0.0,0.0,0.0,0.0,0.0,0.0,0.0,0.0,0.0,0.0,0.0,0.0,0.0,0.0,0.0,4.8306,4.8306,4.86,4.9242,4.8922,4.8342,4.7565,4.8557,4.9378,5.01,5.0497,5.0886,5.123,5.112,5.1105,5.1296,5.1653,5.1753,5.1773,5.25,5.2881,5.2968,5.3175,5.3315,5.3501,5.3501,5.3501,5.3687,5.4972,5.5429,5.5666,5.7137,5.7611,5.7645,5.7831,5.7881,5.7881,5.7881,5.7881,5.7881,5.7881,5.7881,5.7881,5.7881,5.7881,5.7881,5.7881,5.7881,5.7881,5.7881,5.7881,5.7881,5.7881,5.7881,5.7881,5.7881,5.7881,5.7881,5.7881,5.7881,5.7881,5.7881,5.7881,5.7881,5.7881,5.7881,5.7881,5.7881,5.7881,5.7881,5.7881,5.7881,5.7881,5.7881,5.7881,5.7881,5.7881,5.7881,5.7662,5.7273,5.6581,5.6001,0.0,0.0,0.0,0.0,0.0,0.0,0.0,0.0,0.0,0.0,0.0,0.0,0.0,0.0,0.0,0.0,0.0,0.0,0.0,0.0,0.0,0.0,0.0,0.0,0.0,0.0,0.0,0.0,0.0,0.0,4.8306,4.8306,4.8324,4.8379,4.7435,4.6743,4.6385,4.5891,4.6031,4.6784,4.8293,4.9263,4.9697,4.9983,4.9953,4.9808,5.032,5.0754,5.1122,5.1012,5.16,5.2612,5.2433,5.2841,5.3501,5.3501,5.3501,5.3619,5.438,5.4651,5.4888,5.6376,5.6867,5.6985,5.7679,5.7881,5.7881,5.7881,5.7881,5.7881,5.7881,5.7881,5.7881,5.7881,5.7881,5.7881,5.7881,5.7881,5.7881,5.7881,5.7881,5.7881,5.7881,5.7881,5.7881,5.7881,5.7881,5.7881,5.7881,5.7881,5.7881,5.7881,5.7881,5.7881,5.7881,5.7881,5.7881,5.7881,5.7881,5.7881,5.7881,5.7881,5.7881,5.7881,5.7881,5.7881,5.7881,5.7881,5.7662,5.7273,5.663,5.6004,0.0,0.0,0.0,0.0,0.0,0.0,0.0,0.0,0.0,0.0,0.0,0.0,0.0,0.0,0.0,0.0,0.0,0.0,0.0,0.0,0.0,0.0,0.0,0.0,0.0,0.0,0.0,0.0,0.0,0.0,4.7517,4.7478,4.7439,4.7325,4.6735,4.5863,4.4742,4.393,4.4313,4.6067,4.661,4.7666,4.9087,4.9084,4.921,4.9411,4.9471,4.9624,4.9794,5.0209,5.0595,5.1061,5.1928,5.2486,5.279,5.3315,5.3501,5.3619,5.4329,5.4583,5.4837,5.6325,5.6799,5.6934,5.7679,5.7881,5.7881,5.7881,5.7881,5.7881,5.7881,5.7881,5.7881,5.7881,5.7881,5.7881,5.7881,5.7881,5.7881,5.7881,5.7881,5.7881,5.7881,5.7881,5.7881,5.7881,5.7881,5.7881,5.7881,5.7881,5.7881,5.7881,5.7881,5.7881,5.7881,5.7881,5.7881,5.7881,5.7881,5.7881,5.7881,5.7881,5.7881,5.7881,5.7881,5.7881,5.7881,5.7881,5.7662,5.7273,5.6581,5.5859,1.2904,0.0,0.0,0.0,0.0,0.0,0.0,0.0,0.0,0.0,0.0,0.0,0.0,0.0,0.0,0.0,0.0,0.0,0.0,0.0,0.0,0.0,0.0,0.0,0.0,0.0,0.0,0.0,0.0,0.0,4.6287,4.6431,4.6239,4.5635,4.5136,4.4173,4.28,4.2029,4.2524,4.425,4.4768,4.5853,4.7403,4.8059,4.8515,4.8751,4.8944,4.9001,4.9035,4.9526,4.9864,5.0202,5.1454,5.208,5.2401,5.3213,5.3501,5.3568,5.4059,5.4228,5.4465,5.5953,5.6444,5.6613,5.7594,5.7881,5.7881,5.7881,5.7881,5.7881,5.7881,5.7881,5.7881,5.7881,5.7881,5.7881,5.7881,5.7881,5.7881,5.7881,5.7881,5.7881,5.7881,5.7881,5.7881,5.7881,5.7881,5.7881,5.7881,5.7881,5.7881,5.7881,5.7881,5.7881,5.7881,5.7881,5.7881,5.7881,5.7881,5.7881,5.7881,5.7881,5.7881,5.7881,5.7881,5.7881,5.7881,5.7881,5.7735,5.7364,5.6751,5.5859,0.0,0.0,0.0,0.0,0.0,0.0,0.0,0.0,0.0,0.0,0.0,0.0,0.0,0.0,0.0,0.0,0.0,0.0,0.0,0.0,0.0,0.0,0.0,0.0,0.0,0.0,0.0,0.0,0.0,4.4654,4.4672,4.5241,4.4874,4.3362,4.2584,4.1657,4.058,4.0271,4.046,4.1221,4.2692,4.3809,4.4654,4.687,4.7902,4.7953,4.8697,4.9001,4.9001,4.9001,4.9424,5.0135,5.0913,5.1657,5.2367,5.3196,5.3501,5.3501,5.3501,5.3501,5.3737,5.5243,5.5716,5.5987,5.7442,5.7881,5.7881,5.7881,5.7881,5.7881,5.7881,5.7881,5.7881,5.7881,5.7881,5.7881,5.7881,5.7881,5.7881,5.7881,5.7881,5.7881,5.7881,5.7881,5.7881,5.7881,5.7881,5.7881,5.7881,5.7881,5.7881,5.7881,5.7881,5.7881,5.7881,5.7881,5.7881,5.7881,5.7881,5.7881,5.7881,5.7881,5.7881,5.7881,5.7881,5.7881,5.7881,5.7881,5.7808,5.7588,5.7214,5.6067,1.1819,0.0,0.0,0.0,0.0,0.0,0.0,0.0,0.0,0.0,0.0,0.0,0.0,0.0,0.0,0.0,0.0,0.0,0.0,0.0,0.0,0.0,0.0,0.0,0.0,0.0,0.0,0.0,0.0,4.3222,4.3791,4.4179,4.398,4.3154,4.1967,4.1091,4.0517,4.0221,4.046,4.1221,4.2151,4.3301,4.4637,4.6329,4.7411,4.7953,4.8697,4.9001,4.9001,4.9001,4.912,4.9424,5.071,5.1336,5.1674,5.301,5.3501,5.3501,5.3501,5.3501,5.3737,5.5243,5.5716,5.5987,5.7442,5.7881,5.7881,5.7881,5.7881,5.7881,5.7881,5.7881,5.7881,5.7881,5.7881,5.7881,5.7881,5.7881,5.7881,5.7881,5.7881,5.7881,5.7881,5.7881,5.7881,5.7881,5.7881,5.7881,5.7881,5.7881,5.7881,5.7881,5.7881,5.7881,5.7881,5.7881,5.7881,5.7881,5.7881,5.7881,5.7881,5.7881,5.7881,5.7881,5.7881,5.7881,5.7881,5.7881,5.7881,5.7808,5.7439,5.6691,1.2761,0.0,0.0,0.0,0.0,0.0,0.0,0.0,0.0,0.0,0.0,0.0,0.0,0.0,0.0,0.0,0.0,0.0,0.0,0.0,0.0,0.0,0.0,0.0,0.0,0.0,0.0,0.0,4.0836,4.1611,4.2349,4.2359,4.2279,4.2143,4.1049,4.0491,4.0549,4.0271,4.0307,4.0747,4.1796,4.276,4.369,4.5517,4.6735,4.7479,4.8223,4.8731,4.9001,4.9001,4.9001,4.9154,5.0642,5.1217,5.1403,5.2942,5.3501,5.3501,5.3501,5.3501,5.3737,5.5243,5.5716,5.5987,5.7442,5.7881,5.7881,5.7881,5.7881,5.7881,5.7881,5.7881,5.7881,5.7881,5.7881,5.7881,5.7881,5.7881,5.7881,5.7881,5.7881,5.7881,5.7881,5.7881,5.7881,5.7881,5.7881,5.7881,5.7881,5.7881,5.7881,5.7881,5.7881,5.7881,5.7881,5.7881,5.7881,5.7881,5.7881,5.7881,5.7881,5.7881,5.7881,5.7881,5.7881,5.7881,5.7881,5.7881,5.7881,5.7881,5.7588,5.7089,1.4562,1.464,0.0,0.0,0.0,0.0,0.0,1.8279,0.0,0.0,0.0,0.0,0.0,0.0,0.0,0.0,0.0,0.0,0.0,0.0,0.0,0.0,0.0,0.0,0.0,0.0,3.8615,3.8432,3.9258,4.0075,4.0753,4.0437,4.0396,4.074,4.0115,4.0003,4.0539,4.0269,4.0172,4.0273,4.161,4.2337,4.2489,4.4705,4.6058,4.6718,4.7547,4.8291,4.8883,4.8968,4.9001,4.9154,5.0642,5.1217,5.1403,5.2942,5.3501,5.3501,5.3501,5.3501,5.3737,5.5243,5.5716,5.5987,5.7442,5.7881,5.7881,5.7881,5.7881,5.7881,5.7881,5.7881,5.7881,5.7881,5.7881,5.7881,5.7881,5.7881,5.7881,5.7881,5.7881,5.7881,5.7881,5.7881,5.7881,5.7881,5.7881,5.7881,5.7881,5.7881,5.7881,5.7881,5.7881,5.7881,5.7881,5.7881,5.7881,5.7881,5.7881,5.7881,5.7881,5.7881,5.7881,5.7881,5.7881,5.7881,5.7881,5.7881,5.7881,5.7898,5.7735,5.7439,1.503,1.516,1.5101,0.0,0.0,0.0,0.0,1.6654,0.0,0.0,0.0,0.0,0.0,0.0,0.0,0.0,0.0,0.0,0.0,0.0,0.0,0.0,0.0,0.0,0.0,0.0,3.6877,3.6762,3.8102,3.9488,4.08,4.065,4.0474,4.0303,4.0335,4.0289,4.0134,4.0306,4.0677,4.1138,4.1916,4.2608,4.325,4.4942,4.5788,4.5991,4.7344,4.8003,4.8173,4.8765,4.9001,4.9154,5.0642,5.1217,5.1403,5.2942,5.3501,5.3501,5.3501,5.3501,5.3737,5.5243,5.5716,5.5987,5.7442,5.7881,5.7881,5.7881,5.7881,5.7881,5.7881,5.7881,5.7881,5.7881,5.7881,5.7881,5.7881,5.7881,5.7881,5.7881,5.7881,5.7881,5.7881,5.7881,5.7881,5.7881,5.7881,5.7881,5.7881,5.7881,5.7881,5.7881,5.7881,5.7881,5.7881,5.7881,5.7881,5.7881,5.7881,5.7881,5.7881,5.7881,5.7881,5.7881,5.7881,5.7881,5.7881,5.7881,5.7881,5.7881,5.7881,5.7808,1.6238,1.6175,1.5929,1.566,0.0,0.0,0.0,0.0,0.0,0.0,0.0,0.0,0.0,0.0,0.0,0.0,0.0,0.0,0.0,0.0,0.0,0.0,0.0,0.0,0.0,0.0,3.636,3.6285,3.7422,3.8432,3.9158,3.9483,3.9719,3.9877,3.9799,3.9979,4.0383,4.021,4.0597,4.1613,4.2106,4.2692,4.3453,4.4621,4.5348,4.5771,4.687,4.7564,4.797,4.8714,4.9001,4.9154,5.0642,5.1217,5.1403,5.2942,5.3501,5.3501,5.3501,5.3501,5.3687,5.4786,5.5158,5.5429,5.69,5.7594,5.7881,5.7881,5.7881,5.7814,5.7442,5.734,5.7256,5.6884,5.707,5.734,5.734,5.7628,5.7881,5.7881,5.7881,5.7881,5.7881,5.7881,5.7881,5.7881,5.7881,5.7881,5.7881,5.7881,5.7881,5.7881,5.7881,5.7881,5.7881,5.7881,5.7881,5.7881,5.7881,5.7881,5.7881,5.7881,5.7881,5.7881,5.7881,5.7881,5.7881,5.7881,5.7881,5.7881,5.7881,5.7881,0.0,0.0,0.0,0.0,0.0,1.603,0.0,0.0,0.0,0.0,0.0,0.0,0.0,0.0,0.0,0.0,0.0,0.0,0.0,0.0,0.0,0.0,0.0,0.0,0.0,0.0,3.5229,3.554,3.6146,3.6762,3.7221,3.8028,3.8742,3.9367,3.917,3.9516,4.0437,4.0053,4.0493,4.1736,4.2228,4.2836,4.3545,4.4326,4.4965,4.5591,4.6413,4.7141,4.7767,4.8646,4.9001,4.9154,5.0642,5.1217,5.1403,5.2942,5.3501,5.3501,5.3501,5.3501,5.3619,5.4346,5.4786,5.5243,5.6444,5.7306,5.7881,5.7881,5.7881,5.7729,5.6985,5.6799,5.6613,5.5902,5.6275,5.6799,5.6799,5.7374,5.7881,5.7881,5.7881,5.7881,5.7881,5.7881,5.7881,5.7881,5.7881,5.7881,5.7881,5.7881,5.7881,5.7881,5.7881,5.7881,5.7881,5.7881,5.7881,5.7881,5.7881,5.7881,5.7881,5.7881,5.7881,5.7881,5.7881,5.7881,5.7881,5.7881,5.7881,5.7881,5.7881,5.7881,0.0,0.0,0.0,0.0,1.7117,0.0,0.0,0.0,0.0,0.0,0.0,0.0,0.0,0.0,0.0,0.0,0.0,0.0,0.0,0.0,0.0,0.0,0.0,0.0,0.0,0.0,0.0,3.2721,3.2967,3.4027,3.6245,3.7184,3.7943,3.8588,3.9085,3.9317,3.9191,3.9999,4.0745,4.1348,4.2455,4.334,4.3973,4.4636,4.4937,4.498,4.6235,4.6836,4.7022,4.8426,4.9001,4.9154,5.0642,5.1217,5.1403,5.2942,5.3501,5.3501,5.3501,5.3501,5.3619,5.4346,5.548,5.6579,5.6748,5.7306,5.7881,5.7881,5.7881,5.7729,5.6985,5.6799,5.6613,5.5902,5.6275,5.6799,5.6799,5.7374,5.7881,5.7881,5.7881,5.7881,5.7881,5.7881,5.7881,5.7881,5.7881,5.7881,5.7881,5.7881,5.7881,5.7881,5.7881,5.7881,5.7881,5.7881,5.7881,5.7881,5.7881,5.7881,5.7881,5.7881,5.7881,5.7881,5.7881,5.7881,5.7881,5.7881,5.7881,5.7881,5.7881,5.7881,0.0,0.0,0.0,0.0,0.0,0.0,0.0,0.0,1.7586,0.0,0.0,0.0,0.0,0.0,0.0,0.0,0.0,0.0,0.0,0.0,0.0,0.0,0.0,0.0,0.0,0.0,0.0,0.0,0.0,3.2329,3.3991,3.6237,3.7624,3.7924,3.8619,3.9097,3.9351,3.9532,4.0384,4.1899,4.265,4.3528,4.4538,4.5044,4.5213,4.5118,4.6316,4.6786,4.6904,4.8392,4.9001,4.9154,5.0642,5.1217,5.1403,5.2942,5.3501,5.3501,5.3501,5.3501,5.3551,5.3856,5.4668,5.5513,5.5513,5.6038,5.663,5.663,5.663,5.6461,5.5716,5.5513,5.5327,5.46,5.4989,5.5513,5.5513,5.6105,5.663,5.663,5.6968,5.7256,5.7256,5.7611,5.7881,5.7881,5.7881,5.7881,5.7881,5.7881,5.7881,5.7881,5.7881,5.7881,5.7881,5.7881,5.7881,5.7881,5.7881,5.7881,5.7881,5.7881,5.7881,5.7881,5.7881,5.7881,5.7881,5.7881,5.7881,5.7881,5.7881,5.7881,1.9127,0.0,0.0,0.0,0.0,0.0,0.0,0.0,0.0,0.0,0.0,0.0,0.0,0.0,0.0,0.0,0.0,0.0,0.0,0.0,0.0,0.0,0.0,0.0,0.0,0.0,0.0,0.0,0.0,0.0,3.1735,3.4779,3.6688,3.7147,3.7955,3.8682,3.9276,3.9186,4.0004,4.183,4.2709,4.3731,4.4853,4.5414,4.5631,4.5475,4.6567,4.7077,4.718,4.8617,4.9229,4.9382,5.0878,5.1473,5.1596,5.3009,5.3501,5.3501,5.3501,5.3501,5.3501,5.3501,5.3991,5.4583,5.4583,5.5124,5.5716,5.5716,5.5716,5.5547,5.4786,5.4583,5.4397,5.3687,5.4059,5.4583,5.4583,5.5192,5.5716,5.5716,5.6308,5.6799,5.6799,5.7408,5.7881,5.7881,5.7881,5.7881,5.7881,5.7881,5.7881,5.7881,5.7881,5.7881,5.7881,5.7881,5.7881,5.7881,5.7881,5.7881,5.7881,5.7881,5.7881,5.7881,5.7881,5.7881,5.7881,5.7881,5.7881,5.7881,5.7881,5.7881,0.0,0.0,0.0,0.0,0.0,0.0,0.0,0.0,1.8797,0.0,0.0,0.0,0.0,0.0,0.0,0.0,0.0,0.0,0.0,0.0,0.0,0.0,0.0,0.0,0.0,0.0,0.0,0.0,0.0,0.0,2.994,3.2499,3.4651,3.6285,3.711,3.7869,3.8528,3.9101,3.9801,4.0583,4.2706,4.399,4.4652,4.5782,4.6182,4.6025,4.7155,4.7665,4.7786,4.9246,4.9866,5.0021,5.1554,5.2096,5.2118,5.3141,5.3501,5.3501,5.3501,5.3501,5.3501,5.3501,5.3991,5.4583,5.4583,5.5124,5.5716,5.5716,5.5716,5.5547,5.4786,5.4583,5.4397,5.3687,5.4059,5.4583,5.4583,5.5192,5.5716,5.5716,5.6308,5.6799,5.6799,5.7408,5.7881,5.7881,5.7881,5.7881,5.7881,5.7881,5.7881,5.7881,5.7881,5.7881,5.7881,5.7881,5.7881,5.7881,5.7881,5.7881,5.7881,5.7881,5.7881,5.7881,5.7881,5.7881,5.7881,5.7881,5.7881,5.7881,5.7881,5.7881,0.0,0.0,1.9638,1.9298,0.0,0.0,0.0,0.0,0.0,0.0,0.0,0.0,0.0,0.0,0.0,0.0,0.0,0.0,0.0,0.0,0.0,0.0,0.0,0.0,0.0,0.0,0.0,0.0,0.0,0.0,0.0,3.1034,3.3513,3.4614,3.6486,3.7606,3.7833,3.8578,3.9593,4.0912,4.2721,4.416,4.5287,4.6511,4.6918,4.6766,4.795,4.8415,4.8538,5.0066,5.0697,5.0855,5.24,5.2862,5.274,5.3528,5.3734,5.3601,5.3568,5.3501,5.3501,5.3501,5.367,5.3873,5.3873,5.4059,5.4245,5.4245,5.4245,5.4194,5.394,5.3873,5.3805,5.3568,5.3687,5.3873,5.3873,5.4076,5.4245,5.4245,5.4837,5.5327,5.5327,5.6359,5.734,5.7814,5.7881,5.7881,5.7881,5.7881,5.7881,5.7881,5.7881,5.7881,5.7881,5.7881,5.7881,5.7881,5.7881,5.7881,5.7881,5.7881,5.7881,5.7881,5.7881,5.7881,5.7881,5.7881,5.7881,5.7881,5.7881,5.7881,2.0051,2.0183,0.0,0.0,2.0107,0.0,0.0,0.0,0.0,0.0,0.0,0.0,0.0,0.0,0.0,0.0,0.0,0.0,0.0,0.0,0.0,0.0,0.0,0.0,0.0,0.0,2.0028,2.0722,2.2121,0.0,0.0,0.0,3.1774,3.2881,3.5624,3.7232,3.7537,3.8345,3.959,4.1259,4.2599,4.4005,4.5389,4.6652,4.7132,4.7003,4.8472,4.9114,4.9239,5.0788,5.1429,5.1589,5.3156,5.3566,5.3376,5.3963,5.3946,5.3601,5.3501,5.3501,5.3501,5.3501,5.3501,5.3501,5.3501,5.3501,5.3501,5.3501,5.3501,5.3501,5.3501,5.3501,5.3501,5.3501,5.3501,5.3501,5.3501,5.3501,5.3501,5.3501,5.4093,5.4583,5.4583,5.5818,5.6968,5.7442,5.7729,5.7881,5.7881,5.7881,5.7881,5.7881,5.7881,5.7881,5.7881,5.7881,5.7881,5.7881,5.7808,5.7735,5.7662,5.7662,5.7662,5.7662,5.7662,5.7662,5.7662,5.7588,5.7514,5.7439,5.7439,5.7439]},{"header":{"parameterUnit":"m.s-1","parameterCategory":1,"la1":30.6,"la2":29.2853,"lo1":-89.7004,"lo2":-87.6739,"dy":0.0162,"dx":0.0183,"nx":112,"ny":82,"refTime":"2026-03-18T12:00:00:Z","depth":0,"parameterNumber":3,"parameterNumberName":"V-component_of_WINDS"},"data":[0.0,0.0,0.0,0.0,0.0,0.0,0.0,0.0,0.0,0.0,0.0,0.0,0.0,0.0,0.0,0.0,0.0,0.0,0.0,0.0,0.0,0.0,0.0,0.0,0.0,0.0,0.0,0.0,0.0,0.0,0.0,0.0,0.0,0.0,0.0,0.0,0.0,0.0,0.0,0.0,0.0,0.0,0.0,0.0,0.0,0.0,0.0,0.0,0.0,0.0,0.0,0.0,0.0,0.0,0.0,0.0,0.0,0.0,0.0,0.0,0.0,0.0,0.0,0.0,0.0,0.0,0.0,0.0,0.0,0.0,0.0,0.0,0.0,0.0,0.0,0.0,0.0,0.0,0.0,0.0,0.0,0.0,0.0,0.0,0.0,0.0,0.0,0.0,0.0,0.0,0.0,-0.6844,-0.674,-0.6448,-0.5983,-0.5607,-0.5451,-0.5474,0.0,0.0,0.0,0.0,0.0,0.0,0.0,0.0,0.0,0.0,0.0,0.0,0.0,0.0,0.0,0.0,0.0,0.0,0.0,0.0,0.0,0.0,0.0,0.0,0.0,0.0,0.0,0.0,0.0,0.0,0.0,0.0,0.0,0.0,0.0,0.0,0.0,0.0,0.0,0.0,0.0,0.0,0.0,0.0,0.0,0.0,0.0,0.0,0.0,0.0,0.0,0.0,0.0,0.0,0.0,0.0,0.0,0.0,0.0,0.0,0.0,0.0,0.0,0.0,0.0,0.0,0.0,0.0,0.0,0.0,0.0,0.0,0.0,0.0,0.0,0.0,0.0,0.0,0.0,0.0,0.0,0.0,0.0,0.0,0.0,0.0,0.0,0.0,0.0,0.0,0.0,0.0,0.0,0.0,0.0,0.0,0.0,0.0,0.0,0.0,0.0,0.0,0.0,0.0,-0.688,-0.75,-0.7361,-0.699,-0.6469,-0.5885,-0.5506,-0.5254,0.0,0.0,0.0,0.0,0.0,0.0,0.0,0.0,0.0,0.0,0.0,0.0,0.0,0.0,0.0,0.0,0.0,0.0,0.0,0.0,0.0,0.0,0.0,0.0,0.0,0.0,0.0,0.0,0.0,0.0,0.0,0.0,0.0,0.0,0.0,0.0,0.0,0.0,0.0,0.0,0.0,0.0,0.0,0.0,0.0,0.0,0.0,0.0,0.0,0.0,0.0,0.0,0.0,0.0,0.0,0.0,0.0,0.0,0.0,0.0,0.0,0.0,0.0,0.0,0.0,0.0,0.0,0.0,0.0,0.0,0.0,0.0,0.0,0.0,0.0,0.0,0.0,0.0,0.0,0.0,0.0,0.0,0.0,0.0,0.0,0.0,0.0,0.0,0.0,0.0,0.0,0.0,0.0,0.0,0.0,0.0,0.0,0.0,0.0,0.0,0.0,0.0,0.0,-0.6306,-0.7118,-0.7547,-0.7497,-0.7217,-0.6529,-0.5932,-0.5462,-0.5242,-0.5006,0.0,0.0,0.0,0.0,0.0,0.0,0.0,0.0,0.0,0.0,0.0,0.0,0.0,0.0,0.0,0.0,0.0,0.0,0.0,0.0,0.0,0.0,0.0,0.0,0.0,0.0,0.0,0.0,0.0,0.0,0.0,0.0,0.0,0.0,0.0,0.0,0.0,0.0,0.0,0.0,0.0,0.0,0.0,0.0,0.0,0.0,0.0,0.0,0.0,0.0,0.0,0.0,0.0,0.0,0.0,0.0,0.0,0.0,0.0,0.0,0.0,0.0,0.0,0.0,0.0,0.0,0.0,0.0,0.0,0.0,0.0,0.0,0.0,0.0,0.0,0.0,0.0,0.0,0.0,0.0,0.0,0.0,0.0,0.0,0.0,0.0,0.0,0.0,0.0,0.0,0.0,0.0,0.0,0.0,0.0,0.0,0.0,0.0,0.0,0.0,0.0,0.0,-0.6703,-0.713,-0.7471,-0.7585,-0.7343,-0.659,-0.5952,-0.5448,-0.5124,-0.4757,0.0,0.0,0.0,0.0,0.0,0.0,0.0,0.0,0.0,0.0,0.0,0.0,0.0,0.0,0.0,0.0,0.0,0.0,0.0,0.0,0.0,0.0,0.0,0.0,0.0,0.0,0.0,0.0,0.0,0.0,0.0,0.0,0.0,0.0,0.0,0.0,0.0,0.0,0.0,0.0,0.0,0.0,0.0,0.0,0.0,0.0,0.0,0.0,0.0,0.0,0.0,0.0,0.0,0.0,0.0,0.0,0.0,0.0,0.0,0.0,0.0,0.0,0.0,0.0,0.0,0.0,0.0,0.0,0.0,0.0,0.0,0.0,0.0,0.0,0.0,0.0,0.0,0.0,0.0,0.0,0.0,0.0,0.0,0.0,0.0,0.0,0.0,0.0,0.0,0.0,0.0,0.0,0.0,0.0,0.0,0.0,0.0,0.0,0.0,0.0,0.0,0.0,-0.6576,-0.6912,-0.7506,-0.7706,-0.7495,-0.6749,-0.601,-0.5399,-0.4949,-0.4596,0.0,0.0,0.0,0.0,0.0,0.0,0.0,0.0,0.0,0.0,0.0,0.0,0.0,0.0,0.0,0.0,0.0,0.0,0.0,0.0,0.0,0.0,0.0,0.0,0.0,0.0,0.0,0.0,0.0,0.0,0.0,0.0,0.0,0.0,0.0,0.0,0.0,0.0,0.0,0.0,0.0,0.0,0.0,0.0,0.0,0.0,0.0,0.0,0.0,0.0,0.0,0.0,0.0,0.0,0.0,0.0,0.0,0.0,0.0,0.0,0.0,0.0,0.0,0.0,0.0,0.0,0.0,0.0,0.0,0.0,0.0,0.0,0.0,0.0,0.0,0.0,0.0,0.0,0.0,0.0,0.0,0.0,0.0,0.0,0.0,0.0,0.0,0.0,0.0,0.0,0.0,0.0,0.0,0.0,0.0,0.0,0.0,0.0,0.0,0.0,0.0,0.0,-0.6601,-0.6932,0.0,-0.7814,-0.7651,-0.6905,-0.6152,-0.5575,-0.5241,0.0,0.0,0.0,0.0,0.0,0.0,0.0,0.0,0.0,0.0,0.0,0.0,0.0,0.0,0.0,0.0,0.0,0.0,0.0,0.0,0.0,0.0,0.0,0.0,0.0,0.0,0.0,0.0,0.0,0.0,0.0,0.0,0.0,0.0,0.0,0.0,0.0,0.0,0.0,0.0,0.0,0.0,0.0,0.0,0.0,0.0,0.0,0.0,0.0,0.0,0.0,0.0,0.0,0.0,0.0,0.0,0.0,0.0,0.0,0.0,0.0,0.0,0.0,0.0,0.0,0.0,0.0,0.0,0.0,0.0,0.0,0.0,0.0,0.0,0.0,0.0,0.0,0.0,0.0,0.0,0.0,0.0,0.0,0.0,0.0,0.0,0.0,0.0,0.0,0.0,0.0,0.0,0.0,0.0,0.0,0.0,0.0,0.0,0.0,0.0,0.0,0.0,-0.6233,-0.6601,-0.6932,0.0,-0.7821,-0.7685,-0.699,-0.6237,-0.5663,-0.535,0.0,0.0,0.0,0.0,0.0,0.0,0.0,0.0,0.0,0.0,0.0,0.0,0.0,0.0,0.0,0.0,0.0,0.0,0.0,0.0,0.0,0.0,0.0,0.0,0.0,0.0,0.0,0.0,0.0,0.0,0.0,0.0,0.0,0.0,0.0,0.0,0.0,0.0,0.0,0.0,0.0,0.0,0.0,0.0,0.0,0.0,0.0,0.0,0.0,0.0,0.0,0.0,0.0,0.0,0.0,0.0,0.0,0.0,0.0,0.0,0.0,0.0,0.0,0.0,0.0,0.0,0.0,0.0,0.0,0.0,0.0,0.0,0.0,0.0,0.0,0.0,0.0,0.0,0.0,0.0,0.0,0.0,0.0,0.0,0.0,0.0,0.0,0.0,0.0,0.0,0.0,0.0,0.0,0.0,0.0,0.0,0.0,0.0,0.0,0.0,0.0,0.0,-0.6229,-0.6598,-0.6929,-0.7529,-0.7723,-0.7567,-0.6976,-0.6234,-0.5617,0.0,0.0,0.0,0.0,0.0,0.0,0.0,0.0,0.0,0.0,0.0,0.0,0.0,0.0,0.0,0.0,0.0,0.0,0.0,0.0,0.0,0.0,0.0,0.0,0.0,0.0,0.0,0.0,0.0,0.0,0.0,0.0,0.0,0.0,0.0,0.0,0.0,0.0,0.0,0.0,0.0,0.0,0.0,0.0,0.0,0.0,0.0,0.0,0.0,0.0,0.0,0.0,0.0,0.0,0.0,0.0,0.0,0.0,0.0,0.0,0.0,0.0,0.0,0.0,0.0,0.0,0.0,0.0,0.0,0.0,0.0,0.0,0.0,0.0,0.0,0.0,0.0,0.0,0.0,0.0,0.0,0.0,0.0,0.0,0.0,0.0,0.0,0.0,0.0,0.0,0.0,0.0,0.0,0.0,0.0,0.0,0.0,0.0,0.0,0.0,0.0,0.0,0.0,0.0,-0.6426,-0.6729,-0.7224,-0.7411,-0.7302,-0.681,-0.6081,-0.5554,-0.535,0.0,0.0,0.0,0.0,0.0,0.0,0.0,0.0,0.0,0.0,0.0,0.0,0.0,0.0,0.0,0.0,0.0,0.0,0.0,0.0,0.0,0.0,0.0,0.0,0.0,0.0,0.0,0.0,0.0,0.0,0.0,0.0,0.0,0.0,0.0,0.0,0.0,0.0,0.0,0.0,0.0,0.0,0.0,0.0,0.0,0.0,0.0,0.0,0.0,0.0,0.0,0.0,0.0,0.0,0.0,0.0,0.0,0.0,0.0,0.0,0.0,0.0,0.0,0.0,0.0,0.0,0.0,0.0,0.0,0.0,0.0,0.0,0.0,0.0,0.0,0.0,0.0,0.0,0.0,0.0,0.0,0.0,0.0,0.0,0.0,0.0,0.0,0.0,0.0,0.0,0.0,0.0,0.0,0.0,0.0,0.0,0.0,0.0,0.0,0.0,0.0,0.0,-0.6043,-0.6353,-0.662,-0.7014,-0.719,-0.7099,-0.6647,-0.6034,-0.5589,-0.542,0.0,0.0,0.0,0.0,0.0,0.0,0.0,0.0,0.0,0.0,0.0,0.0,0.0,0.0,0.0,0.0,0.0,0.0,0.0,0.0,0.0,0.0,0.0,0.0,0.0,0.0,0.0,0.0,0.0,0.0,0.0,0.0,0.0,0.0,0.0,0.0,0.0,0.0,0.0,0.0,0.0,0.0,0.0,0.0,0.0,0.0,0.0,0.0,0.0,0.0,0.0,0.0,0.0,0.0,0.0,0.0,0.0,0.0,0.0,0.0,0.0,0.0,0.0,0.0,0.0,0.0,0.0,0.0,0.0,0.0,0.0,0.0,0.0,0.0,0.0,0.0,0.0,0.0,0.0,0.0,0.0,0.0,0.0,0.0,0.0,0.0,0.0,0.0,0.0,0.0,0.0,0.0,0.0,0.0,0.0,0.0,0.0,0.0,0.0,0.0,0.0,0.0,-0.6108,-0.6426,-0.6661,-0.6858,-0.7014,-0.6919,-0.6468,-0.6034,-0.567,-0.5428,0.0,0.0,0.0,0.0,0.0,0.0,0.0,0.0,0.0,0.0,0.0,0.0,0.0,0.0,0.0,0.0,0.0,0.0,0.0,0.0,0.0,0.0,0.0,0.0,0.0,0.0,0.0,0.0,0.0,0.0,0.0,0.0,0.0,0.0,0.0,0.0,0.0,0.0,0.0,0.0,0.0,0.0,0.0,0.0,0.0,0.0,0.0,0.0,0.0,0.0,0.0,0.0,0.0,0.0,0.0,0.0,0.0,0.0,0.0,0.0,-0.7368,0.0,0.0,0.0,0.0,0.0,0.0,0.0,0.0,0.0,0.0,0.0,0.0,0.0,0.0,0.0,0.0,0.0,0.0,0.0,0.0,0.0,0.0,0.0,0.0,0.0,0.0,0.0,0.0,0.0,0.0,0.0,0.0,0.0,0.0,0.0,0.0,0.0,0.0,0.0,0.0,0.0,-0.645,-0.6791,-0.69,-0.6813,-0.6791,-0.6614,-0.6162,-0.5823,-0.5564,-0.5315,0.0,0.0,0.0,0.0,0.0,0.0,0.0,0.0,0.0,0.0,0.0,0.0,0.0,0.0,0.0,0.0,0.0,0.0,0.0,0.0,0.0,0.0,0.0,0.0,0.0,0.0,0.0,0.0,0.0,0.0,0.0,0.0,0.0,0.0,0.0,0.0,0.0,0.0,0.0,0.0,0.0,0.0,0.0,0.0,0.0,0.0,0.0,0.0,0.0,0.0,0.0,0.0,0.0,0.0,0.0,0.0,0.0,0.0,0.0,0.0,0.0,-0.7561,0.0,0.0,0.0,0.0,0.0,0.0,0.0,0.0,0.0,0.0,0.0,0.0,0.0,0.0,0.0,0.0,0.0,0.0,0.0,0.0,0.0,0.0,0.0,0.0,0.0,0.0,0.0,0.0,0.0,0.0,0.0,0.0,0.0,0.0,0.0,0.0,0.0,0.0,0.0,0.0,-0.7069,-0.7292,-0.7309,-0.7003,-0.6746,-0.6437,-0.6061,-0.5759,-0.5529,-0.5426,-0.5175,0.0,0.0,0.0,0.0,0.0,0.0,0.0,0.0,0.0,0.0,0.0,0.0,0.0,0.0,0.0,0.0,0.0,0.0,0.0,0.0,0.0,0.0,0.0,0.0,0.0,0.0,0.0,0.0,0.0,0.0,0.0,0.0,0.0,0.0,0.0,0.0,0.0,0.0,0.0,0.0,0.0,0.0,0.0,0.0,0.0,0.0,0.0,0.0,0.0,0.0,0.0,0.0,0.0,0.0,0.0,-0.822,-0.822,-0.8066,-0.7857,-0.8053,-0.8344,-0.8737,0.0,0.0,0.0,0.0,0.0,0.0,0.0,0.0,0.0,0.0,0.0,0.0,0.0,0.0,0.0,0.0,0.0,0.0,0.0,0.0,0.0,0.0,0.0,0.0,0.0,-1.247,-1.2101,0.0,0.0,0.0,0.0,0.0,0.0,0.0,0.0,0.0,0.0,0.0,0.0,-0.7618,-0.7803,-0.7729,-0.727,-0.6864,-0.642,-0.6098,-0.5823,-0.5665,-0.5585,-0.5235,-0.5103,0.0,0.0,0.0,0.0,0.0,0.0,0.0,0.0,0.0,0.0,0.0,0.0,0.0,0.0,0.0,0.0,0.0,0.0,0.0,0.0,0.0,0.0,0.0,0.0,0.0,0.0,0.0,0.0,0.0,0.0,0.0,0.0,-0.7829,-0.7775,0.0,0.0,0.0,0.0,0.0,0.0,0.0,0.0,0.0,0.0,0.0,0.0,0.0,0.0,-0.8142,-0.8387,-0.8679,-0.8935,-0.911,-0.9199,-0.9224,-0.9224,-0.9047,-0.8592,-0.8543,0.0,-0.8317,-0.9027,0.0,0.0,0.0,0.0,0.0,0.0,0.0,0.0,0.0,0.0,0.0,0.0,0.0,0.0,0.0,0.0,0.0,0.0,0.0,0.0,0.0,0.0,-1.3319,-1.336,-1.3763,-1.4088,0.0,-1.3103,-1.2328,-1.1036,0.0,0.0,0.0,0.0,0.0,0.0,0.0,0.0,-0.7783,-0.8001,-0.7951,-0.7464,-0.7031,-0.6695,-0.6268,-0.6071,-0.5858,-0.5752,-0.5809,-0.5948,-0.6109,-0.5922,0.0,0.0,0.0,0.0,0.0,0.0,0.0,0.0,0.0,0.0,0.0,0.0,0.0,0.0,0.0,0.0,0.0,0.0,0.0,0.0,0.0,0.0,0.0,0.0,0.0,0.0,0.0,0.0,0.0,-0.7626,-0.7674,-0.806,-0.7884,-0.7752,0.0,0.0,0.0,0.0,0.0,0.0,0.0,0.0,0.0,-0.7649,-0.7518,-0.7564,-0.7836,-0.8053,-0.8393,-0.8913,-0.9052,-0.9261,-0.9436,-0.9436,-0.9334,-0.9125,-0.9023,-0.9309,-0.972,-1.0085,-1.1016,-1.2217,0.0,0.0,0.0,0.0,0.0,0.0,-1.3157,0.0,0.0,0.0,0.0,0.0,0.0,0.0,0.0,0.0,0.0,0.0,0.0,0.0,0.0,-1.4796,-1.507,-1.5224,-1.509,-1.481,-1.409,0.0,-1.1312,-1.0411,-0.8831,0.0,0.0,0.0,0.0,0.0,-0.824,-0.8209,-0.8052,-0.7659,-0.7229,-0.6814,-0.6532,-0.6295,-0.6148,-0.6117,-0.6302,-0.6498,-0.6745,-0.6742,-0.6754,0.0,0.0,0.0,0.0,0.0,0.0,0.0,0.0,0.0,0.0,0.0,0.0,0.0,0.0,0.0,0.0,0.0,0.0,0.0,0.0,0.0,0.0,0.0,0.0,0.0,0.0,0.0,0.0,-0.8011,0.0,-0.8547,-0.8146,-0.7836,0.0,0.0,0.0,0.0,0.0,0.0,-0.7892,-0.7944,-0.7905,-0.7831,-0.7791,-0.7863,-0.8089,-0.8239,-0.8508,-0.8934,-0.8977,-0.9167,-0.9381,-0.9381,-0.9497,-0.9497,-0.9613,-1.0234,-1.1372,-1.1375,-1.2294,-1.3687,-1.4756,-1.5288,0.0,-1.5425,-1.5358,-1.5262,-1.4873,-1.4689,-1.4597,-1.388,0.0,-1.3231,-1.3189,0.0,0.0,0.0,0.0,-1.4724,-1.5159,0.0,-1.5765,-1.6273,-1.6453,-1.6466,-1.6313,-1.6279,-1.5569,0.0,-1.2176,-1.1039,-0.9702,0.0,0.0,0.0,0.0,-0.8334,-0.8418,-0.8278,-0.8147,-0.7945,-0.7534,-0.7194,-0.708,-0.683,-0.6721,-0.6744,-0.6891,-0.7085,-0.7466,-0.7582,-0.7516,0.0,0.0,0.0,0.0,0.0,0.0,0.0,0.0,0.0,0.0,0.0,0.0,0.0,0.0,0.0,0.0,0.0,0.0,0.0,0.0,0.0,0.0,0.0,0.0,0.0,0.0,0.0,0.0,0.0,0.0,-0.9178,-0.8947,0.0,0.0,0.0,0.0,-0.7802,-0.7875,-0.8136,-0.8418,-0.8529,-0.8755,-0.9124,-0.9315,-0.938,-0.9453,-0.9476,-0.9577,-0.9578,-0.9401,-0.9367,-0.9381,-0.9381,-0.9613,-0.9841,-1.0189,-1.1097,-1.2648,-1.2816,-1.3618,-1.4748,-1.591,-1.6668,-1.7099,-1.6497,-1.6593,-1.6971,-1.6694,-1.6424,-1.6095,-1.5503,-1.4682,-1.3966,-1.3931,-1.4252,0.0,0.0,-1.5521,-1.607,-1.6826,-1.7175,-1.7535,-1.7856,-1.815,-1.8196,-1.7615,-1.7495,-1.6872,0.0,-1.3383,-1.2248,-1.0903,0.0,0.0,-0.8332,-0.8363,-0.8389,-0.8104,-0.8098,-0.812,-0.8266,-0.8303,-0.8264,-0.8113,-0.7879,-0.7741,-0.7877,-0.7719,-0.793,-0.8511,-0.8473,-0.8249,-0.7773,-0.7499,0.0,0.0,0.0,0.0,0.0,0.0,0.0,0.0,0.0,0.0,0.0,0.0,0.0,0.0,0.0,0.0,0.0,0.0,0.0,0.0,0.0,0.0,0.0,0.0,0.0,0.0,0.0,0.0,-0.9908,-0.9732,0.0,0.0,-0.8341,-0.7908,-0.7352,-0.7289,-0.7511,-0.7975,-0.8695,-0.9316,-1.0009,-1.1013,-1.1394,-1.1362,-1.1097,-1.0882,-1.0646,-1.0098,-0.9863,-0.9961,-0.9961,-1.0323,-1.0804,-1.1658,-1.2747,-1.4183,-1.5564,-1.6095,-1.6107,-1.7068,-1.7683,-1.7938,-1.7605,-1.7561,-1.764,-1.7338,-1.7201,-1.7048,-1.6853,-1.6243,-1.5736,-1.5886,-1.6144,-1.6282,-1.6176,-1.6433,-1.6897,-1.7244,-1.751,-1.7709,-1.821,-1.841,-1.8323,-1.7716,-1.7288,-1.6673,-1.5569,-1.4558,-1.3455,-1.2156,-1.0851,-0.9762,-0.9159,-0.8521,-0.8016,-0.795,-0.7923,-0.8121,-0.8627,-0.9331,-0.9589,-0.947,-0.9501,-0.9344,-0.9087,-0.8949,-0.8995,-0.9328,-0.9294,-0.9112,-0.8725,-0.8057,-0.7485,0.0,0.0,0.0,0.0,0.0,0.0,0.0,0.0,0.0,0.0,0.0,0.0,0.0,0.0,0.0,0.0,0.0,0.0,0.0,0.0,0.0,0.0,0.0,0.0,0.0,0.0,-1.0496,-1.0901,-1.06,-1.0091,-0.9233,-0.8417,-0.7785,-0.7292,-0.7107,-0.725,-0.7774,-0.8682,-0.9644,-1.0459,-1.178,-1.2542,-1.2428,-1.2343,-1.2137,-1.1845,-1.1162,-1.0929,-1.1035,-1.1035,-1.1407,-1.228,-1.3152,-1.4404,-1.5897,-1.7497,-1.797,-1.7836,-1.855,-1.8851,-1.8906,-1.8796,-1.8742,-1.8692,-1.848,-1.8263,-1.8136,-1.8056,-1.7627,-1.7154,-1.726,-1.7336,-1.7368,-1.6992,-1.719,-1.7452,-1.7762,-1.7849,-1.8043,-1.8644,-1.8784,-1.8591,-1.7889,-1.7275,-1.6767,-1.6269,-1.5262,-1.4286,-1.3292,-1.1941,-1.0894,-1.0159,-0.9167,-0.8472,-0.8418,-0.8483,-0.8724,-0.9585,-1.0462,-1.1038,-1.0988,-1.0958,-1.0751,-1.0098,-0.9759,-0.9699,-0.9977,-0.9807,-0.9546,-0.919,-0.8326,-0.7809,-0.7695,0.0,0.0,0.0,0.0,0.0,0.0,0.0,0.0,0.0,0.0,0.0,0.0,0.0,0.0,0.0,0.0,0.0,0.0,0.0,0.0,0.0,0.0,0.0,-1.048,-1.129,-1.2004,-1.2202,-1.1706,-1.0886,-1.0045,-0.8946,-0.805,-0.7531,-0.7479,-0.7654,-0.8113,-0.8741,-0.9543,-1.0491,-1.1702,-1.2452,-1.2767,-1.3166,-1.3193,-1.3132,-1.2716,-1.2557,-1.2557,-1.2557,-1.3056,-1.4052,-1.4673,-1.5924,-1.7555,-1.8527,-1.9273,-1.9909,-2.0126,-2.0234,-2.0234,-2.0234,-2.0234,-2.0187,-1.99,-1.9619,-1.9332,-1.9032,-1.8544,-1.807,-1.8063,-1.7836,-1.7582,-1.7569,-1.7562,-1.7695,-1.8303,-1.847,-1.8624,-1.9212,-1.9359,-1.9125,-1.8237,-1.7575,-1.7061,-1.6767,-1.5654,-1.461,-1.413,-1.3256,-1.2267,-1.1286,-1.0519,0.0,-0.9647,-0.9702,-1.019,-1.1185,-1.1899,-1.2375,-1.2474,-1.2293,-1.1846,-1.1109,-1.0313,-0.9964,-1.0288,-0.9933,-0.9546,-0.919,-0.8304,-0.8015,-0.832,0.0,0.0,0.0,0.0,0.0,0.0,0.0,0.0,0.0,0.0,0.0,0.0,0.0,0.0,0.0,0.0,0.0,0.0,0.0,0.0,0.0,0.0,-1.136,-1.1509,-1.2614,-1.3439,-1.3375,-1.2807,-1.1798,-1.0475,-0.8941,-0.7941,-0.7588,-0.7516,-0.7816,-0.8277,-0.9125,-0.9957,-1.0882,-1.2136,-1.3007,-1.3417,-1.4326,-1.4745,-1.4695,-1.4803,-1.4971,-1.4971,-1.4971,-1.5362,-1.6141,-1.7152,-1.8053,-1.9096,-2.0103,-2.0618,-2.071,-2.0401,-2.0234,-2.0234,-2.0234,-2.0234,-2.0187,-1.99,-1.9746,-1.9633,-1.9339,-1.8991,-1.8644,-1.843,-1.8003,-1.7542,-1.7328,-1.7114,-1.7081,-1.7675,-1.7989,-1.8297,-1.8905,-1.9212,-1.9125,-1.8237,-1.7575,-1.7061,-1.6767,-1.6209,-1.5732,-1.5438,-1.4867,-1.4076,-1.3062,0.0,0.0,-1.1308,-1.1558,-1.204,-1.2822,-1.3904,-1.4487,-1.4338,-1.4016,-1.3381,0.0,-1.1112,-1.0335,-1.0186,-0.988,-0.9546,-0.919,-0.9125,-0.9102,0.0,0.0,0.0,0.0,0.0,0.0,0.0,0.0,0.0,0.0,0.0,0.0,0.0,0.0,0.0,0.0,0.0,0.0,0.0,0.0,0.0,0.0,-1.2217,-1.2519,-1.2659,-1.3572,-1.4059,-1.3526,-1.2783,-1.1789,-1.0458,-0.8803,-0.7848,-0.7708,-0.7879,-0.8157,-0.8711,-0.9531,-1.0426,-1.1199,-1.2339,-1.3424,-1.4213,-1.5246,-1.5945,-1.6311,-1.6669,-1.684,-1.684,-1.684,-1.7232,0.0,-1.8658,-1.9304,-2.0087,-2.0856,-2.1109,0.0,0.0,0.0,0.0,0.0,-2.0601,-2.0541,-2.0127,-1.998,-1.9913,-1.9499,-1.9165,-1.8871,-1.8577,-1.7976,-1.7341,-1.7048,-1.666,-1.65,-1.7215,-1.7615,-1.8016,-1.8751,-1.9152,-1.9158,-1.8397,-1.7662,-1.7094,-1.6927,0.0,0.0,-1.6416,-1.5894,-1.5269,-1.4552,-1.3701,-1.3179,0.0,-1.3244,-1.3681,-1.4304,-1.5182,-1.5646,-1.5356,-1.5047,0.0,0.0,0.0,-1.0735,-1.0321,0.0,0.0,0.0,0.0,0.0,0.0,0.0,0.0,0.0,-1.1735,-1.1842,0.0,0.0,0.0,0.0,0.0,0.0,0.0,0.0,0.0,0.0,0.0,0.0,0.0,0.0,0.0,0.0,-1.3219,-1.3444,-1.3779,-1.4201,-1.4081,-1.3055,-1.2158,-1.1191,-1.0078,-0.8667,-0.7846,-0.7976,-0.834,-0.8718,0.0,0.0,0.0,0.0,0.0,-1.3655,-1.5031,-1.5975,-1.6947,-1.7966,-1.8244,-1.8507,-1.8507,-1.8507,-1.877,-1.942,-1.9799,-2.0164,-2.0781,-2.1029,-2.1136,-2.1109,-2.1109,-2.1109,-2.1109,-2.1109,-2.1109,0.0,0.0,0.0,0.0,-1.9593,-1.9212,-1.8911,-1.8591,-1.7909,-1.7181,-1.6847,-1.6353,-1.6112,-1.6934,-1.7388,-1.7842,-1.8677,-1.9125,-1.9212,-1.8657,-1.7883,-1.7301,-1.7301,-1.6854,-1.664,-1.7161,-1.6698,-1.6043,-1.5799,-1.5191,0.0,-1.4718,-1.4971,-1.5246,-1.5738,0.0,0.0,-1.6064,-1.5743,-1.4897,-1.3494,-1.2191,-1.1229,-1.0681,-1.0374,-1.0354,-1.0648,-1.0586,-1.0829,-1.1424,-1.2493,-1.346,-1.4292,-1.3539,-1.3256,0.0,0.0,0.0,0.0,0.0,0.0,0.0,0.0,0.0,0.0,0.0,0.0,0.0,0.0,0.0,-1.3673,-1.385,-1.4051,-1.4377,-1.4392,-1.3958,-1.2929,-1.1638,-1.0519,-0.9602,-0.8499,-0.7941,-0.8262,-0.8885,-0.9597,-1.0418,-1.1384,0.0,-1.273,-1.3182,-1.4072,-1.5358,-1.7045,-1.8441,-1.9364,0.0,0.0,-2.1287,-2.1287,-2.1287,-2.1424,-2.1549,-2.1553,-2.147,-2.147,-2.1329,-2.1109,-2.1109,-2.1109,-2.1109,-2.1109,-2.1109,-2.1056,-2.0708,-2.0434,-2.0174,-1.9826,-1.9519,-1.9185,-1.8651,-1.8203,0.0,-1.7215,-1.6807,-1.6627,-1.7041,-1.7549,-1.8063,-1.8477,-1.8978,-1.9272,-1.8918,-1.8517,-1.823,-1.823,-1.7949,-1.7742,-1.7856,-1.7556,-1.7206,-1.6975,-1.6983,-1.6905,-1.6677,-1.7095,-1.7329,-1.7206,-1.7449,-1.7477,-1.7041,-1.6446,-1.5678,-1.4683,-1.2839,-1.163,-1.1276,-1.0975,-1.0962,-1.1249,-1.1663,-1.2217,-1.2851,-1.3736,-1.4723,-1.5837,-1.5028,-1.4853,0.0,0.0,0.0,0.0,0.0,0.0,0.0,0.0,0.0,0.0,0.0,-1.2654,0.0,0.0,-1.3439,-1.423,-1.4324,-1.4381,-1.4549,-1.4321,-1.3693,-1.2631,-1.162,-1.0615,-0.9743,-0.9069,-0.8833,-0.9411,-1.0238,-1.1001,-1.1788,-1.2902,-1.362,-1.4091,-1.4582,-1.5529,-1.6744,-1.8249,-1.9484,-2.0419,-2.1509,-2.1984,-2.1984,-2.1984,-2.1984,-2.1984,-2.1984,-2.1817,-2.1543,-2.1396,-2.1243,-2.1109,-2.1109,-2.1109,-2.1109,-2.1109,-2.1109,-2.1069,-2.0775,-2.0581,-2.0381,-1.994,-1.97,-1.9472,-1.8885,-1.8397,-1.7949,-1.7495,-1.7048,-1.6807,-1.7255,-1.7709,-1.8156,-1.8604,-1.9158,-1.9506,-1.9205,-1.9032,-1.8885,-1.8738,-1.847,-1.8223,-1.807,-1.7916,-1.7716,-1.7415,-1.7488,-1.7528,-1.7382,-1.7615,-1.7742,-1.7595,-1.7722,-1.7635,-1.7188,-1.6473,-1.5678,-1.4796,-1.3634,-1.2779,-1.2338,-1.2031,-1.1937,-1.2084,-1.2525,-1.3053,-1.3654,-1.4529,-1.5565,-1.67,-1.6477,-1.6539,0.0,0.0,0.0,0.0,0.0,0.0,0.0,0.0,-1.1314,-1.2332,-1.2637,-1.2963,-1.3838,-1.376,-1.383,-1.4719,-1.4795,-1.4691,-1.4737,-1.4374,-1.3756,-1.2856,-1.1969,-1.113,-1.0578,-1.0253,-1.0374,-1.1052,-1.1888,-1.2718,-1.3506,-1.4686,-1.5529,-1.5952,-1.6637,-1.7515,-1.8592,-1.9594,-2.0509,-2.1332,-2.1885,-2.2158,-2.2158,-2.2158,-2.2158,-2.2151,-2.2098,-2.1937,-2.1697,-2.1343,-2.1196,-2.1189,-2.1129,-2.1109,-2.1109,-2.1109,-2.1109,-2.1076,-2.0842,-2.0722,-2.0601,-2.0127,-1.9933,-1.9786,-1.9259,-1.8764,-1.8323,-1.8016,-1.7589,-1.7335,-1.7809,-1.8116,-1.8437,-1.8965,-1.9459,-1.9753,-1.9573,-1.9492,-1.9379,-1.9138,-1.8858,-1.8564,-1.8263,-1.817,-1.7989,-1.7562,-1.7549,-1.7562,-1.7508,-1.7549,-1.7582,-1.7582,-1.7635,-1.7602,-1.7428,-1.67,-1.5932,-1.5164,-1.4736,-1.4249,-1.3661,-1.3287,-1.3171,-1.3171,-1.3447,-1.3948,-1.4596,-1.5418,-1.64,-1.7502,-1.7736,-1.7949,-1.0794,-1.0487,0.0,-1.1193,-1.1266,-1.1452,0.0,0.0,-1.2987,-1.376,-1.3958,-1.3961,-1.3978,-1.4185,-1.443,-1.4792,-1.5116,-1.5319,-1.5354,-1.5158,-1.4753,-1.413,-1.304,-1.2274,-1.2149,-1.2299,-1.2603,-1.3212,-1.4044,-1.4873,-1.599,-1.6839,-1.7813,-1.8902,-1.9278,-1.9866,-2.0697,-2.1441,-2.1899,-2.2191,-2.2619,-2.2766,-2.2766,-2.2766,-2.2766,-2.2746,-2.2485,-2.2352,-2.2278,-2.173,-2.1503,-2.1476,-2.1216,-2.1109,-2.1109,-2.1109,-2.1109,-2.1109,-2.1076,-2.0895,-2.0668,-2.0601,-2.0401,-2.0127,-1.98,-1.9659,-1.9539,-1.9252,-1.9118,-1.9085,-1.9152,-1.9192,-1.9299,-1.9626,-1.9753,-1.986,-2.0087,-1.9933,-1.974,-1.9706,-1.9466,-1.9178,-1.8878,-1.8611,-1.8156,-1.7321,-1.7415,-1.7488,-1.7235,-1.7422,-1.7582,-1.7582,-1.7829,-1.809,-1.8317,-1.8009,-1.7635,-1.7261,-1.648,-1.5765,-1.5177,-1.4616,-1.4322,-1.4322,-1.487,-1.5565,-1.6413,-1.7034,-1.7816,-1.8724,-1.8758,-1.8657,-1.1357,0.0,0.0,0.0,-1.2058,-1.2307,-1.3118,-1.3426,-1.3679,-1.4081,-1.4184,-1.4198,-1.4525,-1.4661,-1.4891,0.0,-1.5378,-1.5752,-1.5949,-1.5901,-1.5674,-1.5191,-1.453,-1.3884,-1.3062,-1.3292,-1.3735,-1.4242,-1.5167,-1.6057,-1.6836,-1.8024,-1.8851,-1.9352,-2.014,-2.0735,-2.1109,-2.1857,-2.2298,-2.2418,-2.2719,-2.2859,-2.2859,-2.2859,-2.2859,-2.2846,-2.2545,-2.2418,-2.2372,-2.179,-2.155,-2.1523,-2.1223,-2.1109,-2.1109,-2.1109,-2.1109,-2.1109,-2.1109,-2.1029,-2.0902,-2.0728,-2.0595,-2.0434,-2.014,-2.0054,-2.0027,-1.9907,-1.9873,-1.9873,-1.9873,-1.9873,-1.99,-2.0027,-2.0187,-2.0294,-2.0247,-2.0274,-2.0207,-1.9867,-1.97,-1.9472,-1.9005,-1.8824,-1.8437,-1.7535,-1.7361,-1.7288,-1.7161,-1.7101,-1.7201,-1.7549,-1.7862,-1.817,-1.8464,-1.8377,-1.8176,-1.7869,-1.7335,-1.6774,-1.6179,-1.5758,-1.5458,-1.5284,-1.5698,-1.6253,-1.6967,-1.7382,-1.8043,-1.8925,-1.8925,-1.8951,-1.1816,0.0,0.0,-1.2318,-1.2685,-1.3059,-1.3708,-1.4217,-1.4532,-1.4675,-1.459,-1.4549,-1.4993,-1.498,0.0,-1.5416,-1.5712,-1.6052,-1.6353,-1.646,-1.6373,-1.5999,-1.5691,-1.5123,-1.4268,-1.4496,-1.4953,-1.5507,-1.6428,-1.7257,-1.7751,-1.8864,-1.9599,-1.984,-2.0828,-2.139,-2.147,-2.2184,-2.2539,-2.2545,-2.2759,-2.2859,-2.2859,-2.2859,-2.2859,-2.2853,-2.2632,-2.2539,-2.2498,-2.1997,-2.179,-2.1757,-2.1376,-2.1229,-2.1223,-2.1136,-2.1109,-2.1109,-2.1109,-2.1109,-2.1076,-2.0862,-2.0795,-2.0755,-2.0541,-2.0474,-2.0474,-2.0474,-2.0474,-2.0474,-2.0474,-2.0414,-2.0374,-2.0454,-2.0581,-2.0641,-2.0501,-2.0581,-2.0555,-2.0127,-1.9907,-1.9666,-1.9239,-1.9032,-1.8704,-1.805,-1.7562,-1.7181,-1.6941,-1.6787,-1.6934,-1.7522,-1.7936,-1.8323,-1.8698,-1.8731,-1.8637,-1.8424,-1.8123,-1.7729,-1.7221,-1.6921,-1.662,-1.6319,-1.6607,-1.7014,-1.7522,-1.7809,-1.837,-1.9165,-1.9165,-1.9325,0.0,0.0,-1.2204,-1.2689,-1.339,-1.4118,-1.4751,-1.542,-1.5906,-1.5951,-1.5636,-1.5325,-1.5111,-1.4853,-1.4891,-1.5622,-1.6075,-1.6359,-1.6653,-1.6941,-1.6907,-1.6326,-1.5999,-1.5724,0.0,-1.6255,-1.6826,-1.7502,-1.8116,-1.8711,-1.9279,-1.9613,-2.018,-2.1029,-2.1643,-2.2091,-2.2372,-2.2692,-2.2846,-2.2846,-2.2859,-2.2859,-2.2859,-2.2859,-2.2859,-2.2859,-2.2853,-2.2846,-2.2826,-2.2519,-2.2392,-2.2338,-2.1764,-2.1537,-2.1503,-2.1216,-2.1109,-2.1109,-2.1109,-2.1109,-2.1109,-2.1096,-2.1096,-2.1096,-2.1082,-2.1082,-2.1082,-2.1082,-2.1082,-2.1082,-2.1082,-2.0875,-2.0735,-2.1015,-2.0875,-2.0755,-2.1022,-2.0869,-2.0675,-2.0655,-2.0194,-1.9793,-1.978,-1.9299,-1.8911,-1.8885,-1.813,-1.7261,-1.6406,-1.654,-1.6934,-1.7522,-1.8123,-1.8711,-1.9292,-1.9339,-1.9339,-1.9325,-1.9045,-1.8751,-1.845,-1.815,-1.7842,-1.7535,-1.7836,-1.8143,-1.845,-1.8744,-1.9192,-1.9773,-1.9773,-1.9927,0.0,0.0,-1.2902,-1.3329,-1.4048,-1.4831,-1.5269,-1.611,-1.6722,-1.6469,-1.6257,-1.609,-1.5771,-1.5485,-1.5359,-1.5832,-1.6413,-1.6887,-1.6987,-1.7088,-1.7001,-1.6607,-1.6126,0.0,0.0,0.0,0.0,-1.6961,-1.7742,-1.8457,-1.9045,-1.9907,-2.0608,-2.1096,-2.1864,-2.2318,-2.2418,-2.2712,-2.2859,-2.2859,-2.2859,-2.2859,-2.2859,-2.2859,-2.2859,-2.2859,-2.2859,-2.2859,-2.2839,-2.2539,-2.2418,-2.2358,-2.1777,-2.155,-2.1516,-2.1223,-2.1109,-2.1109,-2.1109,-2.1109,-2.1109,-2.1109,-2.1109,-2.1109,-2.1109,-2.1109,-2.1109,-2.1109,-2.1109,-2.1109,-2.1109,-2.1036,-2.0989,-2.1089,-2.1036,-2.0989,-2.1089,-2.1036,-2.0909,-2.0715,-2.0514,-2.0321,-2.012,-1.9927,-1.9526,-1.8758,-1.8036,-1.7335,-1.6647,-1.6981,-1.7442,-1.7842,-1.8424,-1.8938,-1.9332,-1.9366,-1.9366,-1.9366,-1.9085,-1.8878,-1.8784,-1.8497,-1.829,-1.8183,-1.8502,-1.8809,-1.9326,-1.9647,-2.0237,-2.1078,-2.0843,-2.0774,0.0,-1.3669,-1.3683,-1.416,-1.4819,-1.5535,-1.6034,-1.6952,-1.7536,-1.6956,-1.6675,-1.6475,-1.6024,-1.5521,-1.5336,-1.5991,-1.6525,-1.6947,-1.7261,-1.7402,-1.7361,-1.7054,-1.6593,0.0,0.0,0.0,0.0,-1.6814,-1.7602,-1.8397,-1.9192,-2.0254,-2.1015,-2.141,-2.2171,-2.2579,-2.2579,-2.2766,-2.2859,-2.2859,-2.2859,-2.2859,-2.2859,-2.2859,-2.2859,-2.2859,-2.2859,-2.2859,-2.2846,-2.2652,-2.2579,-2.2519,-2.1937,-2.171,-2.1663,-2.1256,-2.1176,-2.1256,-2.1149,-2.1109,-2.1109,-2.1109,-2.1109,-2.1109,-2.1235,-2.1362,-2.1488,-2.1488,-2.1488,-2.1488,-2.1362,-2.1235,-2.1109,-2.1109,-2.1109,-2.1109,-2.1109,-2.1109,-2.1056,-2.0869,-2.0748,-2.0615,-2.0428,-2.0214,-1.9786,-1.8931,-1.8384,-1.7809,-1.7108,-1.7535,-1.8063,-1.8477,-1.8951,-1.9352,-1.9653,-1.9679,-1.9679,-1.9679,-1.9492,-1.9392,-1.9392,-1.9212,-1.9112,-1.9112,-1.9562,-2.0102,-2.0867,-2.1318,-2.2052,-2.3035,-2.2689,-2.2281,-1.4587,-1.456,-1.4585,-1.5098,-1.57,-1.633,-1.6979,-1.7833,-1.8357,-1.7405,-1.694,-1.6541,0.0,0.0,-1.4732,-1.5973,-1.6234,-1.6573,-1.7435,-1.7856,-1.7956,0.0,0.0,0.0,0.0,0.0,0.0,-1.7128,0.0,-1.8557,-1.972,-2.0641,-2.1396,-2.1964,-2.2559,-2.2859,-2.2859,-2.2859,-2.2859,-2.2859,-2.2859,-2.2859,-2.2859,-2.2859,-2.3003,-2.3003,-2.2996,-2.3003,-2.2996,-2.2983,-2.2976,-2.2916,-2.2324,-2.2096,-2.2022,-2.1464,-2.1437,-2.1645,-2.1243,-2.1142,-2.1129,-2.1116,-2.1109,-2.1109,-2.1481,-2.1859,-2.223,-2.2237,-2.2237,-2.2111,-2.1734,-2.1362,-2.1109,-2.1109,-2.1109,-2.1109,-2.1109,-2.1109,-2.1109,-2.1109,-2.0882,-2.0702,-2.0702,-2.0214,-1.9726,-1.9452,-1.9158,-1.8651,-1.7762,-1.817,-1.8751,-1.9325,-1.9646,-1.9933,-2.0214,-2.0234,-2.0234,-2.0234,-2.0234,-2.0234,-2.0234,-2.0234,-2.0234,-2.0355,-2.0953,-2.1766,-2.2802,-2.3417,-2.441,-2.5661,-2.4971,-2.4334,-1.4698,-1.5013,-1.5246,-1.5756,-1.6627,-1.7475,-1.8029,-1.8941,-1.9323,-1.8195,-1.7269,-1.658,0.0,0.0,0.0,-1.547,-1.6049,0.0,-1.7168,-1.7903,0.0,0.0,0.0,-1.827,-1.7756,-1.7168,0.0,0.0,-1.7949,-1.8464,-1.9426,-2.0722,-2.161,-2.1977,-2.2559,-2.2859,-2.2859,-2.2859,-2.2859,-2.2859,-2.2859,-2.2859,-2.2866,-2.3133,-2.3406,-2.3686,-2.3959,-2.4231,-2.4481,-2.4245,-2.4145,-2.408,-2.345,-2.32,-2.3185,-2.2766,-2.251,-2.2337,-2.223,-2.1876,-2.1403,-2.1182,-2.1109,-2.1235,-2.1859,-2.2598,-2.3216,-2.323,-2.3223,-2.3084,-2.248,-2.1734,-2.1109,-2.1109,-2.1109,-2.1109,-2.1109,-2.1109,-2.1109,-2.1109,-2.1049,-2.0995,-2.0995,-2.0514,-2.0094,-2.0027,-1.976,-1.9339,-1.8664,-1.8911,-1.9285,-1.9653,-1.9947,-2.0154,-2.0227,-2.0234,-2.0234,-2.0234,-2.047,-2.0711,-2.0953,-2.1194,-2.1435,-2.1675,-2.261,-2.3191,-2.3626,-2.4821,-2.5801,-2.6484,-2.6184,-2.5687,-1.5277,-1.5578,-1.5879,-1.6749,-1.7537,-1.8159,-1.8796,-1.9129,-1.9031,-1.7873,-1.6606,0.0,0.0,0.0,0.0,0.0,0.0,0.0,-1.7754,-1.8547,-1.8946,0.0,-1.8988,0.0,-1.8306,-1.7842,-1.7782,0.0,-1.8303,-1.8684,-1.9693,-2.1015,-2.1877,-2.2164,-2.2625,-2.2859,-2.2859,-2.2859,-2.2859,-2.2859,-2.2859,-2.2859,-2.2859,-2.3406,-2.4081,-2.4745,0.0,-2.5816,-2.6321,-2.5974,-2.5836,-2.5766,-2.508,-2.481,-2.481,-2.432,-2.391,-2.3293,-2.3088,-2.2476,-2.1884,-2.1719,-2.1787,-2.1933,-2.2932,-2.3826,-2.4448,-2.4463,-2.4332,-2.3829,-2.2981,-2.1985,-2.1109,-2.1109,-2.1109,-2.1109,-2.1109,-2.1109,-2.1109,-2.1109,-2.1109,-2.1109,-2.1109,-2.0728,-2.0428,-2.0428,-2.018,-1.9873,-1.9539,-1.976,-2.0054,-2.0341,-2.0521,-2.0615,-2.0615,-2.0615,-2.0615,-2.0615,-2.1108,-2.1593,-2.2191,-2.2679,-2.3271,-2.3859,-2.4547,-2.5076,-2.5566,-2.6434,-2.7353,-2.8338,-2.7884,-2.7366,-1.5929,-1.6223,-1.66,-1.7857,-1.8462,-1.8783,-1.9268,-1.8905,-1.8184,-1.7096,0.0,0.0,-1.4668,0.0,-1.4123,-1.5952,0.0,-1.7764,-1.8703,-1.9443,-1.9788,-1.9476,-1.9462,-1.9241,-1.8665,-1.8354,-1.841,-1.8998,-1.8878,-1.9219,-2.0234,-2.1403,-2.2178,-2.2465,-2.2732,-2.2859,-2.2859,-2.2859,-2.2859,-2.2859,-2.2859,-2.2859,-2.2866,-2.3686,-2.4609,-2.5651,0.0,0.0,-2.841,-2.7985,-2.769,-2.7615,-2.6919,-2.6637,-2.6653,-2.6161,-2.5509,-2.4742,-2.4152,-2.344,-2.2694,-2.262,-2.2695,-2.3071,-2.4328,-2.5334,-2.5912,-2.5815,-2.5349,-2.4634,-2.3539,-2.2202,-2.1216,-2.1176,-2.1169,-2.1156,-2.1116,-2.1109,-2.1109,-2.1109,-2.1109,-2.1109,-2.1109,-2.0869,-2.0688,-2.0728,-2.0481,-2.0294,-2.0294,-2.0514,-2.0775,-2.1029,-2.1089,-2.1109,-2.1109,-2.1109,-2.1235,-2.1235,-2.1978,-2.2841,-2.3822,-2.4564,-2.5285,-2.6227,-2.6525,-2.7038,-2.7884,-2.8242,-2.8946,-3.0117,-2.968,-2.9086,-1.5931,-1.6721,-1.755,-1.8234,-1.9129,-1.968,-1.9381,-1.8705,0.0,0.0,0.0,-1.3831,-1.4063,-1.3932,0.0,-1.6029,0.0,0.0,0.0,0.0,-2.0743,0.0,0.0,0.0,0.0,0.0,0.0,0.0,0.0,0.0,-2.0588,-2.171,-2.2478,-2.2779,-2.2839,-2.2859,-2.2859,-2.2859,-2.2859,-2.2859,-2.2859,-2.2859,-2.2866,-2.3959,-2.5158,-2.647,0.0,0.0,-2.9856,-2.9156,-2.8867,-2.8823,-2.8351,-2.8167,-2.8237,-2.8128,-2.7511,-2.6711,-2.6207,-2.542,-2.4324,-2.3356,-2.3329,-2.406,-2.5447,-2.6789,-2.7829,-2.7263,-2.6608,-2.5818,-2.4623,-2.3064,-2.1777,-2.1537,-2.1476,-2.141,-2.1162,-2.1109,-2.1109,-2.1109,-2.1109,-2.1109,-2.1109,-2.0869,-2.0762,-2.0995,-2.0788,-2.0601,-2.0601,-2.0641,-2.0695,-2.0742,-2.0962,-2.1109,-2.1109,-2.1362,-2.1607,-2.1859,-2.3091,-2.4201,-2.5186,-2.6042,-2.6892,-2.7607,-2.828,-2.8409,-2.8076,-2.9382,-2.9958,-2.9697,-3.0065,-2.9837,-1.6834,-1.7764,-1.8624,-1.9246,-1.9613,-1.962,-1.9151,0.0,0.0,0.0,0.0,-1.2986,-1.3611,0.0,0.0,0.0,0.0,0.0,0.0,0.0,0.0,0.0,0.0,0.0,0.0,0.0,0.0,0.0,0.0,0.0,-2.1122,-2.2098,-2.2712,-2.2859,-2.2859,-2.2859,-2.2859,-2.2859,-2.2859,-2.2859,-2.2859,-2.2859,-2.2996,-2.4224,-2.5689,-2.7519,0.0,0.0,-3.1807,-3.1121,-3.0784,-3.0747,-3.0316,-3.0157,-3.013,-3.0201,-2.9595,-2.8734,-2.8327,-2.7535,-2.6683,-2.6338,-2.6009,-2.5992,-2.752,-2.8756,-2.9553,-2.9085,-2.821,-2.7077,-2.5731,-2.3947,-2.2435,-2.2005,-2.1565,-2.1283,-2.1136,-2.1109,-2.1109,-2.1109,-2.1109,-2.1109,-2.1109,-2.0995,-2.1002,-2.1296,-2.1215,-2.1277,-2.1402,-2.152,-2.1458,-2.0812,-2.0802,-2.0949,-2.1096,-2.1607,-2.2104,-2.2841,-2.4077,-2.5546,-2.6987,-2.7847,-2.871,-2.9431,-2.9578,-2.9498,-2.9203,-2.9746,-3.0091,-3.0264,-3.0568,-3.075,-1.798,-1.8988,-1.9777,-2.0114,-1.9852,-1.9288,-1.8616,-1.6929,0.0,0.0,0.0,0.0,0.0,0.0,0.0,0.0,0.0,0.0,0.0,0.0,0.0,0.0,0.0,0.0,0.0,0.0,0.0,0.0,0.0,0.0,0.0,-2.2485,-2.2859,-2.2859,-2.2996,-2.2996,-2.3133,-2.3277,-2.327,-2.3406,-2.3406,-2.3406,-2.3406,-2.4759,-2.6612,-2.8435,0.0,0.0,0.0,-3.2519,-3.2168,-3.2129,-3.1787,-3.166,-3.1638,-3.1884,-3.1397,-3.0502,-3.0183,-2.9509,-2.8706,-2.9492,-2.8852,-2.8056,-2.9612,-3.047,-3.0898,-3.0529,-2.9573,-2.8355,-2.6984,-2.5115,-2.341,-2.2456,-2.1767,-2.1296,-2.1296,-2.1296,-2.1296,-2.1296,-2.1296,-2.1296,-2.1296,-2.1296,-2.1396,-2.169,-2.1869,-2.2053,-2.2546,-2.2993,-2.2856,-2.2107,-2.1534,-2.1354,-2.1461,-2.223,-2.3091,-2.3946,-2.5309,-2.6883,-2.8545,-2.9285,-3.003,-3.0889,-3.0537,-3.0293,-3.0195,-2.9961,-3.0215,-3.0889,-3.0986,-3.1435,-1.8684,-2.0042,-2.0943,-2.0283,-1.9724,-1.8929,-1.7345,0.0,0.0,0.0,-1.2524,-1.1908,-1.2189,0.0,0.0,0.0,0.0,0.0,0.0,0.0,0.0,0.0,0.0,0.0,0.0,0.0,0.0,0.0,0.0,0.0,0.0,-2.2819,-2.2859,-2.2859,-2.3133,-2.3543,-2.3959,-2.4231,-2.4495,-2.4766,-2.4766,-2.4766,-2.4902,-2.6368,-2.78,-2.9213,0.0,0.0,0.0,-3.2519,-3.2168,-3.2168,-3.2129,-3.2109,-3.2207,-3.2681,-3.2336,-3.1698,-3.135,-3.0714,-3.0178,-3.0972,-3.0683,-3.0076,-3.0871,-3.1484,-3.1915,-3.1294,-3.0521,-2.976,-2.8383,-2.6664,-2.4818,-2.2801,-2.2118,-2.1904,-2.1904,-2.1904,-2.1904,-2.1904,-2.1904,-2.1904,-2.1904,-2.1904,-2.2004,-2.2298,-2.2752,-2.3327,-2.4198,-2.4711,-2.5391,-2.6199,-2.4207,-2.2952,-2.2856,-2.3837,-2.4695,-2.5309,-2.6883,-2.8215,-2.9303,-2.9903,-3.0509,-3.0889,-3.085,-3.0625,-3.0195,-3.0586,-3.081,-3.0898,-3.1279,-3.1719,-1.8956,-2.0179,-2.0846,-2.0112,-1.9306,-1.8335,-1.6715,0.0,0.0,-1.3231,-1.2495,-1.2042,-1.2318,-1.2405,0.0,0.0,0.0,0.0,0.0,0.0,0.0,0.0,0.0,0.0,0.0,0.0,0.0,0.0,0.0,0.0,0.0,-2.2859,-2.2859,-2.2859,-2.3406,-2.4081,-2.4865,-2.5412,-2.6218,-2.6871,-2.6871,-2.6871,-2.7004,-2.7924,-2.9091,-3.0254,0.0,0.0,0.0,-3.2793,-3.2549,-3.2549,-3.2549,-3.2549,-3.2617,-3.3078,-3.3038,-3.2775,-3.2657,-3.2393,-3.2256,-3.2521,-3.2397,-3.2119,-3.2147,-3.2546,-3.2795,-3.2421,-3.1762,-3.0966,-2.9819,-2.7663,-2.5609,-2.4044,-2.3391,-2.2904,-2.2642,-2.251,-2.2247,-2.1984,-2.1984,-2.1984,-2.1984,-2.1984,-2.2084,-2.2372,-2.2967,-2.3804,-2.4933,-2.5858,-2.6826,-2.7824,-2.6298,-2.5445,-2.5651,-2.6303,-2.7176,-2.8026,-2.9035,-3.0037,-3.1031,-3.1401,-3.1531,-3.166,-3.166,-3.1572,-3.1387,-3.1572,-3.1787,-3.2041,-3.2207,-3.2519,-1.9038,-1.9996,-2.059,-1.9798,-1.8844,-1.7724,0.0,0.0,-1.3834,-1.3027,-1.2514,-1.2253,-1.2385,-1.2307,-1.2578,0.0,0.0,0.0,0.0,0.0,0.0,0.0,0.0,0.0,0.0,0.0,0.0,0.0,0.0,0.0,0.0,-2.2779,-2.2732,-2.2732,-2.3458,-2.4336,-2.5499,-2.63,-2.74,-2.8677,-2.8677,-2.8736,-2.8838,-2.9492,-3.0281,0.0,0.0,0.0,0.0,-3.2832,-3.2607,-3.2607,-3.2607,-3.2607,-3.2676,-3.3223,-3.3418,-3.3418,-3.3418,-3.3418,-3.3418,-3.3418,-3.3418,-3.3301,-3.3175,-3.3165,-3.3292,-3.3175,-3.253,-3.1754,-3.0687,-2.8921,-2.7034,-2.5873,-2.5171,-2.4473,-2.3947,-2.3426,-2.2903,-2.2378,-2.2245,-2.2245,-2.2245,-2.2245,-2.2311,-2.2519,-2.3364,-2.4334,-2.5853,-2.7153,-2.8464,-2.9674,-2.9225,-2.8558,-2.7991,-2.8511,-2.9137,-2.9989,-3.0633,-3.1407,-3.2168,-3.2168,-3.2168,-3.2168,-3.2168,-3.2168,-3.2168,-3.2168,-3.2383,-3.2793,-3.2793,-3.3027,-1.8882,-1.9928,-2.034,-1.9332,-1.8385,-1.7137,0.0,-1.4506,-1.3714,-1.2722,-1.2508,-1.2437,-1.2246,-1.2317,-1.2461,0.0,0.0,0.0,0.0,0.0,0.0,0.0,0.0,0.0,0.0,0.0,0.0,0.0,0.0,0.0,0.0,0.0,-2.2425,-2.2425,-2.3064,-2.4201,-2.5471,-2.6503,-2.7959,-2.9621,-2.9621,-2.9944,-3.0316,-3.0982,0.0,0.0,0.0,0.0,0.0,-3.2519,-3.2178,-3.2178,-3.2178,-3.2178,-3.2275,-3.3115,-3.3418,-3.3418,-3.3418,-3.3418,-3.3418,-3.3418,-3.3418,-3.3418,-3.3418,-3.3418,-3.3418,-3.3418,-3.2921,-3.2147,-3.1047,-3.0272,-2.95,-2.8435,-2.7635,-2.6706,-2.5771,-2.5001,-2.4217,-2.3126,-2.2853,-2.2853,-2.2853,-2.2853,-2.2853,-2.2859,-2.382,-2.5186,-2.723,-2.8802,-3.0483,-3.2525,-3.3154,-3.2169,-2.9493,-2.9786,-3.0282,-3.0642,-3.1294,-3.1803,-3.2168,-3.2168,-3.2168,-3.2168,-3.2168,-3.2168,-3.2168,-3.2168,-3.2383,-3.2793,-3.2793,-3.3027,-1.8076,-1.8859,-1.918,-1.8279,-1.7375,-1.6429,-1.498,-1.4122,-1.3466,-1.2842,-1.2579,-1.2389,-1.2066,-1.1886,-1.1823,-1.195,0.0,0.0,0.0,0.0,0.0,0.0,0.0,0.0,0.0,0.0,0.0,0.0,0.0,0.0,0.0,0.0,-2.2004,-2.2405,-2.3321,-2.4834,-2.6591,-2.7882,-2.9601,-3.1778,-3.1778,-3.1986,-3.2384,-3.2648,0.0,0.0,0.0,0.0,0.0,-3.2822,-3.2598,-3.2598,-3.2598,-3.2598,-3.2666,-3.3213,-3.3418,-3.3418,-3.3418,-3.3418,-3.3418,-3.3418,-3.3418,-3.3418,-3.3418,-3.3418,-3.3418,-3.3418,-3.3048,-3.254,-3.1735,-3.1221,-3.0705,-2.9778,-2.9117,-2.8328,-2.7262,-2.647,-2.5689,-2.4495,-2.436,-2.436,-2.436,-2.436,-2.436,-2.436,-2.5293,-2.6427,-2.7688,-2.9054,-3.0479,-3.1823,-3.2305,-3.2438,-3.2102,-3.2257,-3.2382,-3.2508,-3.2768,-3.2902,-3.3027,-3.3027,-3.3027,-3.3027,-3.3027,-3.3027,-3.3027,-3.3027,-3.3096,-3.3223,-3.3223,-3.3301,0.0,-1.7296,-1.7504,-1.6847,-1.6315,-1.5672,-1.4635,-1.4057,-1.357,-1.2948,-1.265,-1.2389,-1.1982,-1.1733,-1.158,-1.152,0.0,0.0,0.0,0.0,0.0,0.0,0.0,0.0,0.0,0.0,0.0,0.0,0.0,0.0,0.0,0.0,-2.177,-2.2245,-2.3032,-2.4449,-2.6303,-2.7706,-2.9533,-3.1947,-3.206,-3.2406,-3.2949,0.0,0.0,0.0,0.0,0.0,0.0,-3.2559,-3.2314,-3.2334,-3.249,-3.2559,-3.2627,-3.3213,-3.3418,-3.3418,-3.3418,-3.3418,-3.3418,-3.3418,-3.3418,-3.3418,-3.3418,-3.3418,-3.3418,-3.3418,-3.3301,-3.3038,-3.2521,-3.2266,-3.201,-3.1616,-3.0963,-3.0186,-2.91,-2.8312,-2.7535,-2.6486,-2.6218,-2.6218,-2.6218,-2.6218,-2.6218,-2.6218,-2.6748,-2.7516,-2.8386,-2.95,-3.0382,-3.12,-3.1816,-3.2383,-3.29,-3.3096,-3.3252,-3.3408,-3.3418,-3.3418,-3.3418,-3.3418,-3.3418,-3.3418,-3.3418,-3.3418,-3.3418,-3.3418,-3.3418,-3.3418,-3.3418,-3.3418,0.0,-1.535,-1.5563,-1.5423,-1.5234,-1.4958,-1.4301,-1.4112,0.0,-1.3041,-1.265,-1.2318,-1.1909,-1.1746,-1.1601,-1.1358,0.0,0.0,0.0,0.0,0.0,0.0,0.0,0.0,0.0,0.0,0.0,0.0,0.0,0.0,0.0,0.0,0.0,-2.1944,-2.2291,-2.3333,-2.4901,-2.6269,-2.8059,-3.0547,-3.0768,-3.1358,-3.2168,0.0,0.0,0.0,0.0,0.0,0.0,-3.1875,-3.1533,-3.1601,-3.2012,-3.2187,-3.2314,-3.3125,-3.3418,-3.3418,-3.3418,-3.3418,-3.3418,-3.3418,-3.3418,-3.3418,-3.3418,-3.3418,-3.3418,-3.3418,-3.3418,-3.3418,-3.3301,-3.3292,-3.3292,-3.3292,-3.2794,-3.2019,-3.0918,-3.0281,-2.9509,-2.8443,-2.818,-2.8312,-2.8312,-2.8312,-2.8303,-2.8303,-2.8341,-2.8628,-2.9475,-2.9877,-3.0329,-3.0762,-3.1582,-3.209,-3.2119,-3.2539,-3.2969,-3.3389,-3.3418,-3.3418,-3.3418,-3.3418,-3.3418,-3.3418,-3.3418,-3.3418,-3.3418,-3.3418,-3.3418,-3.3418,-3.3418,-3.3418,-1.2801,0.0,-1.5269,-1.5075,-1.4719,-1.4325,0.0,-1.3472,-1.3055,0.0,0.0,0.0,0.0,0.0,0.0,0.0,0.0,0.0,0.0,0.0,0.0,0.0,0.0,0.0,0.0,0.0,0.0,0.0,0.0,0.0,0.0,0.0,0.0,-2.1643,-2.1806,-2.2466,-2.3938,-2.5178,-2.7071,-2.9404,-3.0027,-3.0997,-3.2168,0.0,0.0,0.0,0.0,0.0,-3.2734,-3.1875,-3.1709,-3.2031,-3.2129,-3.2363,-3.2715,-3.3232,-3.3418,-3.3418,-3.3418,-3.3418,-3.3418,-3.3418,-3.3418,-3.3418,-3.3418,-3.3418,-3.3418,-3.3418,-3.3175,-3.2921,-3.2667,-3.2403,-3.2138,-3.1882,-3.1506,-3.1,-3.0186,-2.9674,-2.9159,-2.8378,-2.8493,-2.8757,-2.9028,-2.9273,-2.9526,-2.9778,-2.976,-2.9759,-3.0263,-3.0379,-3.0363,-3.041,-3.0859,-3.1328,-3.1641,-3.2363,-3.2969,-3.3389,-3.3418,-3.3418,-3.3418,-3.3418,-3.3418,-3.3418,-3.3418,-3.3418,-3.3418,-3.3418,-3.3418,-3.3418,-3.3418,-3.3418,-1.1666,-1.3046,-1.4257,-1.4165,-1.4132,-1.3987,-1.346,0.0,0.0,0.0,0.0,0.0,0.0,0.0,0.0,0.0,0.0,0.0,0.0,0.0,0.0,0.0,0.0,0.0,0.0,0.0,0.0,0.0,0.0,0.0,0.0,0.0,0.0,0.0,-2.1316,-2.1978,-2.3091,-2.4324,-2.588,-2.7904,-2.8769,-2.9878,-3.1094,0.0,0.0,0.0,0.0,0.0,-3.2158,-3.1504,-3.1484,-3.1894,-3.209,-3.2422,-3.2842,-3.3271,-3.3418,-3.3418,-3.3418,-3.3418,-3.3418,-3.3418,-3.3418,-3.3418,-3.3418,-3.3418,-3.3418,-3.3418,-3.3048,-3.254,-3.1863,-3.1341,-3.0825,-3.0039,-2.9778,-2.9518,-2.9125,-2.8871,-2.8748,-2.8353,-2.8608,-2.9265,-2.9935,-3.0455,-3.0972,-3.1607,-3.1458,-3.1371,-3.1313,-3.1084,-3.0606,-3.0,-3.0498,-3.0986,-3.1211,-3.2012,-3.2764,-3.3379,-3.3418,-3.3418,-3.3418,-3.3418,-3.3418,-3.3418,-3.3418,-3.3418,-3.3418,-3.3418,-3.3418,-3.3418,-3.3418,-3.3418,-1.1118,-1.2042,-1.2955,-1.3111,-1.3544,-1.3729,-1.3011,0.0,0.0,0.0,0.0,0.0,0.0,0.0,0.0,0.0,0.0,0.0,0.0,0.0,0.0,0.0,0.0,0.0,0.0,0.0,0.0,0.0,0.0,0.0,0.0,0.0,0.0,0.0,-2.1089,-2.1488,-2.2355,-2.334,-2.4564,-2.6026,-2.7125,-2.8343,-2.9667,-3.003,0.0,0.0,0.0,0.0,-3.1484,-3.1064,-3.1182,-3.165,-3.2021,-3.2461,-3.293,-3.3291,-3.3418,-3.3418,-3.3418,-3.3418,-3.3418,-3.3418,-3.3418,-3.3418,-3.3418,-3.3418,-3.3418,-3.3418,-3.2921,-3.2147,-3.1056,-3.0281,-2.9518,-2.8452,-2.8188,-2.8188,-2.8188,-2.8188,-2.8048,-2.8048,-2.8575,-2.9222,-3.029,-3.1083,-3.2001,-3.3038,-3.2941,-3.2666,-3.2305,-3.1826,-3.1045,-2.9795,-3.04,-3.0889,-3.0889,-3.168,-3.2529,-3.3369,-3.3418,-3.3418,-3.3418,-3.3418,-3.3418,-3.3418,-3.3418,-3.3418,-3.3418,-3.3418,-3.3418,-3.3418,-3.3418,-3.3418,-1.0714,-1.1239,-1.1796,-1.2733,-1.3064,-1.3073,-1.2792,0.0,0.0,0.0,0.0,0.0,0.0,0.0,0.0,0.0,0.0,0.0,0.0,0.0,0.0,0.0,0.0,0.0,0.0,0.0,0.0,0.0,0.0,0.0,0.0,0.0,0.0,0.0,0.0,-2.1109,-2.1362,-2.2104,-2.2966,-2.4062,-2.5309,-2.6883,-2.8664,-2.9294,-3.0258,0.0,0.0,-3.1133,-3.1484,-3.1064,-3.1357,-3.207,-3.2148,-3.2637,-3.333,-3.3398,-3.3418,-3.3418,-3.3418,-3.3418,-3.3418,-3.3418,-3.3418,-3.3418,-3.3418,-3.3418,-3.3418,-3.3418,-3.2921,-3.2157,-3.1111,-3.0325,-2.9543,-2.851,-2.8254,-2.8254,-2.8254,-2.7973,-2.7692,-2.7427,-2.7692,-2.8213,-2.8846,-2.9909,-3.0972,-3.2412,-3.2449,-3.2401,-3.2705,-3.2002,-3.1152,-3.0205,-3.0576,-3.0889,-3.0889,-3.168,-3.2529,-3.3369,-3.3418,-3.3418,-3.3418,-3.3418,-3.3418,-3.3418,-3.3418,-3.3418,-3.3418,-3.3418,-3.3418,-3.3418,-3.3418,-3.3418,-1.0682,-1.0743,-1.0978,-1.1959,-1.2288,-1.2213,-1.1721,0.0,0.0,0.0,0.0,0.0,0.0,0.0,0.0,0.0,0.0,0.0,0.0,0.0,0.0,0.0,0.0,0.0,0.0,0.0,0.0,0.0,0.0,0.0,0.0,0.0,0.0,0.0,0.0,0.0,-2.0635,-2.141,-2.2434,-2.3596,-2.5079,-2.6779,-2.8453,-2.9303,-3.0262,0.0,0.0,-3.0625,-3.0671,-3.0488,-3.0767,-3.1325,-3.1436,-3.2066,-3.2773,-3.2633,-3.2459,-3.2226,-3.2327,-3.2266,-3.2266,-3.2266,-3.2266,-3.2266,-3.2266,-3.2403,-3.2657,-3.2794,-3.2676,-3.2157,-3.1074,-3.0298,-2.9526,-2.8477,-2.8213,-2.8213,-2.8213,-2.7808,-2.7137,-2.647,-2.6486,-2.6627,-2.698,-2.8056,-2.9509,-3.1332,-3.1842,-3.2295,-3.2698,-3.2451,-3.1787,-3.0684,-3.0967,-3.123,-3.123,-3.1807,-3.2529,-3.3369,-3.3418,-3.3418,-3.3418,-3.3418,-3.3418,-3.3418,-3.3418,-3.3418,-3.3418,-3.3418,-3.3418,-3.3418,-3.3418,-3.3418,-1.0833,-1.052,-1.0354,-1.1136,0.0,-1.1491,-1.1021,0.0,0.0,0.0,0.0,0.0,0.0,0.0,0.0,0.0,0.0,0.0,0.0,0.0,0.0,0.0,0.0,0.0,0.0,0.0,0.0,0.0,0.0,0.0,0.0,0.0,0.0,0.0,0.0,0.0,-2.0334,-2.1299,-2.2262,-2.3484,-2.5162,-2.6779,-2.8462,-2.9431,-3.0167,-3.0889,-3.0518,-3.003,-2.9549,-2.9558,-2.9802,-3.0287,-3.0648,-3.1277,-3.1963,-3.1511,-3.115,-3.0809,-3.0699,-3.0705,-3.0705,-3.0705,-3.0705,-3.0705,-3.0705,-3.0963,-3.1341,-3.1873,-3.2147,-3.2147,-3.1322,-3.0678,-2.9909,-2.8977,-2.8706,-2.8706,-2.8706,-2.818,-2.7254,-2.6188,-2.5943,-2.5958,-2.5801,-2.7004,-2.8592,-3.0531,-3.1469,-3.2289,-3.2863,-3.2861,-3.2383,-3.1299,-3.1475,-3.1709,-3.1807,-3.2217,-3.2734,-3.3379,-3.3418,-3.3418,-3.3418,-3.3418,-3.3418,-3.3418,-3.3418,-3.3418,-3.3418,-3.3418,-3.3418,-3.3418,-3.3418,-3.3418,-1.1216,-1.0567,-0.9866,-1.0368,-1.0803,0.0,-1.1533,-1.1585,0.0,0.0,0.0,0.0,0.0,0.0,0.0,0.0,0.0,0.0,0.0,0.0,0.0,0.0,0.0,0.0,0.0,0.0,0.0,0.0,0.0,0.0,0.0,0.0,0.0,0.0,0.0,0.0,-2.0641,-2.1403,-2.214,-2.3118,-2.4783,-2.6512,-2.8426,-2.9166,-2.9912,-3.0889,-3.0167,-2.9422,-2.8545,-2.8582,-2.8817,-2.9265,-2.9907,-3.0662,-3.121,-3.0571,-2.9941,-2.9229,-2.8702,-2.8435,-2.8435,-2.8435,-2.8435,-2.8435,-2.8435,-2.8829,-2.9605,-3.0651,-3.146,-3.1882,-3.1873,-3.1497,-3.1111,-3.0307,-3.0178,-3.0178,-3.0178,-2.9657,-2.8863,-2.78,-2.7286,-2.6902,-2.6643,-2.77,-2.9151,-3.0584,-3.1635,-3.2657,-3.3253,-3.3037,-3.2607,-3.2129,-3.21,-3.2285,-3.2666,-3.3086,-3.3359,-3.3418,-3.3418,-3.3418,-3.3418,-3.3418,-3.3418,-3.3418,-3.3418,-3.3418,-3.3418,-3.3418,-3.3418,-3.3418,-3.3418,-3.3418,-1.0991,-1.0214,-0.9695,-1.0352,0.0,0.0,0.0,0.0,0.0,0.0,0.0,0.0,0.0,0.0,0.0,0.0,0.0,0.0,0.0,0.0,0.0,0.0,0.0,0.0,0.0,0.0,0.0,0.0,0.0,0.0,0.0,0.0,0.0,0.0,0.0,0.0,0.0,-2.0915,-2.1933,-2.3081,-2.4775,-2.6407,-2.7855,-2.8582,-2.9203,-2.9695,-2.8847,-2.7984,-2.7228,-2.7021,-2.722,-2.7687,-2.9297,-3.0005,-3.0073,-2.9601,-2.9164,-2.868,-2.814,-2.8031,-2.823,-2.823,-2.823,-2.823,-2.823,-2.8617,-2.9125,-2.9909,-3.0567,-3.1221,-3.2521,-3.2785,-3.2521,-3.2256,-3.2256,-3.2256,-3.2256,-3.1744,-3.0963,-2.9882,-2.9239,-2.86,-2.78,-2.8452,-2.9509,-3.0567,-3.1488,-3.2403,-3.3292,-3.3281,-3.3027,-3.2607,-3.2559,-3.2627,-3.2783,-3.3184,-3.3418,-3.3418,-3.3418,-3.3418,-3.3418,-3.3418,-3.3418,-3.3418,-3.3418,-3.3418,-3.3418,-3.3418,-3.3418,-3.3418,-3.3418,-3.3418,-1.0726,-0.9896,-0.9337,0.0,0.0,0.0,0.0,0.0,0.0,0.0,0.0,0.0,0.0,0.0,0.0,0.0,0.0,0.0,0.0,0.0,0.0,0.0,0.0,0.0,0.0,0.0,0.0,0.0,0.0,0.0,0.0,0.0,0.0,0.0,0.0,0.0,0.0,-2.0591,-2.1548,-2.2697,-2.39,-2.5456,-2.7004,-2.7486,-2.7855,-2.7975,-2.7125,-2.6269,-2.5538,-2.5448,-2.5684,-2.6407,-2.8717,-2.9424,-2.9149,-2.9179,-2.8853,-2.8308,-2.7769,-2.785,-2.8081,-2.8196,-2.8238,-2.8238,-2.8238,-2.837,-2.8757,-2.9142,-2.9395,-2.9909,-3.1332,-3.2374,-3.2912,-3.3048,-3.3175,-3.3301,-3.3418,-3.2921,-3.2275,-3.1322,-3.0678,-3.0039,-2.8977,-2.95,-3.0151,-3.1074,-3.1744,-3.2521,-3.3292,-3.3418,-3.331,-3.3027,-3.2998,-3.2998,-3.2998,-3.3252,-3.3418,-3.3418,-3.3418,-3.3418,-3.3418,-3.3418,-3.3418,-3.3418,-3.3418,-3.3418,-3.3418,-3.3418,-3.3418,-3.3418,-3.3418,-3.3418,-1.0567,-0.9667,0.0,0.0,0.0,0.0,0.0,0.0,0.0,0.0,0.0,0.0,0.0,0.0,0.0,0.0,0.0,0.0,0.0,0.0,0.0,0.0,0.0,0.0,0.0,0.0,0.0,0.0,0.0,0.0,0.0,0.0,0.0,0.0,0.0,0.0,0.0,-2.0155,-2.0774,-2.1668,-2.2027,-2.3534,-2.5968,-2.5968,-2.5976,-2.5976,-2.5253,-2.4417,-2.3574,-2.3596,-2.434,-2.5709,-2.8131,-2.8796,-2.8571,-2.9187,-2.8853,-2.7893,-2.7627,-2.7489,-2.7555,-2.8056,-2.8172,-2.8172,-2.8172,-2.8188,-2.8205,-2.818,-2.8188,-2.8205,-2.818,-3.0021,-3.201,-3.2284,-3.2667,-3.2921,-3.3292,-3.3175,-3.2667,-3.201,-3.1625,-3.124,-3.0446,-3.0972,-3.1497,-3.1873,-3.253,-3.3048,-3.3301,-3.3418,-3.3418,-3.3418,-3.3418,-3.3418,-3.3418,-3.3418,-3.3418,-3.3418,-3.3418,-3.3418,-3.3418,-3.3418,-3.3418,-3.3418,-3.3418,-3.3418,-3.3418,-3.3418,-3.3418,-3.3418,-3.3418,-3.3418,-0.9393,0.0,0.0,0.0,0.0,0.0,0.0,0.0,0.0,0.0,0.0,0.0,0.0,0.0,0.0,0.0,0.0,0.0,0.0,0.0,0.0,0.0,0.0,0.0,0.0,0.0,0.0,0.0,0.0,0.0,0.0,0.0,0.0,0.0,0.0,0.0,0.0,0.0,-2.0179,-2.0591,-2.0711,-2.1987,-2.4078,-2.4194,-2.4303,-2.4319,-2.384,-2.334,-2.2973,-2.3355,-2.4471,-2.6075,-2.7988,-2.8938,-2.9231,-2.9324,-2.9267,-2.8999,-2.8753,-2.885,-2.9145,-2.9527,-2.9648,-2.9648,-2.9648,-2.9526,-2.9282,-2.902,-2.8757,-2.8633,-2.837,-2.9282,-3.0576,-3.1194,-3.1726,-3.2393,-3.3292,-3.3301,-3.3165,-3.3038,-3.2912,-3.2785,-3.2521,-3.2648,-3.2785,-3.2912,-3.3165,-3.3301,-3.3428,-3.3418,-3.3418,-3.3418,-3.3418,-3.3418,-3.3418,-3.3418,-3.3418,-3.3418,-3.3418,-3.3418,-3.3418,-3.3418,-3.3418,-3.3418,-3.3418,-3.3418,-3.3418,-3.3418,-3.3418,-3.3418,-3.3418,-3.3418,-0.8094,0.0,0.0,0.0,0.0,0.0,0.0,0.0,0.0,0.0,0.0,0.0,0.0,0.0,0.0,0.0,0.0,0.0,0.0,0.0,0.0,0.0,0.0,0.0,0.0,0.0,0.0,0.0,0.0,0.0,0.0,0.0,0.0,0.0,0.0,0.0,0.0,0.0,0.0,-1.9887,-1.9887,-2.0468,-2.1649,-2.2093,-2.2362,-2.2378,-2.2345,-2.2355,-2.248,-2.3223,-2.4456,-2.6075,-2.8032,-2.9085,-2.9568,-3.0092,-3.0215,-3.0127,-3.0334,-3.0572,-3.0751,-3.1304,-3.1479,-3.1479,-3.1479,-3.123,-3.0723,-3.0056,-2.9535,-2.9011,-2.8362,-2.8871,-2.9778,-3.0549,-3.1479,-3.2403,-3.3165,-3.3418,-3.3418,-3.3418,-3.3418,-3.3418,-3.3418,-3.3418,-3.3418,-3.3418,-3.3418,-3.3418,-3.3418,-3.3418,-3.3418,-3.3418,-3.3418,-3.3418,-3.3418,-3.3418,-3.3418,-3.3418,-3.3418,-3.3418,-3.3418,-3.3418,-3.3418,-3.3418,-3.3418,-3.3418,-3.3418,-3.3418,-3.3418,-3.3418,-3.3418,-3.3418,0.0,0.0,0.0,0.0,0.0,0.0,0.0,0.0,0.0,0.0,0.0,0.0,0.0,0.0,0.0,0.0,0.0,0.0,0.0,0.0,0.0,0.0,0.0,0.0,0.0,0.0,0.0,0.0,0.0,0.0,0.0,0.0,0.0,0.0,0.0,0.0,0.0,0.0,0.0,0.0,-1.9366,-1.9366,-1.9386,-1.994,-2.0368,-2.0688,-2.0955,-2.1461,-2.223,-2.3208,-2.444,-2.5823,-2.8217,-2.925,-2.9705,-3.0943,-3.1221,-3.1016,-3.1875,-3.2168,-3.2305,-3.3144,-3.3418,-3.3418,-3.3418,-3.2921,-3.2275,-3.1185,-3.041,-2.977,-2.8706,-2.8829,-2.9622,-3.0714,-3.1635,-3.254,-3.3301,-3.3418,-3.3418,-3.3418,-3.3418,-3.3418,-3.3418,-3.3418,-3.3418,-3.3418,-3.3418,-3.3418,-3.3418,-3.3418,-3.3418,-3.3418,-3.3418,-3.3418,-3.3418,-3.3418,-3.3418,-3.3418,-3.3418,-3.3418,-3.3418,-3.3418,-3.3418,-3.3418,-3.3418,-3.3418,-3.3418,-3.3418,-3.3418,-3.3418,-3.3418,-3.3418,0.0,0.0,0.0,0.0,0.0,0.0,0.0,0.0,0.0,0.0,0.0,0.0,0.0,0.0,0.0,0.0,0.0,0.0,0.0,0.0,0.0,0.0,0.0,0.0,0.0,0.0,0.0,0.0,0.0,0.0,0.0,0.0,0.0,0.0,0.0,0.0,-1.9366,-1.9366,-1.9366,0.0,-1.9366,-1.9366,-1.9379,-1.9733,-2.018,-2.0681,-2.0742,-2.1395,-2.2606,-2.3829,-2.5301,-2.69,-2.8663,-2.9733,-3.0274,-3.0859,-3.0967,-3.1016,-3.1875,-3.2168,-3.2305,-3.3144,-3.3418,-3.3418,-3.3418,-3.3175,-3.2657,-3.1873,-3.135,-3.0843,-3.0048,-3.0437,-3.1092,-3.1497,-3.1882,-3.2266,-3.3165,-3.3418,-3.3418,-3.3418,-3.3418,-3.3418,-3.3418,-3.3418,-3.3418,-3.3418,-3.3418,-3.3418,-3.3418,-3.3418,-3.3418,-3.3418,-3.3418,-3.3418,-3.3418,-3.3418,-3.3418,-3.3418,-3.3418,-3.3418,-3.3418,-3.3418,-3.3418,-3.3418,-3.3418,-3.3418,-3.3418,-3.3418,-3.3418,-3.3418,-3.3418,-3.3418,0.0,0.0,0.0,0.0,0.0,0.0,0.0,0.0,0.0,0.0,0.0,0.0,0.0,0.0,0.0,0.0,0.0,0.0,0.0,0.0,0.0,0.0,0.0,0.0,0.0,0.0,0.0,0.0,0.0,0.0,0.0,0.0,0.0,0.0,0.0,0.0,-1.9158,-1.9299,-1.9299,-1.9158,-1.9299,-1.9482,-1.9597,-1.9784,-1.9967,-2.0274,-2.0555,-2.15,-2.277,-2.4608,-2.6139,-2.7615,-2.9431,-3.0274,-3.0645,-3.0889,-3.0889,-3.1016,-3.1875,-3.2168,-3.2305,-3.3144,-3.3418,-3.3418,-3.3418,-3.3292,-3.3038,-3.2785,-3.2521,-3.2266,-3.1873,-3.2128,-3.2403,-3.2521,-3.2521,-3.253,-3.3292,-3.3418,-3.3418,-3.3418,-3.3418,-3.3418,-3.3418,-3.3418,-3.3418,-3.3418,-3.3418,-3.3418,-3.3418,-3.3418,-3.3418,-3.3418,-3.3418,-3.3418,-3.3418,-3.3418,-3.3418,-3.3418,-3.3418,-3.3418,-3.3418,-3.3418,-3.3418,-3.3418,-3.3418,-3.3418,-3.3418,-3.3418,-3.3418,-3.3418,-3.3418,-3.3418,0.0,0.0,0.0,0.0,0.0,0.0,0.0,0.0,0.0,0.0,0.0,0.0,0.0,0.0,0.0,0.0,0.0,0.0,0.0,0.0,0.0,0.0,0.0,0.0,0.0,0.0,0.0,0.0,0.0,0.0,0.0,0.0,0.0,0.0,0.0,-1.8844,-1.8844,-1.9092,-1.9118,-1.8925,-1.9225,-1.9591,-1.9938,-2.0068,-2.0094,-2.0057,-2.0672,-2.1673,-2.314,-2.5182,-2.6919,-2.8343,-3.0167,-3.0889,-3.0889,-3.0889,-3.0889,-3.1016,-3.1875,-3.2168,-3.2305,-3.3144,-3.3418,-3.3418,-3.3418,-3.3418,-3.3418,-3.3418,-3.3418,-3.3418,-3.3418,-3.3418,-3.3418,-3.3418,-3.3175,-3.3048,-3.3301,-3.3418,-3.3418,-3.3418,-3.3418,-3.3418,-3.3418,-3.3418,-3.3418,-3.3418,-3.3418,-3.3418,-3.3418,-3.3418,-3.3418,-3.3418,-3.3418,-3.3418,-3.3418,-3.3418,-3.3418,-3.3418,-3.3418,-3.3418,-3.3418,-3.3418,-3.3418,-3.3418,-3.3418,-3.3418,-3.3418,-3.3418,-3.3418,-3.3544,-3.3544,-3.3544,0.0,0.0,0.0,0.0,0.0,0.0,0.0,0.0,0.0,0.0,0.0,0.0,0.0,0.0,0.0,0.0,0.0,0.0,0.0,0.0,0.0,0.0,0.0,0.0,0.0,0.0,0.0,0.0,0.0,0.0,0.0,0.0,-1.8123,-1.8163,-1.8417,0.0,-1.8551,-1.8591,-1.8718,-1.8925,-1.9225,-1.9707,-2.027,-2.0967,-2.1256,-2.1085,-2.1392,-2.258,-2.4458,-2.5913,-2.7437,-2.8975,-3.0411,-3.0889,-3.0889,-3.0889,-3.0889,-3.1016,-3.1875,-3.2168,-3.2305,-3.3144,-3.3418,-3.3418,-3.3418,-3.3418,-3.3418,-3.3418,-3.3418,-3.3418,-3.3418,-3.3418,-3.3418,-3.3418,-3.3418,-3.3292,-3.3428,-3.3418,-3.3418,-3.3418,-3.3418,-3.3418,-3.3418,-3.3418,-3.3418,-3.3418,-3.3418,-3.3418,-3.3418,-3.3418,-3.3418,-3.3418,-3.3418,-3.3418,-3.3418,-3.3418,-3.3418,-3.3418,-3.3418,-3.3418,-3.3418,-3.3418,-3.3418,-3.3418,-3.3418,-3.3418,-3.3418,-3.3418,-3.3544,-3.3796,-3.4173,-3.4423,0.0,0.0,0.0,0.0,0.0,0.0,0.0,0.0,0.0,0.0,0.0,0.0,0.0,0.0,0.0,0.0,0.0,0.0,0.0,0.0,0.0,0.0,0.0,0.0,0.0,0.0,0.0,0.0,0.0,0.0,0.0,-1.7709,-1.7869,-1.8043,-1.8279,0.0,-1.8406,-1.8858,-1.941,-1.9935,-2.0076,-2.0672,-2.1509,-2.2281,-2.2366,-2.1962,-2.2821,-2.3889,-2.5161,-2.662,-2.7849,-2.9006,-3.0315,-3.0889,-3.0889,-3.0889,-3.0889,-3.1016,-3.1875,-3.2168,-3.2305,-3.3144,-3.3418,-3.3418,-3.3418,-3.3418,-3.3418,-3.3418,-3.3418,-3.3418,-3.3418,-3.3418,-3.3418,-3.3418,-3.3418,-3.3418,-3.3418,-3.3418,-3.3418,-3.3418,-3.3418,-3.3418,-3.3418,-3.3418,-3.3418,-3.3418,-3.3418,-3.3418,-3.3418,-3.3418,-3.3418,-3.3418,-3.3418,-3.3418,-3.3418,-3.3418,-3.3418,-3.3418,-3.3418,-3.3418,-3.3418,-3.3418,-3.3418,-3.3418,-3.3418,-3.3418,-3.3418,-3.3418,-3.367,-3.4173,-3.4881,-3.5479,0.0,0.0,0.0,0.0,0.0,0.0,0.0,0.0,0.0,0.0,0.0,0.0,0.0,0.0,0.0,0.0,0.0,0.0,0.0,0.0,0.0,0.0,0.0,0.0,0.0,0.0,0.0,0.0,0.0,0.0,-1.7582,-1.7582,-1.7689,-1.7923,-1.817,-1.8436,-1.8497,-1.9495,-2.0327,-2.088,-2.1046,-2.1731,-2.2943,-2.3702,-2.3966,-2.3648,-2.4361,-2.5102,-2.5813,-2.7185,-2.8265,-2.921,-3.0238,-3.0781,-3.0889,-3.0889,-3.0889,-3.0996,-3.1738,-3.2002,-3.2139,-3.2988,-3.3262,-3.3281,-3.3389,-3.3418,-3.3418,-3.3418,-3.3418,-3.3418,-3.3418,-3.3418,-3.3418,-3.3418,-3.3418,-3.3418,-3.3418,-3.3418,-3.3418,-3.3418,-3.3418,-3.3418,-3.3418,-3.3418,-3.3418,-3.3418,-3.3418,-3.3418,-3.3418,-3.3418,-3.3418,-3.3418,-3.3418,-3.3418,-3.3418,-3.3418,-3.3418,-3.3418,-3.3418,-3.3418,-3.3418,-3.3418,-3.3418,-3.3418,-3.3418,-3.3418,-3.3418,-3.3418,-3.3796,-3.4413,-3.5355,-3.6194,0.0,0.0,0.0,0.0,0.0,0.0,0.0,0.0,0.0,0.0,0.0,0.0,0.0,0.0,0.0,0.0,0.0,0.0,0.0,0.0,0.0,0.0,0.0,0.0,0.0,0.0,0.0,0.0,0.0,0.0,-1.7582,-1.7582,-1.7589,-1.7609,-1.7853,-1.8295,-1.8977,-2.0192,-2.0978,-2.1444,-2.2136,-2.2972,-2.4105,-2.533,-2.6282,-2.6763,-2.5916,-2.614,-2.7039,-2.741,-2.8455,-2.9767,-3.012,-3.0508,-3.0889,-3.0889,-3.0889,-3.0957,-3.1396,-3.1553,-3.1689,-3.2549,-3.2832,-3.29,-3.3301,-3.3418,-3.3418,-3.3418,-3.3418,-3.3418,-3.3418,-3.3418,-3.3418,-3.3418,-3.3418,-3.3418,-3.3418,-3.3418,-3.3418,-3.3418,-3.3418,-3.3418,-3.3418,-3.3418,-3.3418,-3.3418,-3.3418,-3.3418,-3.3418,-3.3418,-3.3418,-3.3418,-3.3418,-3.3418,-3.3418,-3.3418,-3.3418,-3.3418,-3.3418,-3.3418,-3.3418,-3.3418,-3.3418,-3.3418,-3.3418,-3.3418,-3.3418,-3.3418,-3.3796,-3.4413,-3.5387,-3.6369,0.0,0.0,0.0,0.0,0.0,0.0,0.0,0.0,0.0,0.0,0.0,0.0,0.0,0.0,0.0,0.0,0.0,0.0,0.0,0.0,0.0,0.0,0.0,0.0,0.0,0.0,0.0,0.0,0.0,0.0,-1.7295,-1.7515,-1.7619,-1.7812,-1.8527,-1.9468,-2.0508,-2.0954,-2.1733,-2.2593,-2.2859,-2.3765,-2.5281,-2.5961,-2.6719,-2.753,-2.7422,-2.7507,-2.7886,-2.8263,-2.8771,-2.9332,-2.998,-3.0303,-3.0478,-3.0781,-3.0889,-3.0957,-3.1367,-3.1514,-3.166,-3.2519,-3.2793,-3.2871,-3.3301,-3.3418,-3.3418,-3.3418,-3.3418,-3.3418,-3.3418,-3.3418,-3.3418,-3.3418,-3.3418,-3.3418,-3.3418,-3.3418,-3.3418,-3.3418,-3.3418,-3.3418,-3.3418,-3.3418,-3.3418,-3.3418,-3.3418,-3.3418,-3.3418,-3.3418,-3.3418,-3.3418,-3.3418,-3.3418,-3.3418,-3.3418,-3.3418,-3.3418,-3.3418,-3.3418,-3.3418,-3.3418,-3.3418,-3.3418,-3.3418,-3.3418,-3.3418,-3.3418,-3.3796,-3.4413,-3.5355,-3.6449,-0.6933,0.0,0.0,0.0,0.0,0.0,0.0,0.0,0.0,0.0,0.0,0.0,0.0,0.0,0.0,0.0,0.0,0.0,0.0,0.0,0.0,0.0,0.0,0.0,0.0,0.0,0.0,0.0,0.0,0.0,-1.6847,-1.736,-1.7865,-1.8438,-1.9626,-2.0716,-2.1573,-2.1879,-2.2491,-2.3405,-2.3678,-2.4509,-2.5872,-2.6503,-2.717,-2.7864,-2.8116,-2.8291,-2.831,-2.8594,-2.8789,-2.8984,-2.9707,-3.0068,-3.0254,-3.0723,-3.0889,-3.0928,-3.1211,-3.1309,-3.1445,-3.2305,-3.2588,-3.2685,-3.3252,-3.3418,-3.3418,-3.3418,-3.3418,-3.3418,-3.3418,-3.3418,-3.3418,-3.3418,-3.3418,-3.3418,-3.3418,-3.3418,-3.3418,-3.3418,-3.3418,-3.3418,-3.3418,-3.3418,-3.3418,-3.3418,-3.3418,-3.3418,-3.3418,-3.3418,-3.3418,-3.3418,-3.3418,-3.3418,-3.3418,-3.3418,-3.3418,-3.3418,-3.3418,-3.3418,-3.3418,-3.3418,-3.3418,-3.3418,-3.3418,-3.3418,-3.3418,-3.3418,-3.367,-3.4298,-3.5119,-3.6449,0.0,0.0,0.0,0.0,0.0,0.0,0.0,0.0,0.0,0.0,0.0,0.0,0.0,0.0,0.0,0.0,0.0,0.0,0.0,0.0,0.0,0.0,0.0,0.0,0.0,0.0,0.0,0.0,0.0,-1.6253,-1.6259,-1.7028,-1.813,-1.9533,-2.1,-2.1917,-2.2148,-2.2784,-2.3359,-2.3799,-2.4648,-2.5293,-2.5781,-2.706,-2.7656,-2.7685,-2.8115,-2.8291,-2.8291,-2.8291,-2.8535,-2.8945,-2.9394,-2.9824,-3.0234,-3.0713,-3.0889,-3.0889,-3.0889,-3.0889,-3.1025,-3.1894,-3.2168,-3.2324,-3.3164,-3.3418,-3.3418,-3.3418,-3.3418,-3.3418,-3.3418,-3.3418,-3.3418,-3.3418,-3.3418,-3.3418,-3.3418,-3.3418,-3.3418,-3.3418,-3.3418,-3.3418,-3.3418,-3.3418,-3.3418,-3.3418,-3.3418,-3.3418,-3.3418,-3.3418,-3.3418,-3.3418,-3.3418,-3.3418,-3.3418,-3.3418,-3.3418,-3.3418,-3.3418,-3.3418,-3.3418,-3.3418,-3.3418,-3.3418,-3.3418,-3.3418,-3.3418,-3.3418,-3.3544,-3.3922,-3.4548,-3.6237,-0.801,0.0,0.0,0.0,0.0,0.0,0.0,0.0,0.0,0.0,0.0,0.0,0.0,0.0,0.0,0.0,0.0,0.0,0.0,0.0,0.0,0.0,0.0,0.0,0.0,0.0,0.0,0.0,0.0,-1.5732,-1.5939,-1.718,-1.8555,-1.9894,-2.0924,-2.1733,-2.2344,-2.2872,-2.3359,-2.3799,-2.4336,-2.5,-2.5771,-2.6748,-2.7373,-2.7685,-2.8115,-2.8291,-2.8291,-2.8291,-2.8359,-2.8535,-2.9277,-2.9639,-2.9834,-3.0605,-3.0889,-3.0889,-3.0889,-3.0889,-3.1025,-3.1894,-3.2168,-3.2324,-3.3164,-3.3418,-3.3418,-3.3418,-3.3418,-3.3418,-3.3418,-3.3418,-3.3418,-3.3418,-3.3418,-3.3418,-3.3418,-3.3418,-3.3418,-3.3418,-3.3418,-3.3418,-3.3418,-3.3418,-3.3418,-3.3418,-3.3418,-3.3418,-3.3418,-3.3418,-3.3418,-3.3418,-3.3418,-3.3418,-3.3418,-3.3418,-3.3418,-3.3418,-3.3418,-3.3418,-3.3418,-3.3418,-3.3418,-3.3418,-3.3418,-3.3418,-3.3418,-3.3418,-3.3418,-3.3544,-3.4173,-3.5253,-0.8812,0.0,0.0,0.0,0.0,0.0,0.0,0.0,0.0,0.0,0.0,0.0,0.0,0.0,0.0,0.0,0.0,0.0,0.0,0.0,0.0,0.0,0.0,0.0,0.0,0.0,0.0,0.0,-1.4863,-1.5248,-1.5729,-1.6899,-1.8164,-1.9428,-2.0578,-2.153,-2.2246,-2.2784,-2.3271,-2.3525,-2.4131,-2.4687,-2.5225,-2.6279,-2.6982,-2.7412,-2.7842,-2.8135,-2.8291,-2.8291,-2.8291,-2.8379,-2.9238,-2.957,-2.9678,-3.0566,-3.0889,-3.0889,-3.0889,-3.0889,-3.1025,-3.1894,-3.2168,-3.2324,-3.3164,-3.3418,-3.3418,-3.3418,-3.3418,-3.3418,-3.3418,-3.3418,-3.3418,-3.3418,-3.3418,-3.3418,-3.3418,-3.3418,-3.3418,-3.3418,-3.3418,-3.3418,-3.3418,-3.3418,-3.3418,-3.3418,-3.3418,-3.3418,-3.3418,-3.3418,-3.3418,-3.3418,-3.3418,-3.3418,-3.3418,-3.3418,-3.3418,-3.3418,-3.3418,-3.3418,-3.3418,-3.3418,-3.3418,-3.3418,-3.3418,-3.3418,-3.3418,-3.3418,-3.3418,-3.3418,-3.3922,-3.4642,-0.9776,-0.9372,0.0,0.0,0.0,0.0,0.0,-0.7154,0.0,0.0,0.0,0.0,0.0,0.0,0.0,0.0,0.0,0.0,0.0,0.0,0.0,0.0,0.0,0.0,0.0,0.0,-1.3296,-1.3988,-1.4289,-1.4784,-1.5644,-1.6338,-1.7251,-1.8459,-2.0,-2.1158,-2.1896,-2.2668,-2.3076,-2.3135,-2.4023,-2.4443,-2.4531,-2.581,-2.6592,-2.6973,-2.7451,-2.7881,-2.8223,-2.8271,-2.8291,-2.8379,-2.9238,-2.957,-2.9678,-3.0566,-3.0889,-3.0889,-3.0889,-3.0889,-3.1025,-3.1894,-3.2168,-3.2324,-3.3164,-3.3418,-3.3418,-3.3418,-3.3418,-3.3418,-3.3418,-3.3418,-3.3418,-3.3418,-3.3418,-3.3418,-3.3418,-3.3418,-3.3418,-3.3418,-3.3418,-3.3418,-3.3418,-3.3418,-3.3418,-3.3418,-3.3418,-3.3418,-3.3418,-3.3418,-3.3418,-3.3418,-3.3418,-3.3418,-3.3418,-3.3418,-3.3418,-3.3418,-3.3418,-3.3418,-3.3418,-3.3418,-3.3418,-3.3418,-3.3418,-3.3418,-3.3418,-3.3418,-3.3418,-3.3428,-3.367,-3.4173,-0.9668,-0.9427,-0.9074,0.0,0.0,0.0,0.0,-0.7634,0.0,0.0,0.0,0.0,0.0,0.0,0.0,0.0,0.0,0.0,0.0,0.0,0.0,0.0,0.0,0.0,0.0,0.0,-1.3059,-1.338,-1.3868,-1.4568,-1.5356,-1.591,-1.6558,-1.742,-1.8916,-2.0088,-2.0781,-2.1998,-2.278,-2.3393,-2.4078,-2.46,-2.4971,-2.5947,-2.6435,-2.6553,-2.7334,-2.7715,-2.7812,-2.8154,-2.8291,-2.8379,-2.9238,-2.957,-2.9678,-3.0566,-3.0889,-3.0889,-3.0889,-3.0889,-3.1025,-3.1894,-3.2168,-3.2324,-3.3164,-3.3418,-3.3418,-3.3418,-3.3418,-3.3418,-3.3418,-3.3418,-3.3418,-3.3418,-3.3418,-3.3418,-3.3418,-3.3418,-3.3418,-3.3418,-3.3418,-3.3418,-3.3418,-3.3418,-3.3418,-3.3418,-3.3418,-3.3418,-3.3418,-3.3418,-3.3418,-3.3418,-3.3418,-3.3418,-3.3418,-3.3418,-3.3418,-3.3418,-3.3418,-3.3418,-3.3418,-3.3418,-3.3418,-3.3418,-3.3418,-3.3418,-3.3418,-3.3418,-3.3418,-3.3418,-3.3418,-3.3544,-1.0097,-0.9864,-0.9477,-0.9087,0.0,0.0,0.0,0.0,0.0,0.0,0.0,0.0,0.0,0.0,0.0,0.0,0.0,0.0,0.0,0.0,0.0,0.0,0.0,0.0,0.0,0.0,-1.3055,-1.3206,-1.3621,-1.3988,-1.4446,-1.4861,-1.5446,-1.6213,-1.7305,-1.8431,-1.9587,-2.0932,-2.2157,-2.3066,-2.3944,-2.4648,-2.5088,-2.5762,-2.6182,-2.6426,-2.706,-2.7461,-2.7695,-2.8125,-2.8291,-2.8379,-2.9238,-2.957,-2.9678,-3.0566,-3.0889,-3.0889,-3.0889,-3.0889,-3.0996,-3.1631,-3.1846,-3.2002,-3.2851,-3.3252,-3.3418,-3.3418,-3.3418,-3.3379,-3.3164,-3.3105,-3.3057,-3.2842,-3.2949,-3.3105,-3.3105,-3.3271,-3.3418,-3.3418,-3.3418,-3.3418,-3.3418,-3.3418,-3.3418,-3.3418,-3.3418,-3.3418,-3.3418,-3.3418,-3.3418,-3.3418,-3.3418,-3.3418,-3.3418,-3.3418,-3.3418,-3.3418,-3.3418,-3.3418,-3.3418,-3.3418,-3.3418,-3.3418,-3.3418,-3.3418,-3.3418,-3.3418,-3.3418,-3.3418,-3.3418,-3.3418,0.0,0.0,0.0,0.0,0.0,-0.9069,0.0,0.0,0.0,0.0,0.0,0.0,0.0,0.0,0.0,0.0,0.0,0.0,0.0,0.0,0.0,0.0,0.0,0.0,0.0,0.0,-1.2909,-1.3024,-1.3245,-1.338,-1.3547,-1.3841,-1.4389,-1.5112,-1.5826,-1.6875,-1.8322,-1.9861,-2.1192,-2.2308,-2.3528,-2.4359,-2.4888,-2.5334,-2.583,-2.619,-2.6797,-2.7217,-2.7578,-2.8086,-2.8291,-2.8379,-2.9238,-2.957,-2.9678,-3.0566,-3.0889,-3.0889,-3.0889,-3.0889,-3.0957,-3.1377,-3.1631,-3.1894,-3.2588,-3.3086,-3.3418,-3.3418,-3.3418,-3.333,-3.29,-3.2793,-3.2685,-3.2275,-3.249,-3.2793,-3.2793,-3.3125,-3.3418,-3.3418,-3.3418,-3.3418,-3.3418,-3.3418,-3.3418,-3.3418,-3.3418,-3.3418,-3.3418,-3.3418,-3.3418,-3.3418,-3.3418,-3.3418,-3.3418,-3.3418,-3.3418,-3.3418,-3.3418,-3.3418,-3.3418,-3.3418,-3.3418,-3.3418,-3.3418,-3.3418,-3.3418,-3.3418,-3.3418,-3.3418,-3.3418,-3.3418,0.0,0.0,0.0,0.0,-0.9883,0.0,0.0,0.0,0.0,0.0,0.0,0.0,0.0,0.0,0.0,0.0,0.0,0.0,0.0,0.0,0.0,0.0,0.0,0.0,0.0,0.0,0.0,-1.2478,-1.249,-1.2722,-1.3371,-1.3534,-1.3904,-1.4523,-1.5298,-1.6085,-1.6939,-1.8758,-2.0093,-2.1068,-2.2455,-2.3409,-2.4125,-2.4742,-2.5166,-2.5448,-2.6559,-2.7041,-2.7148,-2.7959,-2.8291,-2.8379,-2.9238,-2.957,-2.9678,-3.0566,-3.0889,-3.0889,-3.0889,-3.0889,-3.0957,-3.1377,-3.2031,-3.2666,-3.2764,-3.3086,-3.3418,-3.3418,-3.3418,-3.333,-3.29,-3.2793,-3.2685,-3.2275,-3.249,-3.2793,-3.2793,-3.3125,-3.3418,-3.3418,-3.3418,-3.3418,-3.3418,-3.3418,-3.3418,-3.3418,-3.3418,-3.3418,-3.3418,-3.3418,-3.3418,-3.3418,-3.3418,-3.3418,-3.3418,-3.3418,-3.3418,-3.3418,-3.3418,-3.3418,-3.3418,-3.3418,-3.3418,-3.3418,-3.3418,-3.3418,-3.3418,-3.3418,-3.3418,-3.3418,-3.3418,-3.3418,0.0,0.0,0.0,0.0,0.0,0.0,0.0,0.0,-0.9648,0.0,0.0,0.0,0.0,0.0,0.0,0.0,0.0,0.0,0.0,0.0,0.0,0.0,0.0,0.0,0.0,0.0,0.0,0.0,0.0,-1.241,-1.2709,-1.3279,-1.3694,-1.3897,-1.4439,-1.5106,-1.5899,-1.7086,-1.8298,-1.9538,-2.0687,-2.1821,-2.2938,-2.3825,-2.4421,-2.4881,-2.6338,-2.7012,-2.708,-2.7939,-2.8291,-2.8379,-2.9238,-2.957,-2.9678,-3.0566,-3.0889,-3.0889,-3.0889,-3.0889,-3.0918,-3.1094,-3.1562,-3.2051,-3.2051,-3.2353,-3.2695,-3.2695,-3.2695,-3.2598,-3.2168,-3.2051,-3.1943,-3.1523,-3.1748,-3.2051,-3.2051,-3.2393,-3.2695,-3.2695,-3.2891,-3.3057,-3.3057,-3.3262,-3.3418,-3.3418,-3.3418,-3.3418,-3.3418,-3.3418,-3.3418,-3.3418,-3.3418,-3.3418,-3.3418,-3.3418,-3.3418,-3.3418,-3.3418,-3.3418,-3.3418,-3.3418,-3.3418,-3.3418,-3.3418,-3.3418,-3.3418,-3.3418,-3.3418,-3.3418,-3.3418,-3.3418,-0.9123,0.0,0.0,0.0,0.0,0.0,0.0,0.0,0.0,0.0,0.0,0.0,0.0,0.0,0.0,0.0,0.0,0.0,0.0,0.0,0.0,0.0,0.0,0.0,0.0,0.0,0.0,0.0,0.0,0.0,-1.2103,-1.2831,-1.3353,-1.352,-1.3814,-1.4271,-1.5077,-1.5733,-1.6775,-1.7972,-1.9127,-2.0276,-2.1514,-2.2766,-2.3502,-2.418,-2.5812,-2.65,-2.6557,-2.7506,-2.7853,-2.7939,-2.8786,-2.9122,-2.9341,-3.0451,-3.0889,-3.0889,-3.0889,-3.0889,-3.0889,-3.0889,-3.1172,-3.1514,-3.1514,-3.1826,-3.2168,-3.2168,-3.2168,-3.207,-3.1631,-3.1514,-3.1406,-3.0996,-3.1211,-3.1514,-3.1514,-3.1865,-3.2168,-3.2168,-3.251,-3.2793,-3.2793,-3.3144,-3.3418,-3.3418,-3.3418,-3.3418,-3.3418,-3.3418,-3.3418,-3.3418,-3.3418,-3.3418,-3.3418,-3.3418,-3.3418,-3.3418,-3.3418,-3.3418,-3.3418,-3.3418,-3.3418,-3.3418,-3.3418,-3.3418,-3.3418,-3.3418,-3.3418,-3.3418,-3.3418,-3.3418,0.0,0.0,0.0,0.0,0.0,0.0,0.0,0.0,-0.8815,0.0,0.0,0.0,0.0,0.0,0.0,0.0,0.0,0.0,0.0,0.0,0.0,0.0,0.0,0.0,0.0,0.0,0.0,0.0,0.0,0.0,-1.1493,-1.207,-1.2612,-1.3206,-1.3507,-1.3877,-1.4405,-1.5205,-1.5879,-1.65,-1.7908,-1.9127,-1.9997,-2.147,-2.24,-2.3073,-2.4678,-2.5344,-2.5408,-2.6323,-2.6654,-2.6737,-2.7556,-2.7992,-2.8445,-3.0219,-3.0889,-3.0889,-3.0889,-3.0889,-3.0889,-3.0889,-3.1172,-3.1514,-3.1514,-3.1826,-3.2168,-3.2168,-3.2168,-3.207,-3.1631,-3.1514,-3.1406,-3.0996,-3.1211,-3.1514,-3.1514,-3.1865,-3.2168,-3.2168,-3.251,-3.2793,-3.2793,-3.3144,-3.3418,-3.3418,-3.3418,-3.3418,-3.3418,-3.3418,-3.3418,-3.3418,-3.3418,-3.3418,-3.3418,-3.3418,-3.3418,-3.3418,-3.3418,-3.3418,-3.3418,-3.3418,-3.3418,-3.3418,-3.3418,-3.3418,-3.3418,-3.3418,-3.3418,-3.3418,-3.3418,-3.3418,0.0,0.0,-0.6858,-0.6881,0.0,0.0,0.0,0.0,0.0,0.0,0.0,0.0,0.0,0.0,0.0,0.0,0.0,0.0,0.0,0.0,0.0,0.0,0.0,0.0,0.0,0.0,0.0,0.0,0.0,0.0,0.0,-1.1526,-1.2198,-1.2599,-1.328,-1.3687,-1.3864,-1.4328,-1.4902,-1.55,-1.6292,-1.7284,-1.8412,-1.9743,-2.0767,-2.1436,-2.2871,-2.3614,-2.3674,-2.4419,-2.4727,-2.4804,-2.5557,-2.6212,-2.7018,-2.9367,-3.0401,-3.0635,-3.0772,-3.0889,-3.0889,-3.0889,-3.0986,-3.1103,-3.1103,-3.1211,-3.1318,-3.1318,-3.1318,-3.1289,-3.1143,-3.1103,-3.1064,-3.0928,-3.0996,-3.1103,-3.1103,-3.1221,-3.1318,-3.1318,-3.166,-3.1943,-3.1943,-3.2539,-3.3105,-3.3379,-3.3418,-3.3418,-3.3418,-3.3418,-3.3418,-3.3418,-3.3418,-3.3418,-3.3418,-3.3418,-3.3418,-3.3418,-3.3418,-3.3418,-3.3418,-3.3418,-3.3418,-3.3418,-3.3418,-3.3418,-3.3418,-3.3418,-3.3418,-3.3418,-3.3418,-3.3418,-0.575,-0.5645,0.0,0.0,-0.5908,0.0,0.0,0.0,0.0,0.0,0.0,0.0,0.0,0.0,0.0,0.0,0.0,0.0,0.0,0.0,0.0,0.0,0.0,0.0,0.0,0.0,-0.918,-0.9064,-0.9219,0.0,0.0,0.0,-1.1722,-1.2049,-1.2966,-1.3459,-1.3477,-1.3767,-1.4117,-1.4611,-1.4981,-1.5691,-1.6857,-1.8259,-1.9162,-1.9831,-2.1454,-2.2124,-2.218,-2.2878,-2.3167,-2.3239,-2.3945,-2.4694,-2.5602,-2.8392,-2.9903,-3.0635,-3.0889,-3.0889,-3.0889,-3.0889,-3.0889,-3.0889,-3.0889,-3.0889,-3.0889,-3.0889,-3.0889,-3.0889,-3.0889,-3.0889,-3.0889,-3.0889,-3.0889,-3.0889,-3.0889,-3.0889,-3.0889,-3.0889,-3.123,-3.1514,-3.1514,-3.2226,-3.2891,-3.3164,-3.333,-3.3418,-3.3418,-3.3418,-3.3418,-3.3418,-3.3418,-3.3418,-3.3418,-3.3418,-3.3418,-3.3418,-3.3544,-3.367,-3.3796,-3.3796,-3.3796,-3.3796,-3.3796,-3.3796,-3.3796,-3.3922,-3.4047,-3.4173,-3.4173,-3.4173]}]]